GFSCGP_500_spd_003.txt.gz
Wind_Speed
7 7 8 8 8 10 10 9 10 11 13 11 15 13 13 13 14 16 16 18 21 23 24 24 23 23 24 25 27 31 36 39 39 43 45 46 47 48 50 52 54 55 56 58
9 7 8 9 8 10 10 11 11 12 12 11 14 15 15 11 14 17 15 15 18 18 20 26 27 28 29 32 36 39 40 42 45 48 48 50 51 51 54 56 58 60 61 61
10 11 12 12 11 13 17 13 16 14 13 18 18 18 20 19 16 20 23 21 22 25 27 29 34 36 38 39 38 41 45 48 51 52 52 54 54 53 55 58 60 62 63 63
11 11 15 16 17 15 16 16 15 17 18 18 24 19 23 27 26 25 24 24 30 33 33 35 37 37 38 40 43 44 47 49 52 56 58 57 55 57 58 59 63 63 63 66
11 13 15 17 16 18 20 19 20 17 18 19 21 24 21 29 33 36 36 30 31 41 40 33 40 42 41 39 39 43 47 49 51 51 53 57 58 59 59 60 61 64 68 68
16 15 18 19 19 19 17 18 20 23 23 25 25 22 16 28 29 34 40 42 40 49 51 48 47 45 42 41 44 48 49 52 54 57 55 53 55 56 59 61 62 64 67 69
21 19 14 19 17 19 17 19 21 22 22 23 28 27 28 28 24 26 33 37 46 49 52 53 53 52 54 52 54 55 57 61 60 60 61 62 62 62 62 63 64 66 65 64
21 25 20 17 16 16 20 23 24 26 28 27 23 25 23 29 29 37 39 42 48 49 54 57 60 61 61 60 60 60 63 65 61 58 60 62 62 62 65 68 69 68 69 66
18 22 20 15 18 19 23 24 28 31 32 34 31 23 17 29 32 32 36 43 50 52 57 62 64 64 64 63 62 63 65 64 63 62 62 61 62 66 68 68 68 70 69 65
17 15 15 18 20 21 21 27 30 33 36 40 39 32 25 30 28 29 38 46 51 52 58 59 57 57 60 60 61 64 64 62 63 62 60 63 67 69 69 68 69 66 62 60
16 14 19 21 23 26 29 31 35 36 36 41 46 40 33 36 44 41 49 55 56 62 63 61 61 61 63 64 62 60 62 61 61 61 66 69 70 72 71 70 67 61 57 57
18 19 20 26 31 31 30 28 30 38 39 39 44 45 32 40 38 46 49 55 56 58 59 55 55 57 57 58 59 60 62 63 65 67 70 72 74 75 74 72 63 57 58 57
23 25 24 24 32 33 29 25 28 35 41 41 47 51 46 40 44 45 52 53 55 56 56 55 54 57 59 61 63 65 67 69 72 73 75 76 77 76 77 72 62 59 57 52
28 28 31 31 33 40 40 33 29 34 42 48 48 51 44 41 45 53 56 57 58 58 55 54 57 59 62 65 67 68 70 74 77 78 78 79 79 78 73 63 58 53 50 49
32 30 34 30 35 39 42 39 38 41 44 46 45 43 41 45 53 56 58 56 54 56 54 57 60 60 63 66 69 72 74 76 78 82 83 82 80 77 68 58 51 49 48 47
38 37 40 37 36 41 46 40 44 45 43 42 42 44 47 50 54 54 49 53 54 56 61 63 66 69 70 72 74 77 79 80 83 85 85 82 78 67 58 52 49 48 48 48
37 43 47 48 45 49 45 36 39 42 40 41 46 52 53 49 47 54 58 53 61 67 66 68 72 73 74 77 79 80 82 84 85 86 81 75 63 56 51 48 48 48 49 52
40 43 46 50 49 52 43 38 41 45 45 47 47 47 42 48 55 59 62 58 69 67 70 73 75 77 78 79 81 83 84 85 84 79 74 64 56 51 49 49 48 48 52 52
43 45 46 46 48 51 41 48 52 52 50 48 47 47 52 49 59 61 63 67 70 73 76 78 80 80 81 83 85 86 86 83 79 73 62 56 51 49 49 48 49 53 52 51
42 41 44 43 48 51 46 50 52 49 46 51 55 55 57 51 65 61 62 67 71 77 83 84 82 81 83 85 86 87 85 79 72 63 57 52 49 49 48 49 53 52 51 53
41 44 41 43 47 52 49 51 46 51 57 55 59 60 61 63 64 66 67 70 76 81 82 80 83 84 85 86 87 86 79 71 63 57 50 49 49 47 49 54 53 51 52 55
45 47 49 52 54 55 50 54 51 54 58 60 63 63 60 60 64 70 75 82 81 77 75 77 81 84 86 86 86 79 70 62 56 51 49 48 47 50 54 53 51 52 55 56
50 46 49 51 58 50 51 56 57 59 62 64 65 60 62 69 74 79 80 78 75 74 77 79 82 85 85 84 79 67 60 55 50 49 47 46 50 54 54 52 53 55 56 54
58 54 55 58 54 54 59 59 59 62 65 63 61 62 66 74 75 74 78 78 75 77 80 82 90 86 81 76 62 55 53 51 50 47 46 51 55 55 53 55 57 56 53 49
60 56 55 61 59 64 63 64 66 63 63 67 69 74 74 72 71 70 77 74 77 83 84 87 93 81 71 58 52 52 52 50 47 47 52 56 56 55 57 58 57 53 49 45
56 55 58 63 64 68 67 66 65 67 71 74 76 76 75 73 72 72 74 76 78 84 84 93 82 68 56 51 51 51 49 46 48 54 57 57 58 59 58 55 51 48 44 38

GFSCGP_500_spd_006.txt.gz
Wind_Speed
6 4 5 6 10 10 10 11 11 12 11 9 12 14 11 14 14 15 16 18 19 22 23 24 27 29 32 34 37 41 43 44 44 45 48 49 51 52 53 55 56 56 55 57
6 9 10 11 10 12 10 12 14 16 17 13 13 16 18 16 14 18 23 24 26 27 27 28 28 34 34 33 37 40 44 46 48 49 52 54 55 55 56 57 58 60 59 59
8 9 10 10 11 12 14 13 14 13 15 22 20 19 19 19 17 18 19 20 22 23 30 32 29 28 30 33 33 33 36 44 49 52 54 55 56 55 55 58 59 59 60 61
9 11 13 15 14 12 14 16 16 14 13 17 19 19 20 20 20 23 26 22 23 26 30 31 32 32 33 33 35 35 38 42 47 49 51 55 57 60 60 60 60 60 61 61
12 13 15 18 17 14 14 15 16 16 19 18 19 18 19 24 26 28 32 31 32 34 33 34 37 40 40 43 45 46 48 48 52 51 51 55 57 55 56 57 59 59 59 58
15 14 16 19 21 17 15 13 17 19 20 19 22 22 25 31 31 33 35 37 42 38 38 42 46 49 48 51 48 47 49 52 54 57 57 55 56 59 60 60 60 60 61 64
18 16 18 18 20 17 15 15 18 22 21 23 25 21 29 31 34 35 36 42 40 38 42 46 50 50 55 55 53 53 53 57 58 60 61 61 60 61 60 61 63 67 68 69
19 17 17 18 16 14 16 17 18 22 24 21 22 22 26 30 32 34 39 40 44 41 47 49 52 55 55 56 60 59 58 60 61 61 61 62 62 62 62 64 67 68 69 71
14 17 16 17 14 15 18 20 24 26 30 28 22 17 22 25 27 35 36 42 46 45 43 48 51 51 54 57 57 58 57 56 58 60 62 63 64 65 67 69 70 68 69 69
11 12 14 14 16 18 22 24 31 32 33 34 32 22 26 24 31 29 41 47 45 46 46 49 52 56 53 52 52 53 57 59 62 64 66 67 69 71 72 73 74 74 74 74
10 12 17 19 21 23 24 27 31 34 34 36 41 33 26 32 38 43 47 45 48 44 48 54 55 52 55 55 55 57 59 61 63 66 68 70 72 73 75 77 78 78 77 74
15 16 21 23 26 27 24 25 30 37 38 37 43 43 35 39 40 47 46 45 45 47 52 52 50 52 53 57 60 59 61 65 68 68 69 71 74 76 78 78 79 78 75 69
22 21 21 28 31 32 26 24 32 39 42 43 47 46 39 40 42 45 47 46 48 49 48 55 53 51 58 62 61 63 67 68 70 72 75 75 75 76 76 78 76 72 66 61
25 25 26 26 31 36 29 26 31 40 42 48 44 50 40 48 46 47 48 49 47 48 54 58 55 55 65 64 67 69 73 74 74 75 76 77 77 78 78 75 71 62 56 53
27 27 27 26 31 36 32 35 37 39 36 41 37 38 41 44 46 48 46 47 54 53 54 57 56 64 66 69 73 78 80 78 78 78 79 80 81 79 75 71 64 54 49 49
31 32 37 30 37 41 36 35 37 36 35 39 41 43 44 43 45 48 48 54 53 54 53 62 65 65 68 75 81 81 79 78 80 81 83 84 81 75 69 62 55 50 50 48
32 37 40 39 38 39 29 32 34 36 36 41 42 40 38 42 49 49 52 54 50 52 60 65 66 68 76 78 79 80 82 81 82 85 87 84 76 63 53 50 49 49 47 46
35 38 40 42 40 43 26 37 39 44 42 42 42 45 50 50 53 54 53 57 54 57 59 65 71 74 75 79 80 82 82 84 86 89 85 76 63 55 49 46 46 46 45 45
36 37 37 39 45 48 35 43 47 52 51 49 46 52 52 53 54 54 55 56 58 64 73 76 76 77 78 83 84 84 85 89 93 92 80 65 53 49 46 43 42 42 45 49
32 35 36 39 46 50 41 48 51 55 55 55 58 59 58 58 60 60 59 64 69 75 79 79 80 81 83 89 90 90 93 97 97 85 66 55 50 47 46 44 44 47 50 51
33 35 35 40 44 48 44 48 50 55 61 62 63 62 62 62 62 64 69 72 72 72 77 81 81 82 87 92 89 93 92 94 83 64 55 52 50 48 45 45 49 53 53 52
37 40 42 46 52 51 51 52 52 57 61 62 61 62 63 63 64 68 71 67 73 77 77 79 82 81 82 83 88 92 91 76 61 55 53 51 48 46 46 51 55 56 54 53
43 41 47 47 52 47 50 56 58 59 63 64 63 62 64 65 69 71 70 68 80 78 82 83 84 85 90 92 83 88 66 57 53 54 53 50 48 50 54 57 57 57 56 54
49 48 48 55 48 54 58 58 59 61 63 62 64 64 66 66 67 58 70 78 84 82 81 86 89 87 87 90 86 65 55 53 54 54 50 50 53 56 58 58 59 58 55 51
53 54 57 60 56 63 61 62 64 64 65 68 67 62 61 72 75 74 73 79 81 82 81 84 87 91 92 82 60 52 53 54 53 51 52 55 58 59 60 60 57 54 52 49
54 57 59 61 60 67 65 67 65 67 67 65 64 65 76 79 76 77 76 76 79 80 85 86 84 84 70 54 49 52 53 51 51 54 56 58 60 60 57 53 50 48 46 44

GFSCGP_500_spd_009.txt.gz
Wind_Speed
5 4 4 4 8 7 7 7 10 12 8 9 9 9 11 12 15 17 18 19 21 22 24 26 26 26 26 30 31 33 36 39 43 46 48 49 50 51 53 55 56 55 56 58
4 6 6 7 8 9 8 9 9 14 14 11 12 16 16 17 17 21 23 22 20 23 25 25 28 30 29 32 31 32 34 40 44 48 50 50 51 52 52 54 58 61 63 64
7 8 8 9 10 12 10 11 11 10 14 13 12 14 18 20 21 22 22 24 27 27 27 30 30 28 30 31 32 36 40 44 48 50 53 55 52 54 53 55 57 60 62 62
9 11 13 12 12 11 13 14 14 13 12 12 15 15 20 20 21 23 25 27 27 29 27 30 29 30 32 33 38 40 44 49 51 51 52 53 56 56 57 60 62 61 61 63
13 14 15 17 16 12 13 16 15 13 14 17 16 20 23 22 25 25 26 27 30 28 30 32 31 33 37 40 44 47 53 55 54 54 55 57 58 57 56 57 57 58 60 60
16 17 18 21 22 16 15 14 13 14 16 19 20 22 24 27 28 30 31 32 33 34 34 34 40 40 42 47 49 54 57 59 59 58 59 59 58 58 59 61 63 63 65 66
18 18 19 22 23 22 19 15 15 17 17 20 23 26 28 30 32 30 31 36 38 41 41 43 45 46 50 53 56 58 59 59 57 57 56 56 58 60 62 64 66 69 71 71
20 19 20 22 20 20 17 15 16 20 22 22 27 28 27 31 37 37 41 41 42 45 47 49 50 51 53 55 57 58 57 56 56 58 60 61 63 65 67 70 72 73 74 76
16 15 16 17 18 19 18 19 22 26 28 28 25 21 25 31 36 44 44 47 49 49 50 50 50 49 53 54 54 54 53 52 57 60 62 64 66 70 71 73 75 78 80 81
11 12 13 13 15 18 20 24 27 31 33 35 33 22 26 32 41 41 47 50 49 48 46 46 47 50 52 51 54 54 56 60 63 65 68 70 71 73 76 79 81 84 84 82
12 14 17 17 18 20 23 27 31 34 35 37 42 33 32 37 43 44 43 42 41 43 45 47 48 49 50 56 59 60 62 64 68 70 71 73 78 81 79 78 77 77 78 79
15 18 20 21 22 21 25 28 32 37 38 37 42 38 37 41 42 37 38 40 43 46 46 45 48 53 57 59 60 61 62 66 70 72 77 82 81 82 81 82 80 80 77 73
21 21 23 25 25 22 23 29 35 40 42 41 43 40 36 39 40 41 43 45 46 45 49 52 54 59 58 61 64 65 71 73 75 79 83 84 83 82 81 82 84 76 71 66
23 23 24 27 29 26 22 27 34 40 40 42 34 39 36 40 41 41 41 44 50 52 53 56 57 59 57 60 65 72 74 77 80 83 83 83 85 85 85 91 89 78 65 55
26 24 25 26 30 32 26 30 31 33 32 37 34 35 39 42 41 44 47 52 54 53 55 57 58 59 57 58 65 73 77 78 81 83 84 87 94 91 87 86 84 66 53 49
29 31 31 26 36 36 28 29 35 33 32 37 40 42 44 43 46 47 48 50 53 56 58 58 58 58 61 68 72 77 81 83 84 84 87 88 86 88 88 87 62 49 47 48
31 36 39 33 33 34 24 30 34 35 36 40 44 44 43 42 46 48 48 52 54 54 60 58 61 68 71 71 75 77 87 87 87 86 84 82 89 91 74 55 48 46 47 48
36 38 39 39 38 35 19 35 38 41 42 43 46 44 45 48 50 51 55 59 58 60 61 64 67 69 71 75 78 87 86 88 90 89 84 87 90 81 63 50 46 46 46 44
34 35 39 38 41 42 26 38 41 44 47 46 51 54 55 55 59 56 59 59 59 62 64 70 68 73 72 73 81 88 90 91 91 87 89 89 75 60 52 49 47 45 43 43
34 36 36 36 42 44 37 45 48 52 54 55 58 59 59 62 66 66 67 68 71 70 70 74 67 71 76 84 87 88 90 88 89 86 81 62 52 52 51 48 45 44 45 48
33 37 36 38 42 44 44 49 50 53 57 60 61 61 61 63 66 68 70 71 69 70 75 78 79 80 86 93 96 92 90 85 82 76 59 53 52 52 49 47 47 50 53 55
35 36 34 39 43 42 47 53 56 59 62 61 61 62 62 65 68 70 70 72 72 70 70 77 87 86 88 89 87 93 87 77 66 55 51 53 51 50 50 52 54 56 57 57
37 35 38 42 45 44 51 58 60 63 62 63 64 64 67 69 71 75 71 70 66 70 77 90 89 91 85 83 91 88 71 61 55 52 53 52 52 54 55 57 58 59 59 58
41 35 42 47 44 49 56 57 61 64 67 65 67 70 70 71 75 69 64 73 82 85 87 91 88 84 87 88 87 66 57 52 52 53 51 52 54 57 59 61 60 57 55 52
45 47 51 55 58 59 58 60 66 67 56 72 72 73 73 73 70 69 71 75 80 89 86 84 82 84 90 83 62 54 51 53 52 50 52 54 57 59 58 55 52 48 45 42
48 51 58 63 63 65 66 67 57 69 69 74 75 76 76 75 76 77 76 80 79 76 82 90 90 87 71 55 48 47 52 50 49 51 55 57 56 53 49 46 43 42 40 40

GFSCGP_500_spd_012.txt.gz
Wind_Speed
1 4 2 4 5 5 6 7 6 5 4 7 7 11 12 14 17 18 18 21 25 25 24 27 29 30 32 33 33 35 39 39 41 44 47 48 52 54 54 53 53 54 57 58
3 3 3 4 5 7 7 8 8 10 8 6 9 13 15 17 19 21 23 24 25 25 27 28 29 30 30 31 32 37 41 42 47 50 50 53 55 56 56 55 53 54 56 58
6 7 6 7 8 11 9 10 10 10 14 11 12 15 17 17 18 19 22 24 26 27 27 30 31 29 32 33 36 40 43 45 51 52 53 56 54 54 54 53 54 54 54 56
8 10 11 12 12 12 15 15 14 15 13 12 16 19 19 21 21 23 25 27 27 28 29 32 30 34 32 35 40 42 44 48 53 54 56 56 54 51 52 53 54 54 57 58
12 14 17 17 15 15 16 18 18 16 14 14 16 18 20 23 25 28 30 31 32 33 33 32 35 36 38 42 44 47 48 52 52 55 54 54 55 56 56 58 59 61 62 64
16 17 19 21 20 18 18 18 17 16 16 16 18 20 22 27 31 34 35 36 35 36 35 37 40 42 44 46 47 49 50 49 52 53 55 57 58 60 62 62 63 65 67 68
19 19 21 22 22 21 19 19 17 16 17 19 21 24 29 30 34 34 36 37 39 38 39 41 43 44 46 46 48 51 52 52 52 57 59 60 63 66 67 69 71 72 72 72
18 19 20 20 20 19 18 16 17 20 21 23 27 29 33 32 35 38 40 41 41 42 44 46 47 47 47 49 51 54 53 55 58 60 62 62 64 68 72 75 74 76 80 82
13 13 14 15 15 17 17 18 20 23 26 26 28 27 33 34 37 38 39 40 42 44 46 47 46 46 49 51 53 56 58 58 62 65 64 66 65 70 75 77 80 84 85 85
13 13 12 12 15 16 19 22 25 27 31 32 30 21 26 37 40 37 37 39 40 42 42 43 44 46 50 54 56 57 60 63 65 69 73 74 77 81 78 83 86 88 89 87
16 17 16 17 20 22 23 26 28 29 31 33 35 26 28 30 33 33 33 35 37 41 42 42 45 50 54 54 58 63 64 67 68 70 72 75 77 81 85 86 88 88 88 88
19 21 22 22 23 24 24 27 30 33 35 33 34 30 31 34 32 33 36 40 42 41 40 45 50 53 58 62 64 66 66 67 68 68 68 75 80 84 88 91 91 89 89 88
21 22 23 23 24 26 27 27 30 35 37 37 37 34 31 36 38 40 42 44 44 45 48 54 58 61 64 65 66 67 67 68 70 75 79 79 83 84 86 94 94 94 90 84
23 24 26 27 27 26 26 29 34 39 40 42 34 39 33 37 39 42 43 45 49 53 60 62 62 63 66 68 69 69 70 74 78 78 78 80 84 86 91 96 96 90 82 71
28 28 31 31 31 30 27 30 34 39 39 41 39 39 40 42 45 47 45 50 56 60 62 64 64 66 66 68 70 72 73 77 78 81 81 83 90 97 97 98 88 78 66 48
34 34 33 32 35 36 30 33 37 35 35 38 42 41 43 44 45 47 50 56 58 61 64 64 64 68 69 71 71 71 74 69 72 81 87 96 100 99 93 87 74 60 46 44
41 40 39 32 35 34 28 30 36 36 36 38 42 43 45 45 49 51 53 57 60 64 67 67 68 68 71 73 74 75 77 77 77 85 91 89 88 95 80 68 57 49 46 44
43 43 43 41 36 35 23 32 38 40 40 40 45 46 49 52 54 55 59 62 65 67 69 72 74 76 74 75 78 80 80 80 91 96 89 88 94 82 66 58 52 50 46 44
46 44 44 43 45 43 24 34 40 43 42 46 47 50 54 56 59 60 63 67 70 75 76 74 79 82 80 76 77 81 89 95 96 91 90 92 75 62 55 53 52 48 46 46
46 44 41 40 42 46 35 41 44 47 50 54 54 57 61 64 66 67 69 73 77 79 81 81 80 77 79 79 81 85 88 91 91 94 86 67 57 53 54 52 49 50 51 52
38 37 34 36 39 40 39 43 47 50 55 57 61 62 67 69 73 70 70 74 79 80 82 78 74 72 78 85 82 93 92 88 88 71 57 52 53 55 52 52 54 55 55 56
38 37 33 36 39 37 40 46 49 53 58 60 62 67 71 70 68 72 74 84 84 83 79 78 79 81 86 88 87 91 91 81 67 56 51 55 54 52 55 56 58 58 57 55
34 31 36 40 42 42 48 53 56 59 61 63 67 68 66 58 68 78 84 84 82 80 79 77 82 79 83 86 85 82 73 64 54 50 53 52 53 55 58 59 58 54 51 49
34 35 41 48 45 49 54 56 60 60 65 69 69 67 68 65 76 82 83 82 80 76 76 76 77 82 82 80 76 68 59 51 48 51 50 51 55 57 58 55 51 49 47 44
38 43 48 53 54 57 59 64 64 67 67 74 73 73 70 75 76 79 79 78 77 75 75 78 82 79 77 70 65 59 50 46 48 48 49 53 55 56 52 48 46 45 43 42
42 47 53 57 59 62 64 69 71 75 77 75 73 72 75 77 77 78 78 75 73 74 79 78 76 74 66 62 57 47 44 45 46 46 49 52 53 51 47 44 42 40 42 42

GFSCGP_500_spd_015.txt.gz
Wind_Speed
2 2 2 3 3 2 4 4 5 4 6 10 9 11 12 14 16 16 16 18 19 20 21 24 28 31 32 33 35 37 40 41 41 43 47 49 50 54 52 53 53 53 51 51
1 1 1 2 4 4 6 6 7 7 6 8 10 11 11 13 15 17 18 19 22 24 27 30 32 32 34 34 35 38 39 39 44 47 49 49 52 52 52 52 52 52 54 54
2 3 5 7 8 9 8 9 9 10 11 10 11 13 14 16 18 20 21 23 25 27 30 32 33 33 35 35 38 39 40 44 47 49 51 52 52 51 51 53 55 57 57 57
6 8 9 10 11 12 13 14 13 12 14 14 15 15 16 18 17 19 22 24 28 29 30 31 32 35 35 37 39 41 43 48 49 48 49 51 52 53 54 58 59 59 60 62
11 12 13 13 14 15 17 17 17 15 15 16 16 18 18 20 21 23 26 29 30 28 31 31 34 35 37 41 43 45 47 48 47 48 51 53 55 56 60 62 63 64 64 66
14 16 17 17 16 16 18 19 19 18 16 16 18 20 21 23 26 28 28 28 29 31 33 34 36 39 41 43 45 46 46 48 50 53 55 57 59 62 65 68 69 69 71 72
19 19 19 18 18 18 18 17 19 19 18 17 19 23 25 26 29 31 32 33 33 35 37 39 40 42 43 43 44 45 48 50 53 56 59 62 65 68 70 71 74 75 76 77
14 15 15 16 17 17 16 15 16 18 19 20 22 28 27 29 29 32 35 35 37 37 39 39 41 43 45 47 48 49 53 57 60 61 64 68 72 73 75 75 75 71 76 79
11 11 12 13 13 14 14 15 17 20 21 23 23 27 28 29 33 34 35 38 38 40 39 41 43 45 47 49 52 56 61 64 65 66 70 73 75 76 77 78 78 79 82 86
12 12 13 14 15 17 19 20 22 24 25 27 24 21 28 29 34 36 34 36 34 35 38 42 45 46 50 53 57 61 64 66 68 71 74 75 77 76 76 77 80 83 82 85
14 16 18 19 20 20 21 23 25 26 28 31 32 18 29 31 32 33 32 35 36 39 43 46 46 49 52 58 63 65 68 70 72 74 76 76 77 77 78 82 82 83 86 89
17 18 19 21 21 23 24 26 28 30 31 32 35 25 30 34 33 32 34 37 41 44 47 47 49 54 60 63 65 68 71 73 75 75 75 78 80 80 82 81 81 85 90 93
18 19 21 23 24 25 26 27 29 31 35 33 37 33 31 36 35 38 40 43 45 46 48 52 57 60 62 66 70 71 74 76 77 77 79 78 79 80 85 85 87 90 95 96
20 23 25 26 28 30 30 32 34 37 39 41 34 37 31 35 38 38 41 45 47 51 56 58 60 63 66 69 70 73 75 75 78 79 79 80 82 81 80 86 94 95 96 87
28 29 30 32 32 32 31 33 37 39 41 42 38 37 39 40 41 43 44 48 52 56 59 62 66 69 70 72 74 77 80 80 79 78 78 80 83 86 90 94 91 85 75 59
35 37 38 35 37 34 28 31 35 37 38 38 41 40 42 44 47 49 51 53 55 59 63 67 69 70 71 76 79 79 78 78 78 81 80 84 88 91 97 95 71 62 54 49
39 44 46 39 37 34 30 31 35 36 36 38 41 43 44 46 49 52 54 57 62 65 70 71 71 74 78 82 82 79 78 79 78 80 87 94 95 90 84 67 56 51 52 51
43 47 47 45 41 35 24 32 36 38 35 38 40 42 45 48 51 55 58 64 68 74 73 71 71 73 80 86 82 82 84 82 81 87 87 91 82 68 61 54 52 53 51 49
45 47 47 46 45 38 19 28 32 35 34 38 41 43 47 53 58 59 64 68 72 75 73 72 75 75 90 89 87 84 85 86 88 87 88 75 63 54 49 52 51 50 52 53
47 46 42 41 42 37 29 34 35 37 39 44 47 52 57 62 65 68 72 76 79 78 77 76 75 87 91 87 84 84 83 85 88 83 68 59 48 46 50 50 51 53 56 57
43 41 35 36 36 31 34 37 39 44 49 53 55 59 64 67 71 72 75 75 73 71 75 79 86 90 86 81 79 83 85 83 77 65 58 49 47 50 50 52 54 56 57 54
36 38 34 34 32 34 38 41 45 49 53 56 58 62 66 70 76 77 77 74 68 71 78 82 81 80 76 76 79 78 78 72 62 57 47 47 48 48 51 53 56 56 54 50
30 32 34 36 36 38 43 46 49 52 56 61 66 69 73 75 75 74 75 73 73 74 76 77 76 73 72 76 75 75 70 61 58 49 46 47 46 49 51 54 56 53 50 47
30 29 36 42 39 45 48 51 53 58 63 68 66 69 75 77 75 74 74 75 74 75 76 75 72 72 75 73 73 70 59 56 49 44 45 44 46 49 51 54 54 50 47 44
32 37 40 43 44 50 51 55 58 64 67 70 71 75 77 77 76 77 75 76 78 78 77 75 74 75 72 71 68 59 55 52 43 43 42 43 46 47 50 51 49 48 46 42
41 45 47 51 54 58 60 63 67 70 75 76 75 74 74 77 76 76 78 80 79 78 75 73 73 72 70 67 59 55 53 44 40 39 39 42 44 45 48 47 45 43 40 38

GFSCGP_500_spd_018.txt.gz
Wind_Speed
9 7 7 7 7 5 3 3 4 7 9 11 12 15 12 14 15 14 14 15 15 16 20 23 26 30 33 34 36 37 38 39 41 43 45 48 50 52 52 51 52 52 52 53
5 6 7 6 4 3 4 5 7 7 8 11 11 12 12 12 13 15 15 17 19 22 25 27 30 33 35 36 37 39 39 41 44 47 48 50 53 53 51 52 53 54 55 57
6 7 7 6 6 8 8 8 9 11 11 13 14 15 14 14 15 17 18 19 22 25 27 30 33 35 36 37 40 41 41 44 47 50 51 51 51 51 53 56 57 59 61 64
8 8 8 9 10 11 12 12 12 12 14 15 14 17 15 16 18 18 20 22 25 27 30 31 33 36 37 40 42 43 45 49 50 50 50 51 52 54 58 60 62 63 65 66
10 11 11 13 14 15 16 16 16 15 15 16 15 16 16 18 19 21 23 27 29 31 32 33 35 38 41 43 44 45 46 46 48 50 52 53 56 59 62 63 64 71 73 74
13 15 16 18 18 18 18 18 18 19 18 17 17 18 21 20 22 26 30 31 33 34 34 35 38 40 42 43 43 43 45 48 50 52 53 57 62 65 66 68 69 73 76 77
15 18 18 18 19 20 19 17 18 18 18 18 18 21 22 25 27 29 32 33 35 36 37 39 39 40 41 41 43 46 49 51 54 56 60 64 68 69 71 72 74 76 78 79
13 11 11 11 13 14 14 13 14 16 18 20 20 24 25 28 29 31 33 35 37 38 38 39 40 39 43 46 49 52 53 55 59 63 67 68 70 73 75 75 76 77 78 80
6 8 8 9 10 11 12 14 15 17 19 21 23 24 25 28 30 32 33 36 36 35 37 37 40 43 47 51 52 53 56 59 63 66 67 68 70 73 75 77 77 78 81 81
7 9 11 12 13 15 16 17 19 20 22 22 22 27 25 28 33 33 34 34 35 35 40 42 44 48 50 52 55 58 60 63 65 67 69 72 74 77 77 79 80 80 79 80
11 13 14 16 17 18 19 21 22 24 25 27 27 23 29 35 35 37 34 33 33 37 40 43 46 48 52 56 59 62 64 67 69 69 72 76 78 80 80 80 80 80 79 82
12 14 17 19 21 22 23 24 27 29 31 31 32 27 30 37 38 35 34 34 38 40 44 47 50 54 57 60 62 65 68 69 70 73 78 79 80 81 79 79 81 83 84 88
13 17 20 22 23 25 27 28 29 31 33 31 35 32 36 38 36 36 35 39 42 45 49 52 55 57 60 64 67 71 71 70 75 78 84 85 84 81 80 81 81 85 90 92
17 22 23 27 29 30 29 29 30 32 34 36 32 36 31 35 35 37 40 43 46 50 53 57 60 64 68 69 73 74 75 77 79 79 87 90 86 84 84 84 85 86 88 71
21 24 27 31 32 31 28 30 32 32 33 36 32 31 35 34 36 39 41 44 49 53 57 61 64 68 72 76 77 75 74 77 78 87 94 91 88 87 86 86 85 74 65 58
26 30 33 33 35 34 29 31 31 33 35 35 34 33 33 37 38 41 46 50 54 59 62 67 72 76 79 79 77 76 75 76 86 94 93 91 88 88 84 78 69 61 54 51
30 36 39 39 41 34 30 28 28 28 31 32 33 35 37 40 43 47 53 56 60 64 68 72 78 80 80 77 74 76 81 88 90 90 88 86 86 82 73 63 57 51 51 52
34 40 46 48 46 33 30 29 26 23 23 28 31 34 36 42 47 52 57 61 65 68 72 77 78 78 78 73 76 81 86 85 87 84 83 82 78 68 60 52 49 50 51 51
37 45 49 48 43 30 26 29 26 26 23 28 33 37 43 47 51 57 60 63 68 73 76 75 76 78 77 78 79 80 82 83 81 81 78 75 65 60 51 48 49 49 51 53
41 48 47 45 42 37 31 29 30 31 34 36 40 44 48 53 61 65 68 72 75 77 77 76 76 77 78 78 79 79 78 75 76 75 72 64 61 54 48 48 48 50 52 55
46 48 43 42 40 33 34 35 38 39 43 46 50 54 58 62 67 71 77 78 80 80 78 78 79 78 79 78 78 75 73 74 73 71 64 58 57 49 48 47 50 51 54 56
47 44 40 40 36 35 36 40 43 46 48 51 54 58 62 66 71 75 76 73 74 77 77 78 78 77 78 78 76 72 73 73 70 65 58 56 50 47 46 48 50 51 55 56
40 38 37 37 30 37 41 46 46 50 53 56 58 63 67 73 77 78 76 74 75 76 78 78 79 79 78 76 74 74 72 70 65 58 57 52 46 44 45 47 48 52 55 53
37 35 38 39 36 42 46 49 51 55 56 59 63 68 73 75 74 76 76 76 78 78 80 81 80 78 76 75 75 74 70 64 59 58 52 42 41 40 44 45 47 51 52 45
35 38 43 43 43 46 49 52 54 56 60 64 69 74 76 78 78 76 76 78 79 81 82 82 80 78 76 74 71 68 65 62 60 52 39 36 34 39 42 42 45 49 47 40
35 38 44 48 51 54 57 58 59 63 68 70 73 76 77 76 75 76 77 80 81 80 80 78 75 74 72 69 68 67 64 58 46 32 32 29 32 37 39 40 44 46 41 39

GFSCGP_500_spd_021.txt.gz
Wind_Speed
9 9 9 8 7 7 9 9 9 10 11 11 12 16 16 16 19 18 18 18 19 21 23 24 26 29 31 34 36 39 40 42 44 46 47 49 52 55 55 55 54 53 53 55
7 8 9 9 9 9 9 9 10 10 10 12 13 17 15 16 18 17 18 20 21 24 24 26 28 31 34 37 40 41 44 45 47 49 50 51 54 57 57 56 56 56 57 60
10 8 8 8 9 10 11 11 11 12 12 13 15 20 20 19 19 20 21 23 23 24 26 28 31 35 38 41 42 44 46 47 49 52 54 55 57 56 56 58 59 60 62 66
8 8 9 10 11 12 15 14 14 14 13 10 10 11 24 21 21 22 23 23 24 27 30 33 36 38 41 41 44 46 49 51 51 53 54 54 55 56 58 60 61 65 68 67
9 10 11 13 14 15 17 17 17 17 17 16 15 13 31 24 23 24 25 26 28 31 34 36 38 41 42 44 47 50 51 51 51 51 53 55 56 58 61 63 66 68 68 71
13 14 15 17 19 21 21 20 19 19 18 18 19 12 17 29 22 26 29 30 33 36 38 40 41 43 44 45 47 47 46 48 51 52 54 55 58 61 65 68 70 71 72 73
13 14 17 16 15 16 17 17 17 16 16 11 16 16 29 27 28 30 33 34 36 38 39 41 43 44 44 43 43 44 48 51 54 56 58 60 64 67 69 72 73 73 74 76
13 10 10 9 9 9 9 10 11 13 15 14 19 19 29 26 30 31 33 36 38 38 39 41 41 41 41 45 47 50 53 55 58 61 63 67 69 72 74 74 74 76 76 77
6 7 8 9 10 11 12 13 14 16 17 19 21 28 29 31 32 33 34 35 36 38 38 38 38 43 43 46 49 52 55 59 61 63 66 69 73 76 75 73 76 79 81 85
5 7 10 12 13 13 16 17 18 19 22 22 13 21 23 32 35 36 34 34 37 37 37 38 40 43 46 50 53 57 60 62 66 71 74 77 77 76 77 80 83 84 88 90
5 8 10 12 12 16 17 17 20 22 23 26 27 21 31 35 35 36 38 35 37 37 39 43 45 47 51 54 58 61 65 68 72 76 78 78 77 76 77 80 84 88 93 90
5 8 11 13 15 17 18 21 23 24 27 28 28 24 34 34 39 37 34 34 33 37 41 45 49 53 56 59 62 66 70 74 79 80 80 78 78 80 81 84 90 89 90 87
7 10 13 19 20 22 23 26 27 28 28 25 32 24 35 34 36 35 37 35 40 43 45 48 51 56 60 65 69 72 76 79 80 80 80 77 77 82 87 87 88 88 86 82
11 15 18 22 26 30 34 35 35 32 30 30 25 31 26 31 36 33 35 38 40 43 48 53 57 62 66 70 74 78 81 82 80 78 78 79 80 83 84 85 85 83 78 70
15 18 21 25 30 35 37 37 36 34 33 34 26 26 27 29 29 31 36 38 43 49 53 56 62 66 70 75 78 81 82 79 78 79 80 81 82 84 84 83 82 78 67 60
19 21 24 26 34 38 38 36 33 32 30 28 27 25 25 26 32 32 38 42 47 51 57 62 67 73 77 80 84 83 80 79 79 80 81 83 83 81 81 79 75 64 60 53
24 26 30 32 38 41 40 33 32 28 30 27 26 28 31 34 39 43 48 51 55 60 65 70 75 79 80 81 85 83 81 82 82 83 84 81 78 78 77 74 65 59 55 51
28 31 35 39 44 42 40 35 30 28 27 27 32 34 37 41 45 48 53 56 62 67 72 76 80 81 80 80 79 81 82 82 83 84 82 76 76 77 73 66 59 56 52 51
31 34 38 43 46 41 35 32 30 26 23 29 32 37 41 44 48 52 56 61 67 72 77 81 81 80 77 78 80 81 82 83 81 77 75 75 76 71 64 58 57 52 50 51
34 36 39 45 47 41 36 37 29 32 32 34 38 41 46 51 55 57 61 67 72 78 81 83 84 81 82 82 82 84 84 82 79 79 75 74 70 64 57 58 53 49 49 51
36 39 40 45 44 37 35 33 33 33 37 43 46 49 53 57 61 66 71 75 79 82 84 82 83 83 81 83 83 82 81 77 77 77 73 69 65 62 58 51 46 45 48 50
38 40 42 46 43 42 39 37 38 39 42 47 50 55 59 62 67 72 76 80 82 82 81 81 81 83 82 81 80 79 77 75 74 70 68 66 61 57 52 43 42 45 47 48
37 41 45 48 41 40 42 43 44 45 48 52 57 60 62 66 71 74 77 78 79 79 79 80 82 84 83 81 80 78 76 72 70 68 67 63 55 45 37 38 39 43 43 47
36 44 47 48 38 42 42 42 46 48 53 56 58 62 67 71 74 75 77 78 78 78 81 83 84 84 83 81 77 74 73 71 69 62 54 46 36 29 31 32 39 41 42 46
40 46 47 48 39 41 44 46 50 53 58 60 63 67 70 72 74 77 78 78 79 81 83 83 83 82 79 77 73 73 71 64 54 47 38 27 24 27 26 33 38 39 41 44
41 45 46 45 45 44 49 51 54 58 60 63 66 70 71 74 76 76 76 78 80 82 83 83 82 79 76 73 72 67 58 54 46 31 21 20 25 21 28 34 37 37 40 42

GFSCGP_500_spd_024.txt.gz
Wind_Speed
12 14 4 15 5 8 15 13 8 11 9 9 11 12 22 12 17 17 19 19 21 28 27 28 26 29 29 32 34 39 40 43 45 46 50 51 53 55 56 57 57 55 57 55
8 5 6 10 9 9 17 14 12 13 9 10 14 13 20 13 18 20 19 20 26 27 26 26 29 30 32 35 38 41 44 46 46 49 52 52 54 56 57 57 57 57 60 59
7 6 6 7 8 9 12 12 12 13 11 10 13 15 24 19 18 22 24 25 27 27 28 28 30 33 36 39 41 44 46 48 48 52 55 54 54 54 55 58 60 60 60 64
4 5 7 8 9 9 15 8 14 14 15 12 11 9 28 24 26 23 25 27 29 30 30 31 34 37 39 41 43 45 49 50 51 51 51 52 53 56 58 59 61 64 67 70
7 8 10 12 12 13 17 16 17 17 17 17 16 13 23 31 34 31 25 27 30 33 35 37 38 40 41 42 44 47 50 52 50 49 51 54 55 57 60 63 65 68 70 73
10 12 13 14 15 17 19 20 20 20 19 18 11 15 22 17 33 21 29 29 33 36 38 40 41 45 44 43 43 44 46 48 51 52 53 54 57 60 63 65 69 72 76 78
10 10 11 13 13 11 12 12 12 10 10 11 15 13 28 28 28 37 39 36 37 38 37 41 43 45 47 48 43 41 43 47 50 54 59 63 64 66 70 73 76 79 80 80
7 3 6 6 8 9 9 9 8 9 10 13 15 17 30 26 28 33 37 37 36 35 39 43 44 44 43 42 43 45 47 50 55 58 62 66 70 72 76 79 82 82 78 78
5 5 6 7 9 11 11 12 13 15 16 17 14 20 28 29 29 32 35 34 39 37 39 41 41 40 40 43 45 49 52 55 59 62 64 68 72 77 81 81 80 78 77 78
3 4 6 7 7 8 12 13 15 18 21 19 10 16 24 35 38 39 39 41 35 37 38 38 37 40 43 46 48 51 55 59 64 69 73 78 82 84 81 78 79 78 77 78
2 1 3 5 7 12 16 18 18 20 24 25 23 22 33 36 37 38 44 45 38 33 37 38 39 41 43 47 52 56 62 66 71 76 80 81 83 82 78 77 77 76 78 80
3 2 5 8 11 13 16 20 23 24 24 27 28 22 31 32 35 36 39 36 31 33 35 38 41 45 49 54 60 65 70 76 79 81 84 82 80 80 78 77 78 79 79 79
2 5 10 14 15 19 27 29 32 31 25 22 28 25 28 28 31 34 38 37 37 37 40 43 46 49 54 60 64 72 76 79 82 82 82 80 80 79 77 79 78 78 77 75
7 9 12 15 19 24 29 33 34 34 33 26 21 26 23 23 35 33 33 34 38 40 44 48 52 57 62 68 73 78 81 83 84 80 80 80 82 83 81 82 81 78 76 75
11 13 15 18 22 27 32 36 36 32 30 30 21 23 21 25 25 29 32 34 40 44 48 51 56 63 69 75 79 82 85 85 85 83 83 83 86 85 80 80 78 76 75 70
15 16 18 20 23 29 35 38 36 33 30 26 27 22 22 27 28 31 36 41 44 50 53 58 64 71 77 81 84 87 89 86 87 87 86 87 87 86 79 78 75 72 67 60
19 22 24 24 27 29 37 38 37 34 33 31 26 24 27 31 33 39 42 47 53 56 60 66 71 76 79 83 85 85 87 85 85 87 89 88 89 81 74 72 69 64 60 57
22 26 28 30 32 32 37 39 39 33 31 29 31 30 35 38 41 45 48 51 55 60 65 70 75 79 82 83 86 85 84 86 88 88 88 82 83 77 72 73 66 61 56 51
27 30 33 35 37 37 37 42 34 36 28 31 28 32 36 40 42 47 53 58 62 66 70 75 78 81 82 87 89 87 87 87 86 84 80 70 60 64 68 67 66 59 47 41
31 33 35 37 41 42 44 47 44 41 36 35 33 35 38 42 46 49 53 58 63 69 73 76 80 85 87 86 86 87 87 87 84 82 74 68 65 65 65 59 54 50 39 40
34 36 38 40 42 43 46 48 47 45 40 40 39 41 44 47 51 55 60 64 70 75 78 81 84 84 83 84 86 88 88 84 78 73 70 68 65 50 46 49 43 36 37 39
38 39 40 42 43 45 49 49 50 45 40 41 42 46 49 53 57 61 65 71 74 77 80 82 82 83 84 87 90 91 86 80 74 70 67 61 52 47 43 33 26 30 32 38
42 40 43 44 43 46 51 51 51 46 44 47 49 52 54 59 62 66 71 74 76 79 81 80 82 84 86 89 91 92 85 77 73 66 57 53 47 36 25 23 25 28 35 38
42 40 44 48 44 47 51 50 50 47 47 50 52 55 59 62 66 70 73 74 78 80 80 81 83 86 89 91 88 80 76 71 61 55 52 38 27 18 22 21 24 31 35 37
40 42 43 45 46 52 54 51 49 49 50 52 55 59 62 64 69 72 74 77 78 79 82 84 86 89 89 85 78 73 65 55 52 47 32 24 17 22 18 21 26 33 35 36
38 39 43 47 51 52 52 49 49 50 52 55 59 62 63 68 71 73 74 77 79 82 82 84 87 87 83 77 68 61 51 48 41 30 22 19 23 21 18 24 30 34 34 36

GFSCGP_500_spd_027.txt.gz
Wind_Speed
20 20 18 14 5 3 17 16 16 13 3 5 7 11 18 18 14 16 18 20 23 27 25 27 29 30 27 30 33 36 40 42 45 47 49 51 52 54 55 55 53 53 55 56
18 12 10 8 6 5 14 18 16 13 6 8 9 15 18 19 18 20 17 19 23 25 26 28 29 31 32 34 38 40 41 44 47 49 50 51 53 53 53 53 56 57 58 60
10 11 7 5 5 8 12 14 14 15 8 8 11 17 20 18 17 18 17 20 21 22 23 26 31 32 34 38 40 43 44 46 48 49 50 49 48 49 51 54 56 59 62 64
8 7 7 8 5 11 11 8 12 12 12 13 15 18 24 22 20 22 25 22 26 25 25 25 31 35 39 41 42 44 46 45 45 47 47 47 48 50 53 56 59 60 63 67
5 5 5 5 7 11 11 13 14 15 15 17 17 18 23 28 31 26 28 27 26 25 29 32 35 37 38 40 43 44 45 46 47 43 43 45 49 53 56 59 63 66 69 72
8 7 10 11 11 14 16 17 17 19 20 17 15 19 30 31 30 31 22 22 30 36 39 39 39 39 39 39 39 39 40 45 47 48 50 51 53 55 59 64 68 72 75 78
8 9 10 9 9 10 10 10 10 10 9 10 12 21 24 23 29 35 34 37 42 39 39 40 43 44 43 41 38 38 39 41 44 46 51 55 61 65 70 75 79 80 82 83
8 9 6 4 4 4 7 7 8 8 10 9 14 21 23 24 29 34 36 39 38 34 37 41 44 42 41 42 42 42 43 44 46 50 55 59 66 72 76 79 80 82 82 81
2 3 2 2 6 7 7 9 11 11 12 11 16 22 26 24 31 36 33 39 40 43 39 40 42 39 38 38 41 42 45 49 54 59 65 70 75 78 81 81 82 80 78 78
2 1 2 3 4 6 9 10 12 13 14 10 13 24 30 29 30 36 43 46 48 44 40 36 36 37 39 39 43 47 51 56 62 68 72 75 78 81 83 83 81 79 79 79
4 2 1 3 4 4 10 16 19 19 21 20 13 22 28 31 36 37 41 46 43 34 32 34 33 35 38 43 46 51 56 62 68 72 76 81 83 86 85 81 80 82 82 82
6 3 2 2 5 7 11 16 19 20 22 22 22 14 23 30 34 37 34 35 39 32 32 32 35 39 44 49 54 59 63 69 73 77 80 84 86 85 83 79 79 81 81 77
5 3 3 5 7 8 15 23 27 30 28 19 23 19 24 29 27 31 31 34 28 31 34 38 41 46 49 54 59 65 71 75 79 82 85 86 85 85 82 80 82 83 80 77
6 7 9 11 13 15 19 22 28 33 33 30 22 25 21 31 30 25 24 24 29 35 38 42 47 50 55 60 65 71 75 79 83 86 87 87 90 92 91 91 91 87 82 68
8 9 12 14 17 18 21 24 27 30 33 35 30 28 32 28 28 26 28 29 33 37 42 46 50 55 59 64 70 75 79 82 85 86 90 91 91 93 96 92 83 75 71 67
12 13 14 17 19 21 23 26 29 29 32 32 32 28 34 32 25 26 30 34 38 41 45 49 54 58 64 69 73 78 83 87 89 91 93 93 93 93 85 74 65 59 62 70
16 17 19 19 22 25 27 28 31 34 35 37 35 34 31 27 28 31 34 37 41 45 49 54 59 66 71 76 81 84 87 89 91 92 92 93 90 84 74 65 52 56 64 67
20 22 23 23 26 28 31 33 33 36 39 38 37 36 36 33 34 35 38 41 46 50 55 60 66 71 76 80 82 83 86 87 87 90 92 90 86 78 69 64 59 55 49 53
23 26 27 28 30 31 34 36 34 36 39 38 38 40 41 39 39 41 45 49 53 56 61 66 69 73 76 80 84 89 89 87 89 90 91 86 79 70 64 57 50 39 45 50
27 29 29 32 35 38 41 41 42 43 41 41 41 40 36 37 39 43 46 49 53 58 63 67 71 75 80 83 86 88 87 87 90 92 88 81 72 61 52 49 42 39 36 28
30 32 33 35 38 39 40 44 44 43 45 44 44 42 40 40 43 46 49 54 58 62 67 71 75 78 83 85 84 85 87 91 93 89 78 67 57 55 49 40 26 25 23 24
34 35 36 38 40 43 45 47 44 46 47 48 47 43 42 43 46 49 54 58 61 66 69 73 78 81 82 83 84 87 90 91 87 76 64 54 51 41 30 21 18 19 19 27
38 38 40 40 41 44 48 48 46 48 50 50 49 45 44 47 50 55 59 62 66 69 72 76 79 80 82 83 85 89 89 85 73 62 52 47 37 26 19 22 18 20 26 31
40 41 42 44 45 50 52 50 50 51 52 53 49 46 48 52 56 59 63 66 68 71 74 77 79 80 81 81 85 88 83 72 62 50 44 35 25 20 24 21 20 24 29 33
38 41 40 42 44 52 49 51 51 52 54 52 48 49 53 56 59 63 66 69 71 73 75 77 78 79 80 82 84 82 74 62 50 41 34 24 21 24 25 22 22 27 31 33
36 39 40 46 47 46 48 51 52 55 54 51 50 54 56 60 63 66 69 71 73 74 75 76 78 79 79 81 80 74 63 52 41 35 26 22 24 25 24 22 25 29 33 33

GFSCGP_500_spd_030.txt.gz
Wind_Speed
28 27 26 23 12 12 8 7 6 3 4 1 12 16 13 11 5 7 12 15 20 21 22 25 26 25 28 29 32 31 40 43 46 49 49 49 51 52 52 50 48 48 49 51
24 21 18 18 12 12 12 11 9 3 7 7 11 13 16 16 18 17 18 17 17 21 23 24 25 23 26 31 34 41 44 48 51 51 51 52 53 53 52 52 52 54 56 58
20 15 14 12 9 10 16 16 12 12 9 12 16 16 16 19 20 19 15 12 17 18 19 21 23 27 29 33 37 40 44 46 48 49 50 51 50 48 49 51 53 55 58 61
14 15 12 9 7 7 7 10 14 15 13 15 19 23 22 23 23 23 15 17 19 24 27 23 23 27 32 36 38 40 43 46 48 49 49 47 47 49 51 52 55 59 63 68
10 11 10 8 9 10 9 12 13 15 18 16 20 24 28 29 28 26 20 15 16 24 26 22 32 33 36 37 40 42 44 46 46 43 41 42 45 47 49 54 58 61 67 71
14 12 9 9 11 12 14 15 17 18 19 19 23 26 30 30 27 28 24 21 23 30 28 34 39 37 39 39 42 45 46 44 42 41 41 41 45 50 56 62 67 71 74 78
12 12 11 10 10 10 8 7 7 9 9 12 14 20 28 28 30 28 25 25 30 36 34 35 34 40 39 44 43 40 39 38 38 38 42 47 53 58 65 70 74 78 81 84
11 12 9 7 5 4 4 5 6 8 9 11 15 20 23 29 29 35 36 28 33 37 35 32 41 46 44 39 34 33 32 33 36 41 47 53 59 66 71 75 79 83 86 89
9 8 7 4 2 1 1 2 2 4 6 11 17 21 25 28 31 32 31 33 31 46 43 44 43 39 36 35 33 35 38 41 46 52 57 62 68 72 77 81 85 87 88 88
10 8 6 4 5 4 2 6 9 10 10 14 18 22 24 26 30 34 37 41 43 44 42 40 32 33 32 34 37 41 45 49 55 58 63 68 73 77 82 85 86 86 86 87
9 8 7 7 4 2 2 6 10 14 15 17 20 22 23 25 30 32 34 36 38 38 32 33 35 34 35 38 43 46 50 54 59 65 69 73 78 82 85 85 83 84 87 88
10 9 8 6 2 4 4 7 11 13 17 21 20 22 27 29 32 34 33 32 29 29 32 32 33 36 39 43 47 51 56 61 66 69 73 77 82 84 85 87 88 89 92 92
12 9 7 4 5 8 11 12 16 18 20 23 25 27 28 31 32 31 30 30 26 28 31 35 38 41 44 47 51 55 61 66 70 73 77 81 84 86 88 90 95 97 96 86
12 10 9 9 9 11 14 17 19 21 22 22 23 22 25 28 30 28 26 23 26 31 34 38 41 44 48 52 56 61 65 69 73 77 80 82 87 93 97 97 98 96 90 78
13 11 12 12 12 13 16 18 21 23 25 26 26 29 26 22 24 26 26 29 33 35 37 40 44 48 51 56 60 64 68 72 75 80 86 91 94 95 95 97 96 90 76 70
16 15 15 15 16 17 19 21 23 25 26 29 31 32 32 32 31 31 32 33 34 35 39 43 47 50 54 59 63 67 71 75 82 86 89 91 91 94 97 96 90 76 66 51
19 18 19 19 21 22 23 24 26 29 30 29 33 34 35 34 35 34 34 34 36 39 43 46 49 54 57 62 67 71 76 81 83 86 89 90 91 94 93 85 74 62 52 46
22 22 22 23 25 26 28 27 29 32 31 33 36 36 37 38 39 37 36 36 39 42 45 49 54 58 61 66 72 76 78 82 84 87 87 88 90 90 84 73 63 58 50 41
25 26 26 27 28 29 30 31 33 33 34 37 38 40 39 41 42 41 40 40 43 46 48 53 58 61 65 69 72 76 81 85 85 85 86 88 91 87 73 61 56 46 34 24
26 28 29 29 31 33 33 34 33 36 36 38 40 40 40 42 44 44 43 44 46 49 54 58 62 65 69 72 75 78 81 82 83 84 87 90 86 73 58 52 38 26 18 20
29 31 31 32 34 34 37 38 38 38 41 45 45 44 44 45 46 46 45 46 49 54 58 62 65 69 73 75 77 80 82 84 85 86 89 84 72 56 48 37 23 25 24 22
32 33 32 35 36 38 40 40 39 40 44 47 47 46 47 48 49 48 46 49 54 58 62 66 69 73 75 79 80 81 81 82 82 85 83 72 56 46 36 24 27 26 24 27
34 35 36 36 38 39 42 42 43 45 51 49 48 49 51 53 53 50 50 54 59 63 68 70 73 76 79 80 79 80 80 81 81 82 74 60 46 37 26 26 28 25 25 29
35 38 39 40 39 40 41 45 46 51 52 50 50 52 53 55 52 52 55 60 65 68 72 73 76 78 79 77 78 79 80 80 80 72 62 50 40 29 26 27 28 25 27 30
34 41 41 43 43 45 46 47 51 53 52 52 53 53 55 53 53 56 61 65 68 71 74 75 77 77 76 76 78 78 78 79 72 63 53 42 35 26 26 28 28 25 27 30
34 36 41 43 43 44 45 49 52 53 52 54 55 56 56 54 57 60 64 68 71 74 74 76 76 75 75 77 78 78 77 73 62 56 46 38 31 26 26 28 28 26 27 30

GFSCGP_500_spd_036.txt.gz
Wind_Speed
19 19 17 13 12 10 15 18 16 17 15 14 12 11 9 8 7 7 7 10 12 12 12 13 15 20 21 20 19 18 21 36 37 39 45 46 46 53 53 53 52 51 50 46
16 19 18 18 19 18 20 23 20 14 10 10 7 9 5 7 7 8 9 11 13 14 15 17 16 20 21 19 20 28 34 39 45 47 50 52 53 53 55 54 52 50 46 45
23 26 28 28 24 23 22 23 22 18 13 11 10 10 11 12 12 12 15 15 16 17 20 21 21 24 28 28 29 33 36 39 45 49 50 53 55 56 54 51 48 46 49 55
24 28 28 23 17 11 17 18 18 13 12 14 15 19 16 15 18 19 20 21 20 23 26 27 25 29 31 29 33 37 40 44 48 50 53 55 54 50 49 47 49 53 56 58
21 20 20 19 17 14 13 13 12 13 14 16 18 20 18 21 22 24 25 26 26 26 29 27 30 33 28 33 38 42 43 46 45 50 52 49 46 46 47 50 53 55 58 62
18 17 15 15 15 14 14 14 14 15 17 20 21 24 21 20 21 23 24 25 27 27 28 27 30 31 30 39 46 47 37 49 47 46 48 47 44 45 48 51 55 59 64 67
15 17 14 16 15 15 14 15 16 17 17 16 16 17 15 15 17 18 21 22 25 27 29 29 30 31 34 40 40 51 45 48 45 45 44 44 46 49 52 56 60 64 67 71
16 16 16 16 15 15 15 14 12 11 11 11 11 9 10 11 14 15 18 20 21 23 26 27 28 34 39 47 49 49 48 46 43 41 44 47 50 52 56 60 64 68 74 79
16 17 15 14 13 12 11 9 7 6 6 6 7 7 7 8 8 8 10 12 14 16 19 25 32 37 40 43 45 47 48 42 41 44 46 49 53 57 61 64 69 75 80 83
15 16 15 15 13 12 10 8 5 4 3 3 7 10 10 11 14 16 17 18 19 21 23 27 32 36 39 42 44 45 40 42 45 46 50 54 58 62 67 71 75 80 83 87
16 14 14 15 13 12 11 8 6 5 6 10 12 11 11 13 15 16 18 21 23 24 26 29 32 35 38 40 41 40 42 46 48 52 56 59 62 67 72 76 81 84 88 93
17 17 17 16 15 14 12 10 8 10 13 14 15 13 15 16 18 20 22 25 26 27 29 31 34 36 39 42 43 45 47 50 53 56 59 62 67 73 77 81 86 89 92 95
18 19 18 17 16 14 12 11 12 15 16 17 18 19 21 21 22 24 26 29 30 32 36 37 38 40 41 44 47 49 51 53 56 59 62 67 72 76 80 84 89 92 92 93
21 19 18 18 18 16 14 14 15 17 19 19 22 22 24 23 24 25 28 32 33 35 38 39 40 41 44 46 48 50 53 55 58 61 65 70 74 79 83 88 91 92 92 92
20 20 21 20 19 18 18 18 18 20 22 24 25 26 30 28 28 29 32 35 36 38 39 40 42 44 46 49 51 52 54 56 60 64 69 74 78 83 86 89 91 90 90 93
21 22 23 23 22 23 22 20 22 24 26 27 30 28 32 32 33 33 35 38 40 41 42 44 46 47 49 51 52 53 55 59 62 68 73 77 82 85 87 90 89 89 92 91
22 23 26 26 26 28 25 22 28 29 30 32 33 34 35 35 36 36 38 41 43 44 45 47 48 49 52 52 53 54 57 61 67 71 76 80 82 85 88 88 87 90 89 85
23 25 27 28 30 34 26 28 32 35 35 35 37 38 39 39 39 40 41 44 45 47 50 50 51 52 52 53 54 57 60 66 71 75 78 81 83 86 87 85 89 89 84 70
23 26 30 32 32 35 33 33 37 38 38 38 41 42 41 41 41 41 45 46 48 50 51 52 52 53 54 54 56 60 65 70 74 78 81 84 85 86 85 88 87 82 70 57
25 27 29 30 34 35 33 35 38 42 41 41 43 42 44 44 43 45 47 48 49 51 53 52 53 54 56 58 60 64 68 73 77 80 83 85 84 85 87 88 81 70 59 48
28 30 31 32 36 37 35 37 40 42 43 45 44 45 46 46 47 47 48 50 52 53 53 55 56 58 59 61 65 68 73 76 78 82 83 83 84 87 88 81 70 59 50 42
28 32 31 34 37 39 38 39 41 44 45 46 47 48 48 49 49 49 50 52 54 54 55 57 59 59 61 65 69 73 76 78 80 81 82 84 86 86 81 70 60 51 44 37
31 33 37 38 38 39 42 44 45 45 47 48 49 49 49 49 50 53 54 54 55 56 58 59 59 61 65 70 73 75 77 79 80 80 82 84 85 78 70 61 53 46 40 33
36 38 39 40 38 42 46 47 46 48 49 49 49 49 49 51 53 54 55 56 56 57 58 59 62 66 70 72 75 77 79 80 80 81 83 82 74 68 64 56 48 42 36 31
40 37 40 44 42 46 45 45 46 47 48 48 48 49 51 53 54 55 55 55 54 57 59 62 65 69 72 74 77 79 80 78 79 81 80 71 66 65 58 51 44 38 32 28
33 36 43 45 43 43 42 43 44 45 46 48 50 51 53 53 54 56 56 57 59 61 64 66 70 72 73 76 79 81 78 78 79 78 70 64 64 61 53 46 39 34 29 27

GFSCGP_500_spd_039.txt.gz
Wind_Speed
21 21 19 14 10 7 13 16 13 16 14 12 10 10 11 13 12 10 7 8 8 10 13 15 16 17 19 19 20 18 25 32 32 42 46 47 47 49 50 51 53 49 46 43
18 17 16 17 9 12 14 19 15 12 8 9 12 11 10 8 7 7 6 6 9 11 14 15 16 17 20 24 24 25 30 34 38 45 50 51 52 51 51 52 49 46 42 42
16 11 11 12 14 15 15 19 18 15 13 13 13 10 9 8 7 8 9 11 14 16 18 20 21 22 26 29 32 35 36 37 42 47 48 51 53 56 56 52 52 49 48 49
19 14 17 18 18 19 15 17 19 20 20 16 15 14 10 8 9 10 13 16 19 20 21 22 22 25 28 30 33 33 35 38 43 48 47 46 55 54 53 50 49 48 51 53
23 23 23 23 22 18 12 16 16 17 19 19 14 15 10 13 14 17 17 18 19 21 21 22 24 27 26 26 31 35 36 41 48 44 42 52 51 47 48 51 51 53 55 57
25 20 19 20 19 17 14 13 14 14 15 16 14 16 9 12 13 13 14 16 17 18 19 22 25 27 28 27 34 32 43 35 40 51 51 50 49 48 49 50 53 56 57 61
19 18 16 17 17 16 16 15 16 17 17 14 11 11 8 9 10 10 11 14 15 17 19 22 24 25 26 33 35 36 42 50 53 52 49 48 48 48 50 53 55 58 61 63
16 18 17 15 14 17 16 17 17 15 10 7 5 4 5 6 6 6 7 9 11 14 17 19 22 25 28 32 36 39 42 45 46 48 50 50 49 52 54 56 59 61 63 68
19 18 16 16 16 17 17 16 11 9 5 2 1 0 1 1 4 5 7 9 10 12 15 18 21 23 26 30 33 37 41 43 44 48 49 52 53 54 57 58 60 63 68 72
17 17 17 17 18 17 15 12 9 7 4 3 2 4 5 6 7 7 9 11 13 15 17 20 23 26 29 32 36 39 42 45 47 49 51 52 55 57 59 61 64 69 74 78
17 18 17 18 17 15 13 11 10 8 6 6 6 5 7 9 10 12 13 15 17 19 21 23 26 28 30 33 37 39 41 44 47 51 53 55 57 59 61 64 69 75 79 84
17 17 15 15 16 16 15 14 12 12 11 11 12 10 13 15 16 18 18 19 21 24 26 28 31 33 35 39 41 43 45 47 50 53 56 57 58 60 64 68 74 79 84 89
17 16 16 16 16 16 16 16 16 16 15 13 15 18 18 20 21 22 23 24 27 29 31 34 38 40 42 43 45 46 47 49 52 54 57 58 59 63 67 73 78 83 87 89
17 17 17 17 18 20 19 19 17 17 17 18 16 20 24 25 26 27 29 30 32 34 35 37 40 43 45 47 48 49 49 50 54 57 58 59 63 67 72 76 81 85 87 88
19 18 19 20 21 22 20 19 19 19 21 23 22 24 29 31 31 32 33 35 36 37 38 40 43 46 48 49 50 51 52 54 56 58 59 63 66 71 75 80 84 84 87 88
18 19 22 22 23 24 23 22 21 23 26 28 30 27 35 35 36 37 38 39 40 41 43 45 47 48 49 50 52 53 55 56 57 59 62 66 70 75 79 82 83 85 87 89
17 20 22 24 26 28 27 23 27 29 30 33 34 35 38 39 40 40 41 42 44 44 45 48 50 51 51 52 53 55 56 57 59 61 64 69 74 78 79 81 84 86 88 90
17 21 24 25 28 31 25 27 31 35 36 38 39 41 43 43 43 42 43 45 46 47 49 50 52 52 53 53 55 56 58 59 61 64 68 72 76 78 80 84 85 87 89 84
17 20 23 27 28 29 28 30 33 37 38 41 42 45 46 46 46 44 47 47 49 50 51 51 52 53 54 55 56 58 59 60 63 67 71 74 77 80 83 83 85 88 82 73
20 22 24 26 28 29 27 29 33 36 37 39 42 44 46 47 47 47 48 50 50 51 51 52 53 54 56 58 58 58 60 62 66 70 73 75 80 83 82 84 86 80 72 69
23 26 27 27 30 30 31 32 35 38 42 44 45 45 45 46 48 49 50 50 50 51 52 53 54 56 57 57 57 62 63 66 70 72 75 80 84 83 83 85 81 71 68 64
21 24 25 27 30 35 36 37 40 42 44 45 45 45 46 48 50 51 51 50 51 52 54 55 56 57 57 59 60 64 68 70 74 76 80 82 84 83 84 81 71 66 66 57
25 27 29 29 31 36 40 42 44 44 45 46 47 47 48 49 50 50 51 52 53 55 56 56 57 59 62 63 65 70 73 75 78 81 82 83 85 85 80 72 64 64 60 49
31 32 34 36 35 40 44 44 45 45 45 46 47 47 48 49 49 51 53 55 56 56 58 57 60 64 65 64 68 72 76 78 81 82 84 85 84 78 72 63 61 60 51 41
34 36 39 41 41 45 42 42 43 43 44 45 45 47 48 50 51 53 54 54 55 56 56 58 64 66 67 68 72 74 80 83 82 83 84 81 77 72 64 59 59 53 43 36
37 40 43 43 42 42 39 39 40 41 43 45 47 49 50 51 51 51 52 55 56 57 59 61 64 65 69 72 72 80 85 84 83 81 79 77 72 64 59 57 53 45 38 34

GFSCGP_500_spd_042.txt.gz
Wind_Speed
21 20 15 15 11 10 13 12 10 12 10 8 9 9 8 8 7 8 7 8 10 12 14 14 17 19 18 19 21 23 25 29 34 35 36 40 44 46 47 48 49 50 49 46
15 17 17 18 12 9 7 16 14 13 7 4 7 10 10 9 8 8 11 12 13 13 14 14 15 15 17 20 24 27 30 33 36 38 40 42 45 50 50 48 53 54 52 49
19 18 18 16 15 9 11 16 16 12 8 7 7 7 9 9 10 12 11 13 14 13 16 17 18 19 20 23 28 30 32 34 36 36 40 45 49 52 51 54 54 52 51 51
19 13 12 11 11 13 11 11 15 13 11 10 9 8 14 14 13 13 14 15 17 18 19 19 19 19 22 25 28 30 30 32 35 37 43 48 48 50 57 57 52 50 49 51
15 15 10 11 14 14 14 11 13 13 14 15 19 20 21 15 16 17 18 19 20 19 18 18 18 20 25 28 29 32 34 34 36 41 45 47 53 52 50 51 53 53 53 55
22 17 17 17 18 17 15 11 11 15 15 17 19 18 14 12 17 18 17 17 17 16 15 17 20 23 22 22 22 22 27 31 35 39 43 46 49 51 52 53 53 55 57 59
24 23 20 16 15 16 16 16 14 15 17 16 15 15 10 12 13 14 14 14 13 13 14 15 15 14 16 19 22 25 28 31 34 38 42 46 49 52 54 54 57 58 60 62
19 19 17 15 17 18 18 15 16 17 17 17 13 8 11 11 9 7 6 4 4 5 8 11 14 17 20 23 26 30 32 34 37 40 43 46 49 52 54 55 57 59 60 63
17 19 19 20 19 18 16 17 17 18 13 11 8 7 5 5 6 6 5 4 5 8 11 14 17 20 23 26 30 33 36 39 41 44 45 47 49 52 55 57 60 61 63 65
19 20 20 20 21 20 19 17 15 12 11 8 8 8 9 8 8 7 8 10 12 14 16 18 21 24 27 30 34 36 38 41 43 46 47 49 51 53 57 60 61 62 65 68
20 20 20 21 21 20 19 15 13 13 11 10 8 9 10 9 10 12 14 16 18 19 21 23 25 28 30 33 36 39 41 43 46 48 50 52 55 57 60 61 62 63 67 71
21 21 21 21 20 21 19 16 16 15 14 13 12 12 14 14 15 16 18 20 23 25 27 29 31 33 35 37 39 42 44 47 49 51 53 55 57 58 60 61 63 66 70 75
21 21 19 19 17 15 15 17 18 17 17 15 17 15 19 18 19 21 23 26 28 30 32 34 37 39 41 43 45 46 48 49 50 53 55 56 58 60 61 62 66 70 75 80
20 19 17 16 17 17 17 20 21 21 19 20 18 21 22 25 25 26 29 31 33 35 37 39 41 43 46 47 49 50 51 52 53 55 56 58 60 62 62 65 69 74 78 81
19 18 18 17 18 19 19 21 22 22 22 23 22 23 26 33 32 32 34 37 38 41 42 44 44 47 49 50 52 53 53 54 55 57 58 60 62 63 64 69 73 78 80 82
18 18 20 20 19 20 22 23 24 24 25 26 29 27 32 37 38 39 40 42 44 45 46 46 48 50 52 53 53 53 55 56 58 59 60 63 62 64 68 72 77 79 82 85
15 16 19 19 21 24 23 21 26 28 29 32 35 35 38 41 44 45 46 47 47 47 48 49 51 52 54 54 53 55 57 58 60 61 62 61 66 68 72 74 77 80 84 86
13 15 18 18 23 26 21 24 28 32 33 36 39 41 43 45 47 48 48 48 48 48 49 51 53 54 54 53 54 56 57 59 61 61 62 64 70 74 75 77 80 83 86 88
14 15 18 20 22 25 25 25 29 34 34 37 39 42 43 45 46 47 48 48 49 49 51 53 53 53 52 53 54 56 58 59 60 61 62 67 74 77 77 80 83 86 87 89
16 18 19 19 22 24 24 26 29 32 34 35 38 40 42 44 46 48 48 49 50 50 52 52 51 51 53 55 56 58 58 59 61 62 66 74 81 81 81 83 85 87 90 86
19 21 21 23 25 24 26 27 28 31 35 38 39 41 43 45 46 48 49 49 50 50 49 49 50 53 54 55 58 57 58 63 65 67 69 75 79 80 83 85 88 88 85 77
16 17 18 21 24 28 29 32 34 36 38 40 43 45 45 45 46 46 48 48 49 49 49 50 51 52 54 55 57 58 62 67 69 70 75 78 79 83 86 88 87 86 77 66
20 22 24 26 28 33 36 38 39 41 42 43 43 44 44 45 45 46 46 46 48 50 52 53 53 55 56 57 58 59 66 70 70 72 77 78 83 85 89 86 83 76 67 59
27 28 30 32 34 38 39 41 42 43 43 42 42 43 44 45 45 47 48 50 51 51 52 54 54 56 56 60 63 67 69 73 75 76 77 82 87 85 82 80 77 68 58 54
32 33 36 36 38 40 41 42 43 43 42 42 42 43 44 46 48 50 50 51 52 53 53 53 57 58 59 63 67 72 76 79 79 76 78 84 87 82 79 74 68 59 53 49
35 37 39 39 40 41 41 41 40 40 40 41 43 45 47 48 49 50 51 51 51 52 53 56 58 60 63 64 72 77 81 78 76 77 78 82 80 78 72 66 58 51 49 45

GFSCGP_500_spd_045.txt.gz
Wind_Speed
20 24 15 14 13 1 3 8 9 9 8 8 10 11 9 6 4 6 8 9 11 11 11 13 13 15 17 18 20 23 26 28 30 32 35 37 38 37 39 43 45 43 48 53
14 14 9 13 10 4 6 7 14 9 6 6 10 11 9 7 7 8 11 12 14 13 14 14 14 15 16 19 23 26 28 31 33 34 36 38 40 42 45 47 48 53 52 49
16 15 17 18 11 7 10 8 16 7 7 5 8 11 5 9 11 11 13 14 16 16 15 16 18 19 21 22 24 26 28 30 30 32 35 37 38 40 44 48 53 52 52 52
8 18 16 20 8 6 7 6 11 12 8 8 6 9 23 7 16 15 16 18 19 20 20 22 22 22 23 24 26 27 27 26 26 28 30 32 35 39 41 44 47 50 52 54
4 12 12 7 11 6 13 4 8 7 8 14 7 13 21 15 23 22 22 23 24 24 25 25 24 22 23 23 20 20 20 21 24 28 30 32 36 39 42 45 49 51 55 56
21 16 15 14 13 11 10 11 7 10 9 14 10 13 12 20 21 23 25 28 28 26 25 23 22 22 19 15 16 19 21 24 27 30 33 36 40 44 46 49 52 54 56 58
16 13 18 18 15 12 13 12 9 9 11 11 18 18 15 27 26 27 20 22 21 20 20 19 16 14 14 16 19 22 25 28 30 33 36 40 43 47 49 52 55 57 58 59
15 16 20 16 12 8 10 12 12 13 10 8 20 14 16 17 16 16 12 11 11 11 11 11 12 14 17 20 23 26 29 32 34 37 40 43 46 49 51 53 55 57 58 60
12 19 19 13 14 14 16 16 18 17 17 18 14 12 13 11 9 9 9 10 9 11 12 15 17 20 22 25 28 31 34 35 38 41 44 46 49 51 53 55 56 58 60 62
17 17 21 16 18 19 20 19 17 18 18 12 5 11 13 12 13 14 13 13 15 17 19 22 24 27 29 32 34 37 40 41 43 46 48 49 51 54 56 57 58 60 62 64
17 17 19 19 19 17 20 20 19 20 17 14 14 8 13 14 15 15 17 18 19 21 24 27 30 32 36 39 41 43 45 46 48 50 52 53 55 57 58 59 61 62 64 66
20 20 23 18 23 21 23 21 20 20 18 17 18 16 15 18 19 20 20 22 24 26 28 31 34 36 39 42 45 46 47 50 53 55 56 58 58 59 60 61 61 64 65 67
19 22 23 25 22 21 20 19 19 21 21 19 20 16 20 22 23 23 23 25 28 30 33 35 39 41 44 46 47 48 50 53 54 55 55 58 60 60 61 62 63 65 66 69
23 24 24 24 17 19 17 19 20 23 24 19 19 21 27 28 28 28 27 30 33 35 39 41 44 46 47 49 50 51 53 54 54 56 57 58 59 61 61 63 64 66 70 74
24 24 24 23 23 21 20 20 21 23 21 25 18 25 23 32 37 34 34 36 40 41 45 47 49 50 50 52 53 54 54 55 54 55 56 58 60 62 62 63 65 69 75 79
22 24 23 23 22 22 22 21 20 22 23 25 25 31 31 35 39 39 42 44 46 48 49 50 51 52 53 53 54 55 54 54 54 56 58 60 61 62 60 64 66 72 77 81
21 22 23 24 22 24 21 18 21 24 25 29 32 32 39 39 41 43 46 47 48 49 50 52 52 52 52 54 55 54 53 54 55 58 58 60 60 61 66 67 69 72 77 84
19 20 21 20 21 23 18 21 23 26 28 32 35 36 41 42 44 45 47 48 49 51 51 51 51 51 53 54 54 53 53 54 56 58 60 58 61 66 72 72 72 75 80 82
19 18 19 19 20 21 20 23 25 28 29 36 35 38 40 41 43 46 48 48 51 51 51 51 51 52 53 53 52 53 55 56 57 56 55 62 67 72 76 78 76 77 80 80
18 18 19 18 20 22 21 23 26 29 32 33 33 37 39 41 44 46 48 50 50 50 50 51 51 51 52 52 54 55 55 55 55 57 59 63 66 72 78 82 80 79 78 81
19 20 20 20 22 23 24 25 25 26 30 31 34 38 41 44 46 48 49 49 49 49 49 49 49 51 52 53 53 53 56 58 60 66 68 72 73 76 77 79 80 79 82 80
17 18 17 19 21 23 22 25 27 30 33 36 39 42 45 47 48 48 48 47 47 47 48 50 52 53 53 53 54 55 57 57 62 72 75 79 77 77 78 78 78 81 79 75
17 17 19 20 25 26 29 31 33 36 38 41 43 45 47 47 48 46 47 47 48 50 51 51 52 52 53 54 56 58 59 62 69 77 82 78 76 75 76 80 82 78 71 70
23 23 25 26 30 32 35 37 38 41 43 44 45 45 46 46 48 48 48 49 51 52 53 53 53 53 55 56 60 61 62 63 73 82 82 79 80 81 81 82 75 70 69 68
27 28 31 32 35 37 40 40 43 44 45 45 45 43 44 45 47 49 50 51 53 53 53 53 54 56 56 58 63 64 64 67 72 78 82 82 83 83 79 75 75 70 64 58
32 34 36 38 38 40 44 43 44 45 44 43 43 44 45 47 48 50 51 52 52 53 54 56 57 59 60 61 64 67 72 75 77 79 83 84 81 78 77 76 70 64 56 53

GFSCGP_500_spd_048.txt.gz
Wind_Speed
23 13 12 10 13 5 3 5 3 6 4 5 9 14 7 8 6 5 5 5 5 7 7 7 9 12 12 14 16 19 21 23 25 28 28 29 29 30 32 33 33 34 36 38
14 16 11 11 6 2 3 9 7 10 8 5 9 12 3 4 5 8 8 8 9 9 9 10 12 15 17 15 16 20 23 26 26 27 25 25 25 27 30 33 36 39 42 43
25 11 15 9 3 4 3 12 24 22 12 6 11 12 10 5 7 7 12 14 13 15 12 14 16 18 20 22 21 23 24 24 23 21 21 24 27 30 32 35 39 42 45 46
11 13 20 15 12 8 13 16 3 11 4 7 15 19 29 22 6 7 14 20 22 20 20 19 23 21 24 25 25 25 22 21 20 21 24 28 31 34 37 39 40 43 46 48
4 7 15 7 12 10 14 15 8 7 11 20 18 19 9 20 17 14 13 20 26 28 28 25 28 25 26 24 23 18 18 19 22 25 28 33 35 38 41 45 47 50 51 51
21 13 9 22 14 11 14 8 2 3 7 14 14 6 17 19 16 19 7 15 24 30 30 30 29 22 19 19 16 17 19 20 24 28 32 35 38 41 44 46 49 51 53 56
15 14 16 16 16 14 15 11 8 18 12 6 6 12 13 21 17 30 24 18 23 23 22 21 18 15 12 14 17 21 24 26 29 33 37 39 42 45 48 50 52 54 56 58
16 8 7 13 15 16 13 8 16 9 6 9 13 6 15 20 17 20 22 17 14 14 13 11 11 12 16 19 23 26 30 33 34 39 41 44 47 50 52 53 54 55 57 59
23 23 23 14 14 16 3 10 16 13 13 11 12 13 15 15 16 14 11 13 13 12 13 15 18 21 23 26 29 33 38 39 41 44 47 49 52 54 57 59 59 58 60 61
24 28 16 10 11 13 13 14 11 14 15 12 2 2 23 15 14 15 16 15 15 16 19 22 24 26 29 30 34 36 42 45 44 46 49 52 54 56 57 60 58 60 62 62
30 12 14 8 14 14 14 16 17 16 15 13 11 9 18 20 17 16 18 18 19 22 24 26 29 30 32 36 39 39 44 48 50 50 51 54 56 56 56 56 56 61 62 62
20 18 24 13 19 14 16 17 19 19 17 22 18 22 18 18 20 20 22 23 25 26 27 29 33 36 37 39 45 47 48 51 53 53 53 56 57 57 57 52 62 64 62 63
24 20 19 16 16 12 16 19 22 23 25 21 19 18 23 24 25 26 25 27 28 30 32 35 37 41 44 47 48 51 50 51 52 52 54 56 57 56 55 56 59 62 63 64
21 18 20 20 16 19 20 19 22 23 24 18 22 19 20 25 32 32 27 27 33 35 36 41 45 47 49 51 51 52 53 51 52 53 55 57 55 57 58 59 62 63 64 66
21 20 21 23 23 25 21 22 19 22 21 23 18 23 22 18 32 39 37 35 36 38 44 45 49 50 52 52 52 52 53 53 54 54 56 55 57 57 56 63 63 62 65 71
24 24 27 25 24 27 23 24 22 22 21 23 23 26 25 33 39 37 41 41 45 45 48 49 50 51 53 54 54 53 54 55 56 55 55 56 59 59 62 62 60 64 70 77
23 24 25 24 26 27 25 22 23 22 23 24 26 27 32 36 41 39 38 43 45 46 47 51 52 54 56 57 58 56 56 56 55 54 56 58 58 61 61 63 66 70 68 75
21 22 23 23 26 28 22 23 23 23 24 27 30 31 32 37 38 39 43 43 45 48 50 52 55 56 57 57 57 56 54 55 55 56 57 58 59 60 63 73 79 78 82 84
22 23 22 23 24 22 22 22 21 23 25 31 29 30 34 35 37 41 43 44 47 50 53 55 56 54 54 54 53 52 55 57 57 58 58 58 60 59 62 75 85 87 89 78
21 21 22 21 22 23 22 20 21 23 27 28 28 31 33 35 37 40 44 47 51 53 54 53 50 50 51 52 52 54 56 57 58 58 58 62 65 62 73 80 87 90 76 78
21 21 21 21 22 21 24 18 23 25 27 27 28 31 34 38 41 44 48 50 51 52 50 49 49 50 52 53 54 55 56 57 57 58 57 65 66 67 71 76 85 87 87 89
21 22 21 23 22 23 20 22 21 23 26 29 32 36 39 41 45 47 49 51 51 50 49 50 51 52 53 55 55 54 55 56 56 60 67 71 72 78 79 78 80 83 83 79
17 17 17 18 20 20 22 23 24 28 32 35 37 41 43 46 49 52 49 49 50 51 51 52 53 54 55 54 55 57 58 60 61 62 68 76 82 77 76 82 83 82 78 75
19 18 20 21 25 27 27 29 31 35 38 40 42 44 47 49 50 50 51 51 51 50 51 53 54 54 55 57 58 61 63 62 62 66 70 73 74 78 81 82 74 74 74 73
25 22 26 25 30 33 35 34 35 40 42 45 47 47 48 48 48 49 50 50 50 52 53 53 54 56 58 61 63 64 65 67 67 68 71 74 77 79 74 72 71 73 74 71
28 29 30 32 33 37 40 40 41 43 46 48 49 47 47 47 48 49 50 52 53 52 52 54 57 59 62 64 67 69 69 68 68 69 71 73 71 70 70 69 69 74 71 64

GFSCGP_500_spd_051.txt.gz
Wind_Speed
10 13 14 13 8 8 8 15 10 10 6 6 6 7 6 2 3 1 3 1 1 3 2 3 5 2 4 9 11 12 16 17 20 18 18 20 19 19 21 25 26 29 31 33
13 20 8 14 14 9 7 3 12 10 8 3 5 6 2 7 6 3 2 4 6 9 9 10 12 10 8 9 16 16 20 22 18 17 14 15 17 21 24 27 29 33 36 38
10 14 4 11 15 5 2 2 10 14 11 8 13 16 18 3 9 7 4 4 5 7 9 14 16 19 17 17 19 18 20 19 14 14 15 19 21 24 27 30 32 36 39 42
13 8 25 21 14 4 9 1 12 18 8 8 14 14 18 17 13 11 13 11 8 11 11 14 18 23 23 23 19 20 15 12 13 16 19 23 25 28 31 35 37 41 44 46
14 12 17 13 13 2 8 6 3 9 8 11 12 16 20 29 21 16 14 11 14 14 13 13 16 21 24 23 17 12 13 14 18 20 24 28 31 34 37 40 43 45 49 51
5 16 14 10 11 7 6 3 13 11 13 18 7 17 10 18 12 20 3 18 19 19 19 16 13 13 15 19 17 15 17 19 24 27 30 34 37 42 45 48 50 53 55 56
5 16 3 8 2 6 10 10 18 15 12 10 11 17 10 15 15 10 10 12 17 18 17 16 12 8 8 13 15 18 21 23 28 33 35 39 43 46 49 52 54 55 56 57
12 9 10 13 12 11 14 13 20 17 6 15 9 11 12 11 14 12 12 9 8 10 12 11 10 9 12 16 21 25 27 28 31 36 39 42 46 49 52 55 55 57 57 58
17 18 15 22 18 15 14 18 14 8 9 11 8 14 14 12 15 13 10 11 12 13 13 14 15 16 19 21 25 29 32 33 36 38 40 44 47 49 52 52 54 56 56 57
22 25 21 19 15 10 7 13 8 11 12 9 10 13 13 11 15 14 13 14 15 16 17 19 20 22 24 26 29 33 36 39 42 43 43 47 49 51 52 53 55 56 58 57
22 26 23 20 28 16 11 13 14 16 16 13 11 15 15 13 16 19 19 16 17 19 21 24 26 27 28 30 31 35 40 44 47 48 47 49 49 50 53 56 58 60 54 60
25 22 23 9 11 10 12 14 17 18 15 20 15 15 22 16 20 22 22 23 20 22 24 27 30 33 34 36 39 40 41 44 44 45 45 47 48 51 56 59 60 60 61 62
19 22 22 19 11 13 15 17 18 20 24 20 20 14 19 23 27 29 31 28 27 27 29 30 34 37 40 43 43 42 46 49 46 46 52 56 55 57 58 59 59 59 62 63
20 23 20 18 18 19 21 19 18 21 27 23 21 16 17 23 28 32 33 31 25 27 34 37 39 41 44 36 36 41 44 45 51 53 56 55 55 55 55 57 58 60 61 59
24 23 22 21 22 23 26 23 20 22 19 21 14 18 16 24 29 33 35 33 33 37 40 43 44 43 31 36 39 44 49 53 54 56 55 53 54 55 56 58 60 61 60 62
23 23 23 24 24 25 26 24 20 25 22 21 20 19 18 27 32 35 37 37 40 43 45 46 48 42 38 33 53 51 54 55 55 55 54 55 56 57 59 60 61 61 62 64
24 24 27 27 27 28 28 20 25 23 22 23 25 26 26 30 34 35 35 35 38 42 44 46 47 48 50 51 53 54 54 53 53 53 54 55 56 57 59 59 61 66 70 72
25 26 25 24 25 28 23 24 23 22 26 27 28 27 27 28 31 35 38 39 40 42 43 44 46 49 51 52 54 53 53 54 55 56 57 57 57 57 58 59 62 69 75 79
23 23 23 25 25 25 23 25 19 21 26 27 26 27 29 30 33 35 37 38 40 42 45 48 50 52 52 51 50 52 54 55 56 56 56 56 58 61 63 64 69 74 81 83
23 22 25 24 25 24 22 21 19 22 27 24 25 27 29 30 32 34 36 39 42 45 47 49 49 49 49 51 52 52 53 54 55 56 56 56 62 62 65 67 69 74 77 76
24 26 25 24 25 23 23 18 21 23 25 24 26 26 27 30 33 36 40 43 45 47 47 47 47 48 49 50 51 53 55 55 56 56 59 59 61 63 67 71 73 74 76 80
23 25 25 25 23 23 22 22 21 21 21 24 26 28 31 35 38 41 43 45 46 47 49 50 50 50 51 52 54 55 55 56 58 60 61 64 69 70 71 72 74 77 77 72
24 22 22 23 23 23 20 17 15 22 25 27 29 32 36 39 42 44 46 46 46 48 48 50 51 52 54 55 54 55 57 60 63 64 65 70 72 74 73 73 74 72 69 67
22 20 20 20 20 20 19 21 23 27 30 32 34 38 40 43 46 47 49 50 50 49 51 52 53 53 53 54 56 59 62 64 64 63 68 72 74 73 71 70 66 67 66 67
24 23 22 23 24 25 26 28 29 32 35 37 40 42 44 45 47 48 49 49 50 51 52 53 53 54 56 58 61 63 62 61 63 66 69 71 71 69 67 66 65 65 67 70
28 26 26 26 28 31 32 34 36 39 41 42 43 45 46 48 48 48 49 50 51 52 52 53 56 58 61 63 63 61 61 63 66 69 70 69 67 67 67 66 66 67 69 71

GFSCGP_500_spd_054.txt.gz
Wind_Speed
2 2 7 10 11 14 15 17 7 9 10 10 11 10 7 9 9 6 6 3 6 5 7 6 5 2 4 4 4 7 9 10 13 14 13 14 15 12 15 17 19 23 26 28
5 10 13 7 10 13 20 15 11 10 6 5 3 4 3 6 5 1 4 1 1 2 4 5 6 4 4 8 10 11 14 14 14 14 12 12 12 16 19 22 25 28 31 34
3 8 1 10 14 14 5 2 7 8 4 2 2 9 8 6 5 4 4 6 5 5 4 3 3 2 3 7 11 14 14 14 13 11 12 15 16 20 24 27 30 33 37 40
5 0 7 14 12 5 6 4 6 12 11 5 13 9 8 8 10 11 5 3 3 4 9 6 6 8 8 8 11 12 11 11 12 14 16 19 22 25 29 32 35 38 42 45
3 13 14 18 11 4 8 11 5 10 12 11 9 16 13 15 19 18 16 6 6 4 5 7 8 8 10 10 9 8 9 11 12 17 21 24 27 30 34 37 40 44 46 48
4 7 21 16 13 8 5 7 6 9 15 16 16 17 13 8 9 8 4 5 7 4 3 6 4 6 8 9 8 8 10 14 19 22 26 29 32 36 39 41 44 46 48 50
10 22 17 16 11 11 6 7 12 13 14 13 16 20 9 8 4 3 3 7 8 5 3 4 4 5 5 7 10 13 16 20 24 27 29 31 36 40 43 45 48 49 52 54
15 12 19 12 16 16 12 8 14 22 20 19 18 17 12 7 4 3 5 7 3 4 5 5 5 8 10 12 16 18 20 24 27 30 33 36 41 46 49 50 51 53 55 56
22 20 16 13 13 19 16 14 14 18 18 15 16 19 16 10 12 9 4 6 7 7 9 8 9 12 13 18 22 24 26 29 32 35 38 41 44 48 50 53 52 56 51 43
20 19 18 18 15 15 16 18 13 12 16 14 14 21 20 16 13 8 10 8 9 9 11 12 14 17 20 23 26 30 33 36 38 40 41 42 44 47 49 47 46 50 50 54
28 24 21 18 20 19 21 15 16 17 14 15 14 19 21 18 17 16 15 15 14 14 14 16 18 19 21 25 29 34 38 42 44 44 44 48 43 46 45 49 47 54 47 60
23 25 20 14 17 24 24 17 18 17 15 19 19 17 19 21 20 22 23 20 18 16 20 22 23 24 26 29 34 38 42 42 38 37 43 46 45 51 53 51 52 58 55 63
23 25 24 19 21 16 17 23 23 20 23 23 24 17 18 23 24 29 32 29 23 23 25 27 28 31 32 34 36 38 34 34 37 39 41 49 52 55 52 53 55 55 56 61
27 25 25 19 17 22 24 23 21 23 24 25 25 23 22 24 27 30 32 31 26 24 26 28 31 33 34 35 34 37 36 39 40 45 47 51 54 49 54 55 56 59 61 62
28 29 24 22 21 22 25 26 23 25 25 25 19 18 16 25 28 29 31 32 29 28 30 32 33 34 34 36 36 36 40 43 45 47 54 51 57 56 56 57 60 61 61 62
31 28 26 25 23 25 27 28 25 23 24 26 23 21 21 25 26 27 30 31 32 34 35 37 38 37 33 39 40 37 39 43 45 55 55 55 54 56 56 58 60 61 62 65
27 28 27 26 26 27 30 26 29 29 27 29 27 26 25 26 26 26 28 30 32 35 37 40 42 44 45 45 36 36 41 51 51 52 53 54 56 57 58 58 58 59 67 70
28 28 29 28 28 32 27 27 27 26 26 26 27 27 25 25 26 29 31 33 35 36 37 39 40 42 45 47 49 50 50 50 50 52 54 56 58 59 58 60 62 64 66 72
31 28 28 30 29 28 25 25 24 25 27 27 27 24 23 24 28 32 34 34 36 36 37 39 42 45 48 50 49 48 49 51 52 52 55 57 57 58 60 61 66 69 71 75
32 29 29 29 29 29 23 25 25 23 26 23 21 21 24 27 30 32 34 34 35 37 39 42 45 47 46 46 47 49 50 51 52 54 55 57 59 60 65 68 68 68 73 78
30 30 31 30 30 29 24 24 24 25 19 19 22 24 28 30 31 31 33 34 37 40 42 45 46 45 47 48 49 50 51 52 53 54 57 58 62 64 66 65 67 72 77 80
32 31 31 29 28 29 24 23 23 20 23 23 24 26 27 29 30 33 35 37 40 42 45 47 47 48 48 49 50 51 52 53 55 58 62 64 63 64 66 68 71 74 76 75
35 31 32 28 26 26 26 23 23 21 21 22 25 27 29 32 34 37 38 41 43 45 47 47 48 48 49 50 51 52 54 57 60 62 62 62 64 67 70 72 74 75 73 70
36 33 31 29 25 22 21 19 19 22 24 26 29 31 33 36 38 41 43 45 47 48 48 48 49 49 50 51 53 55 58 62 62 63 64 65 67 71 74 76 75 73 70 69
36 33 30 29 26 24 24 23 24 26 28 30 32 35 37 39 41 43 46 48 49 49 49 50 51 51 52 54 56 59 62 63 63 64 65 68 72 74 75 75 73 71 70 72
38 34 32 30 29 28 27 27 28 30 32 34 37 39 41 43 44 47 48 49 49 50 51 51 51 53 55 57 60 63 62 63 64 66 69 73 75 76 76 73 70 70 70 70

GFSCGP_500_spd_057.txt.gz
Wind_Speed
6 6 1 6 6 7 14 6 14 15 12 10 13 10 11 13 14 11 11 10 9 8 7 6 5 5 5 5 5 2 1 4 6 8 10 12 12 11 11 14 18 20 23 26
3 4 3 7 10 10 11 6 13 10 15 15 13 8 12 11 8 9 9 12 11 8 8 8 6 4 3 3 3 3 5 6 9 8 10 10 10 11 15 17 21 25 28 32
3 3 4 9 11 17 13 9 8 7 7 10 11 13 9 8 8 8 6 9 9 7 5 4 5 4 4 5 6 6 7 9 9 8 8 9 12 15 19 22 27 30 34 37
6 7 15 13 18 15 6 10 13 11 6 4 4 7 6 8 9 9 4 1 2 4 7 5 5 7 7 7 11 12 11 9 8 8 11 14 17 20 25 28 32 35 38 41
10 10 8 10 15 8 6 8 10 11 9 5 5 6 6 5 10 13 12 6 8 8 9 7 8 10 8 8 11 10 10 9 10 13 15 17 23 26 30 33 36 38 43 45
13 9 10 18 16 10 7 7 8 10 10 10 11 10 6 9 8 7 7 9 10 6 10 9 8 11 12 10 9 8 9 10 13 16 19 23 27 31 35 38 40 44 46 48
12 12 18 17 13 14 15 11 12 12 13 12 15 15 10 12 8 9 8 10 8 6 8 7 7 8 8 8 9 10 11 15 17 20 24 27 31 36 40 42 45 47 46 48
18 20 20 15 14 18 19 16 15 17 14 14 15 16 11 10 12 13 12 12 8 7 6 6 6 6 7 10 12 14 16 18 21 24 28 31 36 41 44 45 47 48 48 47
23 23 26 23 17 19 18 17 18 19 19 19 19 20 13 15 16 15 13 10 8 7 8 8 8 9 11 13 15 18 21 23 26 30 34 38 42 45 46 47 49 47 53 55
27 26 26 31 21 18 16 20 17 17 14 15 18 19 16 18 17 16 17 13 12 9 10 10 10 12 14 16 19 22 25 29 32 37 41 44 47 45 45 50 48 47 46 51
29 31 30 29 22 14 17 18 22 21 21 16 19 19 19 18 19 19 20 19 16 15 13 12 13 16 18 19 23 27 31 35 39 43 44 39 40 46 49 53 47 51 54 49
28 33 32 29 20 17 21 25 25 24 20 21 23 19 18 19 21 23 22 23 21 20 20 19 20 22 23 24 28 32 36 40 43 39 39 40 45 46 47 46 51 61 56 60
28 31 31 29 26 19 17 15 25 27 24 25 25 19 19 21 25 27 29 29 27 26 23 25 27 26 26 31 34 34 37 37 38 40 40 38 42 47 51 55 56 56 59 60
27 28 27 24 20 21 25 23 25 24 27 29 26 22 21 23 29 31 32 30 27 22 24 25 26 29 32 32 33 34 36 37 38 38 36 42 44 48 52 57 60 60 60 61
28 30 27 28 28 23 24 22 26 29 28 27 26 26 23 25 28 28 26 26 27 25 26 27 29 31 32 32 33 32 36 36 36 37 41 42 51 56 58 57 58 60 61 63
28 32 31 30 26 25 26 27 30 32 27 28 29 30 28 24 26 26 24 25 25 24 27 30 33 33 33 32 33 36 36 38 35 37 45 54 53 52 57 56 59 63 64 64
26 27 27 29 31 31 32 26 30 30 31 31 32 31 29 27 24 24 24 24 26 29 30 32 34 36 35 36 39 42 43 44 42 44 50 50 52 54 56 59 61 62 63 66
29 28 30 30 32 37 25 27 28 32 33 32 31 30 28 27 26 27 27 28 28 30 32 34 36 36 37 40 43 44 46 48 48 47 48 51 53 56 58 59 61 63 65 68
32 31 30 34 34 34 30 28 30 30 29 28 28 28 28 27 27 28 28 29 30 32 33 35 35 37 40 41 44 46 46 46 46 48 50 53 54 56 58 60 64 66 67 68
31 31 32 34 35 36 28 30 31 30 32 26 24 23 25 27 27 28 28 29 31 33 34 36 38 40 43 45 46 47 47 47 48 50 52 53 55 56 60 64 65 65 66 69
28 31 36 35 35 36 32 31 32 35 23 25 24 25 27 27 27 28 29 30 32 34 36 38 40 42 44 45 46 46 47 48 50 51 52 54 57 61 63 64 65 67 69 72
29 31 31 31 34 33 29 31 32 27 28 27 28 28 27 27 27 27 29 32 34 36 38 40 42 44 45 45 46 47 48 49 50 52 54 57 61 62 63 65 67 70 73 75
35 34 35 35 33 34 29 26 27 28 28 28 29 28 26 26 27 29 31 33 35 37 39 42 44 46 47 47 48 49 49 50 53 55 58 61 62 63 66 68 71 74 76 76
35 36 39 37 34 32 31 26 25 27 28 27 25 25 27 29 31 32 33 35 38 41 43 45 47 47 48 49 50 50 51 54 56 59 62 63 64 67 69 72 74 76 77 79
45 37 38 37 33 31 31 27 25 27 27 26 27 29 30 32 34 36 38 40 42 45 47 48 49 49 50 51 51 52 54 57 60 62 63 65 67 70 71 73 76 77 77 79
26 29 35 33 31 35 31 29 27 28 30 30 31 32 34 36 38 40 42 43 46 48 49 49 49 50 51 52 53 55 58 61 63 64 65 67 69 72 74 76 77 78 80 79

GFSCGP_500_spd_063.txt.gz
Wind_Speed
11 12 15 9 7 12 3 2 2 13 16 15 15 16 13 14 14 12 12 9 9 9 10 12 13 14 15 13 13 14 13 14 15 15 14 14 14 12 12 14 13 13 14 15
9 8 9 8 5 2 6 4 6 12 7 11 14 9 6 9 10 10 10 11 10 9 10 11 12 13 14 15 15 15 15 15 13 14 15 15 13 13 13 14 13 14 16 19
11 6 6 8 7 4 9 3 7 8 10 13 11 9 9 6 4 6 6 5 8 9 10 12 13 13 14 15 15 14 13 13 14 15 15 16 16 14 15 15 15 17 20 23
14 8 8 6 13 6 5 3 7 5 6 10 8 10 10 10 6 4 5 7 6 7 8 9 11 13 13 13 14 15 16 16 15 17 17 17 17 15 16 18 19 22 23 26
14 10 6 8 12 13 8 7 11 11 14 8 7 8 13 11 7 9 8 9 9 12 13 14 14 16 15 16 16 17 17 16 17 16 19 18 16 18 21 23 24 26 28 32
12 12 9 8 8 14 11 7 4 6 9 10 10 7 12 11 10 8 14 16 18 20 19 19 19 18 16 18 17 18 16 14 16 16 17 19 20 22 25 23 25 29 33 37
12 14 15 17 17 14 21 15 10 7 8 9 11 10 7 11 13 11 10 16 21 25 24 23 23 23 22 20 19 20 17 16 18 21 22 24 25 26 22 25 28 32 33 41
12 14 18 17 19 23 26 25 18 13 13 12 15 16 10 13 14 11 15 14 12 12 20 22 25 26 24 23 21 18 18 17 20 26 27 23 22 21 27 29 34 33 41 40
8 14 15 15 17 23 27 27 23 19 18 15 13 16 14 12 15 13 11 11 12 13 19 23 24 23 22 19 17 16 18 18 22 27 27 23 26 29 32 33 33 38 38 42
12 13 18 20 20 23 28 27 24 23 21 19 15 13 7 12 9 11 15 15 15 15 16 17 19 20 20 20 20 19 20 21 23 27 28 29 30 32 34 34 32 36 41 44
13 12 17 19 21 26 28 27 26 24 24 24 19 15 14 13 13 12 15 18 19 20 19 20 21 22 21 21 21 21 24 26 28 31 32 33 36 37 37 33 32 37 44 49
16 16 15 20 21 26 29 28 29 31 29 29 30 24 18 14 15 17 18 18 20 20 21 22 24 24 24 24 25 28 28 31 32 34 35 37 38 37 35 36 42 45 49 56
22 20 16 17 19 20 28 30 30 30 32 32 31 23 16 16 16 20 22 24 24 25 23 22 24 28 30 30 31 32 34 34 34 36 38 36 35 34 38 40 40 45 51 49
29 27 19 12 13 19 22 23 28 33 34 31 28 19 17 18 18 19 22 24 24 25 26 28 27 31 33 36 38 36 36 35 36 36 36 35 36 37 39 39 46 47 52 57
33 29 21 15 17 21 22 22 24 26 27 30 26 27 19 18 19 22 24 25 26 26 24 24 25 30 31 31 32 34 34 33 34 35 35 35 36 40 41 44 45 45 45 56
35 29 24 19 19 20 22 20 22 24 27 31 28 21 21 23 22 23 27 29 28 29 28 28 27 26 29 29 29 30 32 33 34 33 34 37 39 41 44 46 48 48 49 54
35 31 26 24 22 23 23 12 17 22 23 24 22 18 22 23 25 27 27 29 29 30 31 30 31 31 31 30 31 32 34 34 33 35 37 39 42 45 47 50 51 53 55 58
37 35 31 28 26 30 17 16 20 21 20 22 21 22 24 26 26 27 28 29 30 30 30 30 29 30 31 31 32 33 33 33 35 38 40 42 46 49 51 52 55 55 57 58
39 34 31 32 30 28 20 12 18 23 18 20 23 23 26 27 28 28 29 29 29 30 29 28 28 28 29 30 30 31 34 36 38 40 43 46 49 51 53 54 55 57 58 60
44 36 35 34 31 31 18 18 21 25 19 20 25 24 25 27 30 30 28 27 26 25 25 26 27 28 29 30 32 34 35 37 40 43 46 48 51 53 54 56 57 58 60 62
44 39 37 35 32 30 25 20 23 29 20 26 25 25 25 28 30 32 28 27 25 26 27 27 26 28 30 31 33 35 38 40 43 46 49 52 53 55 56 57 58 59 62 64
41 35 37 35 34 33 25 26 26 23 25 26 26 25 25 27 28 30 30 29 28 28 25 26 28 30 32 34 36 38 41 44 47 50 52 54 55 56 57 57 59 61 63 66
40 39 38 34 31 31 29 27 26 27 26 26 27 26 26 27 27 28 30 30 28 27 28 30 31 33 36 38 40 43 45 48 51 53 55 56 57 57 57 59 60 63 67 71
41 41 42 36 29 29 33 29 26 30 32 33 30 28 27 28 26 25 26 27 29 31 32 34 35 38 40 42 44 47 49 51 54 56 56 57 58 58 61 62 63 69 73 76
40 41 40 31 27 32 35 35 36 32 35 35 32 31 29 29 29 29 30 31 32 34 36 38 40 42 44 46 49 50 53 55 56 57 58 58 60 62 62 64 70 75 78 78
41 41 41 35 33 37 31 33 38 37 35 36 35 32 30 31 31 32 33 35 37 38 39 42 44 47 49 51 53 54 56 57 57 58 59 61 62 62 65 70 75 77 76 76

GFSCGP_500_spd_066.txt.gz
Wind_Speed
14 10 9 8 8 4 4 8 8 7 2 6 8 12 11 10 7 9 6 5 4 3 8 10 10 10 10 7 6 8 11 9 10 11 13 15 15 17 17 18 18 17 14 13
12 8 8 6 6 6 5 4 4 2 1 2 6 7 3 4 5 3 5 6 4 6 8 9 10 12 12 10 10 11 12 13 14 15 15 15 17 19 19 19 18 15 15 15
10 6 8 6 5 6 5 3 7 6 8 6 7 2 1 1 2 3 4 3 4 5 7 9 11 13 13 14 14 14 15 15 15 15 18 19 20 19 19 18 17 17 18 19
11 7 10 10 8 8 6 4 7 3 3 2 1 3 8 6 5 3 3 5 5 5 6 7 8 10 12 13 14 16 17 17 18 18 19 21 21 22 22 20 19 21 22 22
11 8 13 14 6 9 8 9 7 6 8 5 4 4 12 11 9 9 9 10 10 11 10 11 11 13 14 15 16 17 18 19 20 21 20 22 21 22 22 23 22 24 29 28
11 9 13 14 6 5 9 10 6 3 5 8 10 8 9 11 14 14 13 15 16 13 14 16 18 19 18 20 20 20 20 19 18 20 22 26 26 25 26 26 27 30 29 25
11 9 15 15 13 8 10 15 10 9 6 7 8 8 11 13 15 18 17 17 20 20 22 25 23 20 20 21 20 18 19 20 19 18 19 24 28 26 27 26 30 27 27 32
10 10 14 16 18 16 18 20 22 17 14 13 13 11 13 18 18 19 20 16 18 17 15 15 18 21 22 23 22 21 21 21 18 19 20 23 27 33 33 25 24 27 30 34
13 11 11 18 21 22 23 24 25 25 21 19 17 13 16 16 19 20 18 21 20 14 14 16 21 25 24 24 24 24 22 20 21 23 25 25 29 32 30 29 28 32 35 35
17 15 14 16 19 22 20 23 24 25 22 21 19 15 13 18 14 18 20 21 19 16 15 16 16 19 22 22 21 20 22 23 24 24 27 29 32 36 34 34 37 36 36 33
20 17 17 14 14 20 20 20 25 26 24 23 21 18 11 18 20 18 17 18 21 20 19 20 21 17 18 20 21 22 23 25 26 27 30 33 36 38 38 40 41 35 30 33
21 21 18 17 14 18 22 22 26 27 27 28 29 25 22 22 24 23 20 19 19 21 22 23 24 26 26 27 26 26 28 30 32 34 36 37 39 40 43 38 33 32 35 39
26 27 24 21 17 16 17 18 23 27 27 29 31 26 24 20 23 25 19 22 20 20 20 21 23 26 29 32 33 34 35 37 37 37 39 40 40 43 43 39 36 36 38 41
31 31 27 22 17 19 19 19 23 25 31 28 29 25 23 23 24 23 23 22 22 23 25 25 24 25 31 34 38 41 41 40 40 41 40 41 41 42 41 38 37 39 39 41
37 37 28 24 23 23 22 21 23 25 23 28 20 24 17 21 24 21 20 22 23 24 25 27 28 27 26 33 38 40 38 36 38 39 40 40 39 40 40 40 42 44 44 48
38 37 31 30 27 25 26 20 23 23 24 23 23 21 19 22 23 25 22 22 23 26 27 29 30 31 30 30 33 34 33 33 34 36 38 39 38 39 40 41 43 45 48 50
41 40 34 32 29 29 28 18 17 20 23 23 22 16 17 19 20 20 20 23 24 26 28 28 29 30 32 32 33 36 36 37 36 36 37 36 38 39 41 43 46 48 50 54
42 38 35 35 32 40 22 19 22 23 20 21 21 20 21 21 21 20 23 24 25 27 27 28 29 30 31 32 33 33 34 36 37 37 37 38 39 41 44 46 50 53 55 58
41 38 39 40 36 33 27 19 18 22 22 21 23 25 25 23 24 22 25 25 26 26 25 26 27 27 27 28 29 32 34 35 36 36 37 39 42 44 47 49 52 56 58 59
41 38 38 40 40 39 24 19 21 26 23 18 27 27 27 26 26 25 26 25 26 27 27 27 27 27 28 29 30 31 32 34 35 37 40 42 44 47 50 53 56 58 59 61
45 42 42 40 41 39 28 26 23 30 16 27 32 29 28 28 28 28 27 28 26 27 28 28 28 29 30 30 30 32 34 36 38 40 43 45 48 51 54 57 59 60 61 61
44 46 46 44 45 43 27 30 30 23 27 28 29 30 32 32 31 29 28 29 28 28 30 31 32 31 31 32 34 36 38 39 41 44 46 49 53 55 58 60 61 61 62 63
44 39 41 38 41 38 34 33 31 28 28 28 30 31 32 30 30 28 28 29 30 29 30 31 31 32 34 35 37 39 41 43 46 49 52 54 56 58 60 61 62 63 64 66
42 46 44 37 35 35 35 33 30 31 32 31 30 34 37 34 33 31 30 29 30 30 30 31 34 35 36 38 40 42 44 47 50 54 56 57 59 61 62 62 63 65 66 66
49 49 43 41 37 35 36 31 32 38 33 36 39 42 39 35 35 34 32 30 31 31 33 35 37 39 41 42 43 46 49 53 56 57 58 60 62 63 63 64 65 65 65 68
41 40 42 45 40 39 39 30 31 35 33 33 37 42 37 38 39 36 32 32 33 35 37 39 41 43 44 47 49 53 56 57 57 59 61 62 62 63 65 65 65 66 71 75

GFSCGP_500_spd_069.txt.gz
Wind_Speed
11 12 10 6 8 4 13 11 6 9 17 7 8 4 14 21 11 12 10 5 4 2 8 7 10 13 12 11 11 11 13 12 9 6 5 4 6 9 11 14 16 16 17 18
11 9 8 7 6 3 4 7 3 8 9 10 3 7 12 6 4 7 4 5 5 2 1 4 6 5 6 5 3 2 2 1 1 3 4 6 8 11 15 17 19 20 20 20
11 10 9 9 7 4 3 6 8 6 7 5 5 7 7 8 5 5 7 6 2 2 2 1 1 1 1 2 3 3 5 6 7 9 11 13 14 17 18 19 21 21 20 20
13 12 11 12 10 9 5 8 7 2 2 13 2 10 4 11 10 6 4 4 4 3 3 4 3 4 4 6 7 9 10 11 11 13 15 17 20 21 22 22 22 21 21 23
12 12 10 13 13 11 12 5 4 5 4 4 9 2 13 7 9 13 10 11 8 8 5 6 8 9 9 9 10 11 13 14 16 18 19 21 23 24 25 24 25 23 24 26
20 13 10 11 15 12 10 10 6 6 5 8 5 7 10 6 8 12 14 14 13 13 13 15 16 15 15 15 15 16 17 17 18 19 20 22 24 26 27 27 28 26 29 31
21 14 11 10 16 12 10 11 5 8 10 4 12 10 9 12 20 21 20 18 17 16 16 16 19 17 16 14 16 17 18 16 18 20 20 19 21 20 22 27 30 32 34 35
23 21 12 9 17 17 15 12 10 9 10 8 17 11 8 17 20 21 20 23 22 20 17 15 16 16 15 16 17 17 18 20 20 18 18 18 20 21 25 23 27 32 33 32
27 21 17 14 20 22 18 21 14 21 22 18 17 15 14 15 13 14 21 23 25 25 23 19 17 16 17 19 18 19 19 19 19 20 21 21 24 24 26 29 31 34 36 37
29 25 21 18 21 23 25 19 22 22 17 17 11 15 13 23 20 12 15 20 25 25 23 21 18 17 15 16 18 19 20 21 22 24 25 26 26 28 31 33 36 37 37 42
33 30 27 24 18 19 21 24 21 17 15 15 15 11 17 18 20 22 19 21 22 24 24 22 21 20 21 20 21 21 23 25 27 27 27 29 31 32 36 38 40 40 42 41
35 31 32 22 21 20 20 21 22 23 21 24 26 23 18 28 21 26 24 24 24 23 24 25 24 24 24 26 27 28 28 29 30 31 32 31 35 39 41 44 44 44 45 44
38 44 35 28 26 20 21 18 20 21 22 25 27 22 21 26 22 19 19 23 24 26 23 23 24 25 27 30 32 34 34 35 35 36 36 39 41 42 44 45 46 47 47 46
42 41 37 31 20 21 21 23 23 24 25 22 26 23 17 20 20 21 22 26 23 26 23 22 22 24 26 29 33 37 39 40 41 42 44 45 45 44 45 46 46 47 47 45
42 45 39 33 30 21 22 23 23 23 23 23 16 19 15 17 18 24 25 29 23 27 26 24 26 26 26 27 29 30 33 37 39 39 41 41 41 43 44 45 45 46 48 47
43 41 41 38 36 31 29 27 24 24 23 23 21 20 20 25 30 27 24 25 26 26 25 27 29 30 30 30 31 31 34 36 35 34 36 39 41 42 43 45 45 46 47 46
46 45 43 43 35 34 39 25 27 24 22 23 23 20 17 23 25 23 22 23 27 27 28 29 29 30 31 32 33 32 34 37 37 38 38 39 40 42 43 43 43 44 46 49
47 46 44 42 37 43 37 28 27 25 26 25 24 23 24 25 27 22 22 26 26 28 28 28 28 29 31 32 33 34 35 37 39 39 40 41 42 42 41 42 44 47 49 52
48 44 45 45 40 38 35 33 26 25 27 25 25 25 25 29 27 27 27 29 28 29 29 30 29 30 31 32 32 32 33 35 36 38 40 41 41 41 42 44 47 50 53 56
47 45 46 44 43 44 36 30 25 28 37 18 26 28 31 32 30 31 29 32 32 30 32 33 33 32 31 31 32 33 35 36 37 38 39 40 41 43 45 48 50 53 56 59
53 47 48 45 45 43 37 32 28 36 19 27 30 31 32 33 33 32 33 33 34 34 34 34 34 34 34 33 34 36 38 37 38 39 40 42 44 46 48 50 54 57 60 61
44 53 51 45 45 43 38 30 31 24 31 31 32 33 34 34 33 36 36 37 37 36 34 34 35 36 36 36 37 37 36 38 40 42 43 45 47 49 52 55 59 61 62 63
31 49 48 49 43 41 37 31 33 33 33 34 35 36 34 33 34 35 35 34 35 36 36 35 35 34 34 34 35 37 39 40 43 45 47 48 50 54 57 61 61 63 65 66
45 36 43 44 43 42 41 38 37 36 36 38 38 37 35 36 35 34 35 38 40 40 40 38 36 34 35 36 38 40 43 45 47 49 50 53 56 59 61 62 63 64 65 66
53 46 43 40 39 39 39 32 35 38 39 40 42 39 38 40 39 43 44 41 39 40 41 38 37 37 39 40 42 44 46 48 50 53 56 59 60 62 64 63 63 63 66 68
46 49 47 46 41 40 44 45 38 37 38 36 39 41 41 38 36 38 34 35 39 40 41 40 41 43 43 45 48 51 52 53 54 57 60 61 61 63 63 63 64 66 68 69

GFSCGP_500_spd_072.txt.gz
Wind_Speed
17 13 11 14 9 7 12 14 4 19 11 13 4 5 10 21 22 9 17 16 9 10 6 15 16 16 17 18 15 13 13 13 11 14 11 11 8 5 3 3 3 6 9 12
19 12 9 11 4 8 8 7 7 8 10 7 3 13 13 14 13 11 8 8 8 7 6 10 10 9 10 10 9 10 7 8 7 5 3 3 2 2 3 5 7 10 13 17
20 13 10 10 7 8 8 3 6 13 14 9 5 7 11 16 15 14 10 9 7 7 6 7 5 5 6 6 5 4 4 5 5 5 6 7 7 8 10 11 13 15 16 18
21 17 11 10 11 13 12 9 8 8 8 8 5 3 12 16 11 11 16 8 10 5 5 5 5 7 8 7 6 5 6 6 7 9 10 12 13 14 15 16 17 19 20 20
16 19 14 12 11 16 10 12 7 8 5 6 16 4 14 14 9 18 14 14 6 9 8 7 9 10 11 10 9 9 8 8 9 11 12 14 14 16 17 18 20 21 22 23
24 22 19 14 14 16 16 14 12 10 8 4 2 7 15 9 7 12 15 22 13 2 7 13 14 11 11 9 9 10 12 12 11 12 14 16 17 17 17 17 20 22 21 24
29 26 22 18 16 16 15 15 13 11 10 4 5 4 13 14 13 16 20 25 20 13 7 10 11 10 11 9 8 9 10 11 12 11 15 14 14 17 17 17 19 20 19 24
31 32 23 19 16 16 15 15 16 13 9 11 14 4 6 14 18 17 14 20 24 23 23 19 18 16 13 9 8 10 11 12 12 15 15 14 16 17 19 22 23 22 21 27
36 28 26 25 21 22 20 23 13 16 21 17 13 4 14 21 21 17 16 12 19 20 21 24 24 23 21 17 13 11 13 13 14 15 17 17 18 20 23 24 25 26 26 29
34 30 31 24 25 27 22 17 22 27 25 18 16 13 20 12 19 18 21 21 17 16 19 21 22 22 21 19 17 16 16 17 18 20 20 23 25 25 27 26 30 30 34 37
35 30 30 28 30 26 28 25 24 23 21 19 17 12 14 15 10 17 25 27 25 22 18 19 21 21 23 22 23 19 20 23 26 27 27 27 31 32 31 30 34 35 38 40
42 39 32 35 30 26 28 28 28 26 19 20 20 22 23 24 23 23 30 28 31 29 25 20 22 24 25 24 25 24 27 25 29 34 35 32 32 34 38 37 39 40 42 44
39 45 35 32 35 37 30 29 22 26 26 28 26 21 18 27 32 24 23 20 20 27 22 23 21 25 26 26 27 30 31 31 33 38 37 36 38 37 38 43 46 47 45 45
43 46 48 42 37 22 31 29 26 23 22 20 22 20 15 17 22 26 25 22 18 19 19 25 21 20 25 25 28 30 31 33 35 39 38 38 36 38 43 43 43 45 45 45
49 48 47 43 38 30 28 26 30 33 29 27 20 21 13 11 21 26 33 24 28 26 20 23 23 25 21 25 25 27 29 31 32 34 36 36 35 38 38 39 43 44 44 45
44 52 46 41 39 36 31 24 26 32 31 26 26 26 21 26 26 27 30 37 38 31 29 23 25 32 26 24 28 29 30 32 33 33 35 36 36 37 41 43 47 43 44 46
53 48 42 46 40 37 46 35 31 32 27 25 25 23 20 20 27 29 35 28 26 26 24 27 30 32 33 29 30 32 33 34 36 37 37 38 40 41 43 44 45 45 46 46
59 50 46 38 44 55 44 43 40 39 33 29 27 25 23 23 28 32 33 25 29 21 26 29 31 32 34 34 34 34 36 36 37 37 38 39 41 42 43 44 45 46 46 46
56 48 47 51 46 48 46 42 37 33 31 30 28 23 23 23 29 33 33 27 33 29 30 32 33 35 35 36 36 38 38 37 37 38 38 39 41 42 43 44 45 46 47 49
53 50 54 36 51 52 43 38 38 33 39 33 22 28 28 28 36 31 29 29 33 35 35 35 36 37 37 37 37 39 39 37 37 37 39 41 43 43 44 46 46 48 50 52
51 55 49 53 47 49 44 36 32 40 35 20 31 31 31 32 37 28 32 34 33 34 35 37 37 38 38 39 39 40 39 39 39 40 42 42 42 45 47 47 49 51 53 54
34 56 57 47 47 54 43 40 41 31 26 32 37 34 33 37 34 33 34 34 35 35 36 36 35 36 38 39 40 40 39 39 40 40 41 43 45 47 48 50 52 54 56 60
32 34 48 59 53 48 37 38 32 30 37 40 42 39 40 41 38 39 37 37 36 36 38 38 38 38 39 40 41 39 39 40 40 42 44 46 48 50 51 53 56 59 61 63
28 27 35 38 45 48 49 43 43 32 31 33 38 40 44 46 43 42 40 39 38 39 42 41 41 42 41 41 41 41 43 43 44 45 47 49 52 56 58 59 60 62 64 66
51 41 33 39 41 45 39 42 36 32 40 37 39 38 39 41 39 41 44 42 40 40 41 42 45 43 41 41 41 44 45 47 47 49 50 52 55 55 58 61 64 67 69 68
50 46 46 38 31 39 42 35 36 41 38 39 36 37 40 43 41 42 42 44 41 40 41 41 36 36 40 40 41 42 46 49 50 52 54 57 59 61 63 67 67 66 68 69

GFSCGP_500_spd_075.txt.gz
Wind_Speed
20 16 9 12 8 12 7 6 7 10 13 12 13 9 3 14 24 21 21 17 13 11 15 18 18 16 10 6 9 11 8 11 12 16 17 18 18 14 13 13 14 13 5 2
25 10 13 14 11 13 4 5 7 14 11 9 9 11 10 12 16 15 17 17 15 10 7 10 12 15 17 18 18 17 18 15 14 15 13 14 12 10 10 8 4 2 4 7
27 12 17 16 13 10 6 4 11 16 13 11 14 13 6 3 5 14 16 12 11 12 12 11 12 12 12 11 12 11 11 9 7 9 8 8 8 6 6 3 2 4 7 10
30 21 19 19 14 10 10 14 11 15 8 6 11 1 9 13 7 7 7 13 11 9 10 11 12 12 11 10 10 8 8 6 5 4 5 5 5 4 4 5 5 6 8 11
22 22 18 18 12 13 11 17 10 11 10 7 10 7 6 7 18 5 11 11 13 8 6 5 8 9 7 6 5 5 4 3 2 3 3 5 5 5 5 7 9 8 11 13
28 26 26 19 18 15 15 19 13 13 13 10 10 10 9 8 11 6 10 12 8 4 6 5 6 6 6 5 4 2 1 4 6 4 4 5 5 7 6 6 9 10 11 11
28 33 29 24 23 20 19 21 17 18 19 10 8 8 6 7 13 13 17 14 10 5 5 8 10 10 10 9 9 8 9 8 7 9 7 7 7 11 9 8 9 15 15 15
36 37 31 23 24 22 19 21 21 17 18 18 9 7 5 11 16 16 18 19 15 7 8 8 9 10 13 13 11 13 14 13 8 9 12 10 11 14 15 16 16 19 20 19
41 39 27 29 27 25 21 24 14 22 21 18 11 8 16 12 18 22 15 18 19 13 15 18 14 13 11 13 14 14 14 15 13 11 11 14 16 16 20 22 22 25 24 24
39 42 38 31 30 31 28 24 23 24 23 22 17 18 19 20 22 30 22 19 15 14 21 22 18 14 13 9 13 15 16 14 13 13 14 15 19 23 23 25 28 29 26 27
42 47 44 38 38 33 33 32 32 30 30 28 22 22 23 20 24 29 21 23 27 22 21 23 26 26 19 15 13 16 20 20 16 24 19 20 24 28 31 28 28 33 30 30
48 55 45 45 33 34 31 32 35 31 28 28 26 23 21 19 17 21 23 26 31 33 18 18 18 23 24 19 20 20 20 21 15 25 25 25 32 38 37 29 34 30 31 36
47 48 48 43 42 39 40 34 35 36 31 28 24 14 23 14 22 29 28 25 24 28 22 11 14 16 21 23 20 21 19 18 22 27 26 29 27 32 36 33 35 32 40 43
41 43 54 52 45 41 42 34 32 34 41 31 30 27 28 25 26 28 25 26 22 24 23 18 14 16 18 19 20 23 24 25 26 27 29 31 32 33 35 33 37 39 39 35
46 40 52 48 44 39 37 34 33 37 35 34 21 26 25 24 23 30 31 31 28 23 27 31 28 18 15 18 21 25 27 29 31 32 32 33 33 33 34 35 38 39 39 40
45 36 50 56 44 45 34 37 29 29 32 33 29 31 26 22 28 31 27 33 32 26 21 25 25 27 12 12 18 23 27 28 30 32 34 35 35 35 36 36 38 39 43 44
40 40 47 59 57 45 49 39 37 31 31 32 36 35 32 29 31 33 34 34 36 24 16 21 27 26 24 22 23 26 29 31 32 34 34 36 37 38 38 40 41 43 45 46
37 42 41 55 46 58 56 50 41 35 32 27 30 34 36 28 27 30 33 34 38 33 24 24 28 31 32 32 31 32 32 34 34 35 38 39 39 40 40 40 41 43 45 47
45 36 41 49 55 52 53 49 47 44 38 35 37 36 27 29 29 30 33 31 33 30 27 30 30 32 33 35 36 37 36 35 36 38 39 41 41 42 42 43 45 46 47 47
39 39 41 44 57 64 58 49 44 47 47 38 37 35 35 33 35 33 35 30 30 30 30 30 33 35 35 36 37 38 37 38 40 40 41 41 41 43 44 45 47 46 47 49
30 35 40 44 53 52 51 42 50 50 47 37 32 33 35 39 38 35 38 29 29 30 31 33 33 33 35 37 38 39 38 38 40 41 41 42 43 44 45 45 45 47 49 51
27 37 41 46 51 50 42 43 47 44 40 35 35 36 40 39 37 34 34 33 33 34 34 35 37 35 35 35 35 36 36 38 39 40 41 42 44 44 44 46 47 49 51 55
28 26 44 50 48 44 45 37 36 41 47 37 44 46 43 43 43 39 38 35 36 38 40 40 36 37 39 40 39 38 39 41 40 42 42 44 44 44 46 47 50 52 56 58
30 32 27 36 44 50 47 45 47 40 39 36 41 45 45 45 44 43 45 47 47 46 45 40 40 41 43 40 37 39 40 40 41 42 42 44 45 47 49 51 54 55 57 60
36 36 43 34 33 36 38 51 49 46 38 38 34 34 35 37 38 39 39 41 42 42 40 40 39 40 42 42 40 37 37 40 42 41 43 46 49 52 53 54 56 59 61 63
44 39 40 43 34 36 34 37 43 33 34 30 29 29 32 36 38 37 36 41 44 44 43 44 45 43 42 42 39 38 40 42 44 46 49 53 55 57 58 60 62 63 66 68

GFSCGP_500_spd_078.txt.gz
Wind_Speed
24 17 10 19 15 16 16 10 12 8 5 10 6 5 9 9 10 13 10 13 16 14 12 13 12 14 5 5 10 12 11 15 13 11 9 7 9 11 9 9 14 17 16 16
28 13 13 25 17 16 17 15 12 5 6 10 12 5 7 5 6 10 11 11 11 11 12 9 9 13 16 18 15 14 14 14 12 13 14 13 12 14 15 15 14 12 11 9
29 17 24 26 20 17 16 18 10 4 10 11 17 9 4 1 3 7 11 11 7 9 11 12 10 9 11 15 18 18 18 15 14 13 13 11 11 12 12 11 10 9 9 9
34 24 27 27 23 21 18 22 8 11 11 10 14 8 5 5 4 5 8 9 6 3 10 10 8 8 7 9 10 10 11 12 13 12 10 10 9 9 7 5 5 5 8 10
28 24 25 27 22 25 17 22 16 17 15 13 10 13 11 7 4 6 3 2 4 1 1 4 5 5 2 4 6 7 9 9 8 7 8 8 8 6 6 6 7 9 9 8
36 30 34 28 29 27 25 23 21 17 17 14 16 17 9 8 6 3 3 4 4 3 2 1 2 3 5 3 1 4 4 4 4 4 6 6 6 9 7 7 8 10 11 10
37 34 33 34 30 30 29 25 24 23 21 13 19 18 13 13 8 3 4 3 7 5 4 4 8 6 4 5 4 5 6 6 6 8 8 8 9 9 10 12 15 14 15 17
40 36 35 30 30 29 31 27 24 27 21 19 21 16 23 17 14 5 6 4 3 6 4 1 5 9 9 9 8 7 7 8 10 10 10 12 12 13 15 15 18 20 19 20
40 42 33 31 31 32 32 35 20 27 27 25 24 18 24 18 16 11 13 14 9 6 11 10 6 7 9 12 11 10 10 9 9 11 13 15 17 16 17 20 19 21 23 26
40 41 35 36 35 35 38 30 29 30 33 31 23 23 23 20 16 19 21 18 14 15 15 14 16 14 12 11 12 13 15 13 12 13 15 18 21 21 22 22 23 26 30 31
36 40 40 41 45 41 41 39 36 31 33 31 30 28 24 23 24 27 22 21 19 24 23 22 19 18 20 15 14 15 17 16 16 19 19 19 21 24 27 26 29 36 36 37
44 41 44 44 45 44 43 41 36 36 37 31 31 29 26 24 25 24 27 28 27 27 24 15 17 11 10 14 14 14 20 23 17 16 18 20 22 25 32 36 31 26 37 38
46 48 48 46 47 48 52 47 43 35 36 39 34 26 26 28 27 26 28 28 25 24 18 8 12 16 10 11 13 13 13 15 18 18 21 20 23 27 29 29 27 30 30 32
48 47 51 50 45 47 52 51 47 34 41 40 38 28 24 27 29 25 27 27 28 28 24 11 14 15 17 16 15 16 16 17 18 21 21 21 23 26 28 30 30 32 33 37
45 50 47 43 36 42 55 57 49 43 39 40 38 39 34 31 27 28 29 31 36 33 30 23 18 23 25 25 22 22 21 21 21 22 24 24 24 26 30 31 31 34 36 40
53 50 45 43 36 45 57 57 55 41 40 38 38 38 31 28 36 36 34 35 33 31 32 20 21 25 16 24 23 23 25 27 29 28 27 28 29 30 30 32 34 36 38 40
43 48 45 45 36 46 59 55 56 48 47 37 39 33 29 33 29 29 35 35 32 28 30 27 18 21 17 17 22 23 26 28 28 31 33 34 35 36 37 37 37 40 41 42
48 39 36 41 40 51 53 54 52 49 42 42 34 34 37 38 38 37 35 37 38 33 28 28 24 24 25 27 26 27 28 30 31 33 33 33 35 38 39 39 40 42 43 44
29 45 37 47 42 42 54 58 45 46 48 41 37 33 32 34 37 36 34 35 37 33 29 28 25 26 27 32 33 33 34 34 35 36 36 36 37 38 39 41 42 44 46 47
22 29 38 31 38 40 42 56 55 51 42 40 38 35 37 36 34 31 34 34 33 32 32 29 29 30 29 30 32 33 34 36 38 39 40 40 39 39 41 43 45 47 47 47
19 34 38 37 33 39 38 45 49 57 54 47 46 41 39 37 36 36 40 40 37 32 32 31 31 31 30 31 32 32 34 36 38 39 39 40 41 44 45 45 46 47 48 48
26 23 38 39 39 42 36 36 46 48 51 51 52 52 45 42 42 42 40 40 40 38 36 34 36 37 36 37 37 37 35 36 39 39 41 42 44 45 45 47 47 48 48 49
20 15 21 40 38 35 34 35 41 36 50 48 51 51 53 43 46 44 43 45 47 46 44 43 42 41 41 41 41 41 41 41 39 39 43 44 44 44 45 47 49 51 53 52
25 24 25 25 26 33 38 37 38 43 35 38 42 46 50 55 56 51 47 50 48 45 44 44 45 46 44 41 40 40 39 40 41 39 38 40 43 45 46 48 51 53 55 58
39 29 21 24 22 24 33 40 41 40 36 36 36 35 40 44 47 48 50 46 43 41 40 38 35 36 38 41 44 44 43 42 41 40 42 44 46 47 48 50 52 55 57 58
52 36 29 32 30 27 29 33 42 43 40 42 37 37 35 44 42 40 37 37 37 37 37 37 40 43 46 50 53 53 48 44 45 46 48 48 48 48 51 53 56 58 62 65

GFSCGP_500_spd_081.txt.gz
Wind_Speed
31 28 14 14 21 22 20 20 16 18 19 17 9 2 4 3 3 5 8 10 9 7 8 9 6 4 3 1 5 9 13 14 12 19 15 17 19 23 23 21 22 25 23 23
36 27 17 23 24 21 20 22 17 18 21 20 8 5 1 3 5 2 4 5 8 7 8 9 11 10 7 6 8 10 9 11 9 13 13 17 17 14 16 17 18 18 16 17
32 26 27 29 28 22 22 23 22 21 23 22 7 6 1 8 5 5 3 2 4 6 5 9 12 13 12 13 12 14 16 15 16 16 14 12 14 13 11 13 13 11 13 12
36 29 29 31 31 24 21 24 27 28 23 21 10 6 6 6 4 6 5 2 3 4 3 4 9 8 8 8 8 9 9 10 10 12 11 11 12 14 12 14 14 13 15 15
30 25 28 32 23 32 18 27 28 31 28 16 13 12 12 5 11 13 7 5 4 4 4 2 2 5 4 4 6 8 8 9 10 11 11 10 12 12 12 11 12 14 14 16
36 30 35 32 28 35 25 32 30 33 30 17 13 17 11 7 9 11 7 5 5 6 6 6 5 2 2 2 2 1 4 6 8 7 6 7 7 9 8 8 10 13 13 14
40 35 33 37 36 36 32 33 34 33 32 13 22 21 9 12 11 12 10 6 5 11 8 8 8 5 5 2 1 3 3 3 3 2 4 6 8 9 11 12 13 13 15 16
41 37 33 33 35 32 34 33 37 33 36 22 26 20 12 16 12 12 13 10 8 9 10 8 6 7 9 9 8 8 7 5 5 6 6 7 9 11 12 13 15 15 17 20
42 45 36 32 33 38 35 40 33 39 38 32 31 25 20 19 16 16 16 11 12 12 10 11 8 7 5 7 9 12 10 9 8 10 9 10 11 12 15 18 20 21 24 26
48 48 38 37 37 39 40 34 39 42 41 36 33 28 26 21 19 17 16 12 8 12 12 15 13 16 15 13 12 10 12 12 12 12 12 12 13 15 17 19 20 25 29 35
54 54 46 39 42 44 45 44 43 41 42 40 36 32 26 28 23 21 21 19 15 16 15 17 19 18 16 19 18 15 17 18 16 17 18 17 19 21 21 21 24 25 30 40
56 56 58 47 43 46 47 45 44 45 47 40 37 30 32 31 27 25 24 22 21 20 19 20 16 9 7 11 16 18 20 23 23 25 23 14 16 19 22 26 25 28 29 24
57 61 58 53 50 54 56 54 52 48 46 45 40 30 32 35 34 28 27 28 26 27 24 14 12 10 4 7 12 15 18 21 24 24 18 19 20 23 24 26 25 29 30 26
55 60 63 61 54 53 54 55 53 50 50 47 44 40 33 33 33 33 29 30 27 27 27 15 10 14 15 13 13 16 21 24 23 21 20 21 21 22 25 25 26 26 28 30
49 46 60 63 58 51 52 52 54 52 48 51 43 45 37 35 30 32 27 28 30 30 28 26 15 14 17 22 22 21 20 23 25 25 23 22 23 26 27 30 30 30 30 32
45 53 54 59 61 56 52 55 51 51 52 53 52 48 38 39 33 32 28 29 35 33 30 26 20 19 13 19 19 18 25 27 27 27 27 28 28 29 32 33 33 34 35 37
41 50 55 60 57 57 53 50 54 57 54 52 54 50 38 41 44 39 38 38 36 37 38 35 28 23 18 21 24 21 23 25 26 28 30 32 33 34 35 35 35 36 38 40
36 14 48 54 56 56 52 45 41 46 52 55 56 56 53 46 42 39 37 33 38 37 35 32 31 30 25 24 28 27 26 28 30 32 35 36 37 39 40 40 40 41 42 44
51 23 12 52 52 50 50 49 36 42 46 53 56 60 54 48 40 43 37 36 33 31 30 33 35 36 31 27 29 28 28 30 32 35 37 39 39 39 40 42 43 45 45 46
61 54 29 14 39 37 39 48 41 43 46 50 54 50 44 42 47 39 36 36 31 27 27 27 31 35 32 31 32 33 30 30 32 34 36 38 39 40 41 41 42 44 46 48
48 53 48 32 25 39 39 39 39 43 46 42 47 54 47 37 38 35 34 36 32 29 30 30 31 35 35 35 36 34 35 36 37 38 39 40 40 40 42 44 46 47 49 50
55 48 47 18 25 38 29 26 40 37 39 40 51 39 39 39 39 36 39 39 33 31 33 35 36 37 39 39 38 38 41 43 42 44 45 46 45 45 45 47 49 51 51 51
51 42 40 42 11 38 34 33 30 26 31 45 38 42 34 38 42 42 42 41 36 36 39 39 43 43 42 41 42 42 44 45 45 44 45 45 45 47 49 50 49 50 52 54
54 48 43 36 22 32 23 30 31 33 31 30 35 47 46 50 50 52 54 56 43 41 43 46 46 46 47 43 41 40 39 40 41 43 45 48 51 51 52 51 52 53 55 57
45 50 49 43 6 15 22 29 33 29 35 30 26 31 31 41 46 44 52 49 50 50 51 53 52 46 43 42 42 42 43 45 46 49 53 57 57 52 51 53 55 57 58 58
34 49 54 40 29 16 10 17 26 35 36 34 33 34 31 24 30 40 43 48 48 49 51 50 49 47 43 43 43 45 53 54 53 50 46 48 49 48 48 54 56 60 61 62

GFSCGP_500_spd_084.txt.gz
Wind_Speed
41 39 26 18 21 26 31 23 23 18 25 25 20 11 16 9 7 5 7 7 9 9 8 10 13 9 2 8 12 15 14 16 22 19 14 14 19 22 24 25 26 29 33 35
45 40 23 26 26 29 30 24 21 21 23 23 18 13 12 13 7 4 7 7 7 6 7 7 10 12 7 9 12 13 13 12 11 15 19 14 19 21 26 22 27 24 24 29
42 36 31 31 29 31 30 22 25 24 28 27 20 15 17 18 11 6 7 7 8 4 5 8 7 8 9 8 10 9 9 9 12 15 15 14 17 22 24 30 26 24 22 24
38 35 31 34 33 30 30 22 27 28 32 29 22 13 16 15 10 8 6 9 9 6 3 6 7 5 3 8 12 11 13 14 14 16 17 18 16 16 16 17 17 14 14 12
33 26 29 35 26 32 25 30 31 31 33 29 20 22 16 17 11 12 13 12 11 9 8 3 2 4 3 3 5 6 7 8 9 9 7 6 8 7 8 8 11 13 12 14
35 31 32 34 31 35 30 34 35 32 33 29 17 24 14 13 13 12 9 11 11 10 7 6 5 3 2 3 4 4 4 4 6 7 9 10 11 11 12 13 13 13 14 16
38 34 32 34 34 37 34 34 38 34 34 28 23 24 17 15 11 12 8 10 11 7 8 10 6 6 6 2 1 2 3 3 5 6 9 11 13 14 14 12 12 13 13 14
40 38 35 34 33 34 36 37 39 36 33 33 34 26 13 26 14 14 11 11 13 13 12 11 9 9 8 8 8 6 5 5 5 6 7 9 11 11 11 11 12 12 13 13
40 43 36 37 34 35 38 40 35 36 37 38 38 29 20 25 17 19 17 13 15 14 13 14 9 9 8 9 10 10 8 8 10 12 10 9 8 9 10 9 9 11 12 16
41 43 43 41 38 38 41 39 39 43 43 41 40 33 23 24 27 20 21 18 17 16 20 18 18 16 15 17 16 14 11 12 11 11 12 13 13 13 15 14 14 15 17 18
48 47 45 44 43 42 43 44 43 43 43 44 40 36 23 27 29 27 23 23 24 18 19 19 18 19 22 23 24 22 18 17 15 16 19 19 19 19 19 16 17 18 20 22
52 52 52 48 45 46 48 48 45 47 46 43 41 39 26 24 32 32 31 23 23 21 17 15 15 18 19 17 15 21 22 21 21 23 24 24 24 20 19 17 19 21 23 24
54 56 55 53 46 48 51 53 51 51 49 49 49 46 29 24 30 32 33 27 25 24 20 18 14 17 14 14 14 16 20 21 23 24 22 24 24 20 23 20 23 23 25 26
58 58 60 60 56 47 54 50 54 54 55 52 49 46 35 29 30 32 34 32 30 28 29 23 15 13 15 17 17 17 18 22 24 23 23 20 18 21 21 23 25 27 29 30
58 58 59 62 62 54 56 57 55 58 57 56 51 48 39 35 29 29 31 33 32 29 30 27 23 15 15 18 19 23 25 27 26 25 25 24 24 24 25 27 30 31 32 34
64 57 57 60 57 57 55 58 57 59 59 57 54 52 46 35 35 35 35 35 33 30 28 29 29 26 19 17 19 19 19 22 25 26 26 26 26 26 28 31 33 34 35 36
62 56 45 49 49 52 47 55 60 59 62 59 57 54 53 42 39 39 38 37 36 34 32 30 31 30 26 24 20 23 24 21 24 28 29 30 29 30 32 33 35 37 39 40
33 56 48 45 43 48 43 47 45 58 59 58 57 52 52 44 40 43 42 36 40 39 39 35 33 31 27 27 25 22 24 26 26 28 30 32 34 35 36 37 38 39 41 42
28 42 58 54 32 18 37 42 43 45 53 53 54 53 52 48 45 44 49 39 33 31 37 34 29 27 29 26 25 23 24 25 28 29 31 33 34 35 37 39 41 43 45 46
29 34 55 63 62 20 23 29 41 40 45 46 50 53 47 54 48 42 47 43 37 30 36 34 30 28 24 25 27 25 27 30 32 34 36 37 38 39 41 42 45 47 48 49
25 24 39 45 59 44 13 15 39 41 36 47 47 46 45 47 39 41 40 39 35 29 35 40 32 27 26 26 26 27 29 34 38 38 39 42 44 46 48 48 48 48 50 52
18 22 22 38 40 37 30 17 38 34 34 43 45 43 44 40 39 47 43 39 38 36 33 31 34 33 30 29 30 34 42 41 44 46 46 46 46 47 48 45 44 45 48 52
21 16 26 37 27 36 35 21 18 33 20 33 37 39 44 43 47 48 47 43 40 37 39 37 38 36 33 35 36 38 38 42 47 49 45 42 41 42 42 44 47 52 55 58
21 21 25 33 40 43 41 38 34 38 29 21 29 34 34 44 38 38 36 25 26 37 43 40 38 35 36 38 41 43 47 47 44 43 44 42 43 46 50 54 55 54 52 53
18 21 20 33 36 45 27 10 27 34 31 29 24 26 29 34 31 34 35 39 44 44 38 42 43 49 49 50 47 48 47 44 44 45 45 47 49 54 55 58 53 52 52 54
20 19 23 29 36 43 31 20 6 26 28 32 32 27 31 32 33 31 32 39 41 42 44 46 46 45 45 44 43 47 50 44 44 48 51 56 58 56 56 54 52 54 57 58

GFSCGP_500_spd_087.txt.gz
Wind_Speed
45 48 44 33 31 32 32 30 23 21 31 26 21 13 13 11 16 23 20 14 9 12 11 13 17 11 4 9 12 18 16 15 15 14 17 25 15 23 28 32 31 27 22 26
51 51 37 33 35 35 32 31 21 20 29 28 23 13 15 11 15 23 21 19 8 11 9 11 14 13 3 7 12 14 17 17 18 21 14 15 17 17 22 26 25 27 28 27
46 43 39 35 36 37 32 30 24 25 30 29 23 14 14 16 16 21 24 21 11 8 11 7 10 11 7 2 4 8 11 16 16 22 20 19 14 18 19 23 22 22 28 27
42 36 34 35 36 37 36 26 30 29 32 29 24 10 10 16 18 19 25 21 13 8 9 6 7 9 5 4 4 4 4 8 14 18 17 18 17 19 23 26 28 23 27 24
37 31 30 30 31 35 29 33 34 35 35 30 22 16 7 14 16 18 22 22 16 10 10 9 4 6 6 3 4 3 4 5 8 11 11 11 10 8 7 13 20 25 21 19
33 29 31 31 31 33 34 33 37 35 37 29 19 15 4 15 11 21 21 21 19 12 10 11 5 4 4 4 3 5 5 5 5 7 8 10 9 8 8 9 11 12 13 13
35 33 31 30 31 34 36 33 37 40 40 25 24 24 11 12 14 18 19 14 14 10 8 11 7 6 4 4 1 3 4 6 7 7 7 8 8 9 8 9 10 11 11 10
34 37 37 34 32 31 33 35 39 40 37 31 33 27 12 14 18 16 19 15 13 9 12 8 9 9 7 6 7 6 5 5 7 8 9 8 10 11 12 12 12 12 12 13
34 34 38 38 37 36 34 38 32 37 40 39 37 28 16 15 17 17 22 21 17 16 13 9 8 8 8 5 6 8 8 9 10 9 11 11 11 13 13 14 14 13 15 15
35 33 34 35 39 40 39 38 38 42 41 40 37 32 22 15 15 18 22 24 21 20 17 15 14 14 14 14 14 15 15 12 12 10 11 13 15 16 15 15 15 15 16 16
38 39 34 35 36 40 42 43 42 43 42 41 40 38 24 19 22 20 25 26 27 25 24 17 19 18 20 18 20 21 20 20 16 14 14 14 16 17 17 17 17 18 18 17
40 42 41 39 36 36 42 44 45 48 45 45 42 41 30 21 17 23 21 30 27 28 31 29 22 20 17 18 16 15 19 23 21 20 19 19 18 20 24 25 26 24 23 23
42 42 42 42 39 42 40 43 48 50 50 46 46 46 33 25 20 23 24 26 30 28 27 30 28 19 15 16 15 11 13 20 23 23 22 22 21 21 23 24 22 23 23 25
45 44 46 45 45 42 47 48 49 50 53 51 49 47 45 29 27 24 27 30 31 25 25 26 24 20 16 17 18 16 15 15 19 22 24 23 23 23 21 21 23 21 23 26
48 48 50 52 52 51 47 48 49 51 51 54 51 49 49 36 32 23 25 29 33 30 27 24 25 21 21 15 18 22 22 22 23 25 24 24 24 24 24 23 24 26 27 29
51 53 56 57 56 55 58 53 50 54 55 58 57 54 54 46 34 32 28 30 32 33 28 25 25 21 22 22 19 18 21 22 23 21 21 23 25 25 25 26 26 28 30 33
47 46 48 55 53 55 58 55 54 53 55 58 59 56 51 50 43 40 34 33 36 37 33 28 26 26 21 25 27 22 19 20 23 22 22 24 26 26 27 29 31 32 34 36
32 27 26 32 34 46 51 51 54 52 50 55 58 57 53 53 49 40 39 39 40 38 32 37 31 30 31 28 31 28 23 21 21 20 21 23 26 29 30 32 34 36 37 38
30 29 24 26 29 31 37 37 37 39 42 47 51 52 53 52 48 48 30 41 43 39 33 37 37 32 29 30 32 29 26 23 22 22 21 24 26 28 30 31 33 35 37 39
29 28 28 30 32 32 30 38 27 30 32 38 45 46 49 53 54 47 38 40 40 43 42 37 31 33 31 33 31 29 27 27 25 24 25 27 29 30 33 38 40 42 45 47
23 25 27 29 32 32 35 39 30 24 27 31 37 42 45 47 48 50 44 42 46 46 41 38 40 31 34 37 30 30 30 29 26 28 32 36 41 38 39 42 45 45 44 43
20 23 20 21 21 16 19 36 41 31 18 34 35 39 42 44 44 45 41 39 39 38 38 40 34 37 35 34 39 36 33 32 32 35 37 39 37 39 43 42 40 40 39 41
16 18 17 19 22 12 19 33 46 44 18 31 38 35 37 41 45 39 41 35 36 40 42 46 39 41 38 40 40 41 38 40 39 44 40 39 40 40 41 42 43 44 47 49
12 15 19 21 17 30 34 27 25 37 30 22 26 23 35 36 39 41 37 35 41 44 51 50 46 42 47 47 46 46 37 39 44 43 42 39 39 42 42 44 44 49 53 56
12 12 14 21 21 25 31 28 25 25 30 23 32 22 24 29 35 35 40 36 40 49 54 46 42 37 37 39 42 43 45 47 51 45 42 42 44 48 46 47 50 54 57 58
15 15 16 13 18 22 22 24 21 23 20 22 28 23 27 21 25 33 34 38 37 37 32 31 34 38 38 43 41 43 41 43 45 36 41 46 49 50 52 56 61 63 55 52

GFSCGP_500_spd_090.txt.gz
Wind_Speed
46 50 49 41 35 36 38 35 30 31 36 31 24 18 12 20 21 16 14 14 19 19 12 15 19 14 5 6 14 15 15 16 14 10 9 14 16 20 41 31 40 40 44 41
47 47 47 44 41 38 42 37 29 32 36 36 26 18 13 19 21 20 16 14 17 17 12 11 16 14 8 5 9 14 15 16 13 13 18 15 12 16 28 35 33 35 37 30
46 45 43 48 43 41 42 38 27 35 39 37 26 22 18 18 22 23 18 15 15 19 13 10 12 12 10 5 7 10 14 17 17 15 14 15 4 10 13 25 34 37 35 31
44 42 39 39 43 42 41 35 34 36 41 37 29 21 13 16 23 23 19 15 15 18 15 11 8 8 8 7 1 2 8 14 13 14 19 18 11 13 12 12 16 22 25 22
43 34 34 36 31 33 36 38 37 40 42 40 29 24 17 18 22 20 21 17 13 15 17 12 9 5 6 6 5 3 1 7 13 15 18 21 17 17 17 17 21 20 18 19
38 36 32 34 31 31 34 38 40 39 41 43 26 24 17 18 20 20 21 15 11 12 16 10 8 6 2 3 3 2 2 1 2 5 8 11 13 10 11 11 16 21 21 19
34 36 32 29 32 31 33 33 34 38 42 40 29 29 21 12 14 18 21 14 10 12 13 7 8 7 5 3 1 2 2 3 3 3 4 5 8 9 8 7 7 8 10 10
35 31 37 32 30 29 30 34 32 36 36 35 35 35 21 17 21 18 22 17 12 15 16 14 8 9 9 8 5 4 5 5 3 5 7 8 8 8 7 9 10 11 11 12
27 36 32 37 37 37 35 37 32 36 41 39 39 36 21 16 19 18 22 22 16 19 21 14 13 8 10 9 8 6 5 6 10 10 10 11 12 12 12 12 12 14 15 15
32 28 31 35 35 37 39 39 35 39 40 38 36 30 24 18 17 20 19 22 20 21 23 18 14 18 15 14 14 13 13 13 9 12 15 15 15 14 14 14 15 17 18 18
31 29 30 30 27 32 40 40 40 40 41 37 37 32 25 22 20 19 17 21 21 23 25 23 16 17 19 21 21 18 19 18 17 15 13 14 16 15 14 14 16 19 20 20
35 35 33 30 30 27 30 37 41 45 44 42 41 38 33 24 20 13 19 20 23 26 26 28 23 22 24 25 23 21 15 15 17 19 18 18 16 14 15 17 18 22 23 24
35 35 36 34 32 36 37 33 35 41 44 46 46 43 35 30 30 22 19 20 24 27 28 30 27 26 24 21 23 19 11 12 16 20 21 22 20 19 21 22 25 24 26 25
35 36 34 33 35 36 38 39 38 39 40 44 46 47 44 37 32 25 23 21 25 26 27 30 30 28 21 18 16 16 14 13 15 16 20 22 23 25 25 25 23 21 24 23
37 37 36 35 34 37 37 39 40 43 44 46 44 45 43 42 35 34 31 31 29 26 26 28 28 27 27 17 19 16 17 17 17 18 21 23 23 26 26 26 24 24 24 25
38 38 38 38 37 37 39 39 42 43 44 49 51 50 47 45 37 35 31 33 33 30 35 34 29 29 27 21 23 23 19 18 20 21 20 20 23 25 27 26 26 26 27 30
38 38 38 39 39 40 39 40 43 42 45 50 52 51 48 49 45 40 35 33 34 34 34 35 32 29 25 24 24 23 24 25 23 23 23 23 21 20 21 24 25 27 29 31
37 37 38 36 36 38 36 40 46 45 47 52 54 55 53 54 49 47 40 39 39 37 37 36 35 32 35 30 31 25 28 27 25 26 26 25 24 23 22 22 23 28 31 33
34 34 31 31 31 31 29 28 39 44 41 51 54 54 55 54 54 53 48 43 42 39 38 40 39 37 40 40 33 38 34 37 28 29 29 29 26 25 25 25 25 28 31 34
27 27 27 29 27 28 28 29 29 28 35 30 42 45 44 49 53 51 45 45 43 45 43 44 40 39 38 38 38 42 37 42 32 33 30 31 31 31 30 29 30 33 36 38
22 24 27 28 28 24 27 30 33 29 34 36 34 34 39 43 47 48 44 43 44 42 44 41 35 42 38 40 39 44 43 42 35 34 33 32 34 37 36 36 41 35 36 43
21 23 25 26 27 23 22 28 25 28 36 37 32 34 31 37 38 41 39 40 39 41 44 42 41 39 41 43 38 43 43 44 41 37 36 35 38 40 41 43 38 36 42 45
20 19 22 23 22 18 19 18 18 21 26 32 30 26 31 37 33 37 37 37 36 36 39 42 41 40 42 41 42 44 49 46 42 41 43 43 45 47 51 42 40 40 43 46
19 19 14 17 16 18 12 20 25 23 17 22 33 15 25 32 30 32 36 34 35 35 38 35 38 38 39 39 41 43 54 51 46 46 49 49 51 49 46 53 53 47 46 50
17 14 10 8 12 24 22 25 25 31 14 16 24 35 31 36 29 28 33 34 35 34 33 35 36 40 43 45 49 51 55 58 55 55 55 53 49 52 58 58 51 50 52 55
18 17 12 8 13 14 15 24 19 23 26 13 16 20 17 24 21 23 29 26 31 35 36 36 39 41 49 52 55 55 59 59 57 51 48 50 51 52 59 60 58 66 64 60

GFSCGP_500_spd_093.txt.gz
Wind_Speed
47 47 46 46 45 41 35 37 38 29 29 42 33 27 27 23 25 28 19 21 15 12 13 15 20 20 21 16 12 13 14 14 14 13 11 9 13 23 23 33 41 47 47 43
47 47 45 43 44 46 42 41 42 35 32 44 35 31 27 23 24 27 22 21 18 12 11 15 17 17 18 16 11 11 12 14 13 13 13 8 11 15 20 35 41 38 43 45
44 43 43 45 42 42 46 44 43 35 35 47 41 33 26 24 25 29 25 20 21 13 11 13 15 14 14 13 11 12 12 13 14 13 11 16 7 12 17 22 32 37 36 33
43 41 45 43 43 40 42 41 47 44 43 44 38 35 27 23 20 29 25 19 20 14 10 12 13 11 9 11 9 9 10 11 14 15 12 13 12 5 7 14 31 36 35 36
38 39 40 40 33 35 37 35 44 40 45 45 41 36 24 25 23 28 25 18 20 14 11 11 11 10 7 8 7 5 7 8 10 13 12 14 14 13 9 10 10 13 27 31
37 41 40 40 33 33 34 33 38 41 41 47 44 33 26 17 17 21 25 18 18 15 13 10 9 9 8 6 8 6 5 6 6 4 9 11 13 15 14 13 15 14 14 15
33 40 35 31 35 33 35 31 35 36 35 43 33 35 26 18 17 15 24 17 15 16 15 12 8 11 9 7 7 6 5 5 5 4 2 1 3 7 6 8 7 9 14 14
32 36 36 30 32 32 29 31 32 31 22 22 24 37 31 23 22 24 23 19 16 18 18 13 11 11 12 9 9 10 9 7 5 5 5 4 5 6 7 7 6 7 9 12
31 31 36 35 36 35 33 37 31 31 19 22 17 19 24 27 19 20 23 23 17 19 19 14 9 11 10 6 8 11 11 10 11 10 9 8 8 8 9 9 8 8 9 10
27 25 25 30 34 40 36 34 34 34 35 34 30 26 19 22 22 22 21 22 20 20 21 18 14 11 10 6 6 11 14 16 16 14 14 13 12 11 11 10 10 11 12 12
26 23 26 25 26 31 36 41 39 35 33 24 17 12 17 28 22 24 20 24 23 21 21 19 16 15 14 12 9 11 13 17 19 20 17 13 13 13 12 13 12 12 12 13
31 29 29 26 26 26 28 34 36 39 33 26 28 29 14 26 23 27 27 23 23 22 22 22 19 18 18 20 20 18 13 13 14 14 19 17 13 13 14 15 15 15 15 15
31 34 29 28 29 28 29 31 31 38 39 35 27 24 31 31 18 14 17 22 26 26 25 25 23 21 20 19 22 21 17 13 12 8 14 20 19 17 18 19 19 19 20 22
32 32 30 25 27 36 35 29 34 33 32 34 36 35 33 32 27 26 19 22 26 27 29 27 25 23 23 24 24 25 21 15 12 11 10 15 21 22 22 23 23 22 22 24
33 35 31 28 31 32 31 33 36 35 35 36 33 35 31 33 34 31 29 30 28 31 31 29 28 28 27 25 24 26 27 23 18 15 14 14 16 20 22 23 25 26 26 26
31 30 30 30 28 30 32 32 34 36 39 41 42 40 40 39 35 30 28 32 32 31 36 33 31 30 29 26 27 27 25 25 22 18 17 18 18 20 21 24 27 28 27 27
30 31 29 28 28 32 31 27 30 32 34 37 39 39 41 41 38 36 32 33 31 33 32 35 37 35 32 29 30 32 25 23 22 25 23 21 22 23 24 24 24 25 27 29
30 31 31 30 30 29 28 28 28 29 31 32 33 39 41 40 39 37 33 32 35 38 40 38 35 37 37 35 36 34 30 29 26 26 25 25 26 26 26 28 28 27 29 30
33 32 30 29 30 27 27 29 28 28 26 31 34 37 39 43 42 39 35 33 41 39 43 40 41 39 39 41 38 36 40 41 34 32 31 32 30 30 30 31 31 30 31 30
31 32 31 29 26 24 23 28 24 25 27 27 33 37 43 49 48 44 47 48 46 41 41 45 43 45 43 41 43 41 47 42 41 44 33 34 37 34 32 34 34 34 35 35
24 24 24 22 24 24 21 22 23 25 27 30 33 37 43 49 53 48 45 44 49 35 37 40 47 48 48 46 43 44 40 43 44 41 41 44 43 43 37 36 37 39 40 41
16 19 20 20 24 22 21 20 22 24 27 32 36 36 39 43 47 48 44 45 42 41 35 40 45 49 50 48 45 45 46 46 46 46 47 48 46 49 42 40 40 42 44 47
19 19 18 19 21 23 20 20 23 24 22 27 30 37 42 41 44 42 37 37 38 39 36 36 44 49 49 46 44 41 45 48 49 48 49 49 53 55 49 48 45 49 51 52
24 22 23 23 21 20 24 22 20 20 21 25 22 24 30 38 35 38 36 35 36 36 34 33 37 47 52 49 44 43 46 50 49 49 49 53 51 51 54 52 56 57 59 60
26 26 23 19 14 19 21 23 27 25 26 33 27 23 20 34 37 30 26 37 32 34 35 33 37 40 47 49 45 46 46 50 49 50 54 53 58 62 59 64 60 59 60 67
27 24 22 14 16 12 10 15 18 19 26 28 31 21 18 16 21 24 26 32 33 34 35 36 37 39 46 46 43 44 45 48 48 52 56 57 61 60 66 66 64 70 60 61

GFSCGP_500_spd_096.txt.gz
Wind_Speed
40 43 47 50 51 47 46 44 42 36 27 19 30 40 30 27 24 22 24 34 21 23 19 19 18 18 18 20 17 15 9 12 14 12 10 12 10 12 16 26 43 46 38 36
45 44 45 50 50 49 47 44 42 41 40 37 36 40 37 30 27 24 23 24 27 25 17 18 18 17 16 16 16 14 10 11 12 13 9 11 4 7 18 19 29 48 43 34
45 42 46 47 48 48 46 45 41 43 44 41 42 46 39 29 29 25 23 29 24 27 16 17 16 17 13 14 13 13 11 11 11 11 8 6 15 8 5 15 25 36 41 38
45 44 45 45 48 42 45 39 38 39 44 46 36 48 41 31 30 23 21 22 22 21 21 16 17 18 11 10 11 11 11 11 10 12 13 7 5 13 6 9 18 29 39 35
42 44 44 46 45 38 40 31 33 36 37 45 46 50 43 28 25 21 23 27 22 17 20 17 17 18 11 9 8 8 10 10 12 10 10 9 7 6 7 6 6 12 24 25
45 45 42 42 40 38 33 27 35 33 32 41 37 48 44 32 19 15 20 27 17 19 17 18 17 15 12 8 8 5 7 8 7 9 8 9 6 9 9 8 7 7 8 15
41 46 44 43 39 32 34 34 32 31 36 38 31 36 41 24 20 11 21 23 16 15 17 20 15 13 13 11 8 6 6 7 8 6 5 5 2 4 8 11 13 12 9 9
43 40 37 43 35 29 34 33 30 31 27 27 27 34 26 21 27 23 28 22 20 14 17 18 13 13 13 11 8 8 6 7 7 6 4 2 3 2 5 7 6 7 12 13
39 39 33 36 40 32 29 33 30 32 22 17 19 20 23 19 23 30 24 24 28 18 19 18 13 11 9 9 6 7 8 8 9 8 8 7 4 5 6 7 9 7 8 13
32 13 23 36 30 32 34 23 27 30 35 33 17 16 20 17 30 25 21 24 24 21 21 18 14 13 9 8 6 3 4 8 11 13 12 11 10 8 7 7 7 7 9 9
24 23 14 22 28 26 32 40 34 26 29 32 33 28 19 18 20 25 24 16 26 24 19 18 16 14 12 10 11 9 9 9 10 13 14 14 12 9 9 9 10 10 10 10
35 27 25 10 21 27 29 28 35 38 31 28 25 22 22 30 28 27 23 21 22 20 22 22 20 17 16 14 13 11 11 11 12 13 12 11 15 12 10 10 10 10 10 10
32 30 29 28 22 16 21 18 22 32 35 36 27 23 23 21 20 21 27 29 27 21 24 25 25 21 19 18 15 15 12 12 10 13 12 10 15 16 16 15 14 13 13 14
37 33 30 25 25 31 28 28 30 28 27 30 39 31 28 28 17 18 19 19 24 21 25 25 27 26 24 23 21 18 15 15 13 12 15 13 14 19 20 19 19 20 20 19
41 39 32 29 30 29 29 29 27 28 29 30 24 33 40 28 31 24 27 26 23 23 23 24 28 29 30 26 23 21 18 19 19 15 16 17 17 17 17 18 20 21 21 22
38 42 34 31 31 29 28 26 27 31 35 36 42 32 30 29 27 26 24 36 30 31 28 30 31 34 31 30 27 25 25 23 21 18 17 19 20 20 20 21 22 24 24 26
41 37 31 31 28 27 26 23 27 27 30 34 35 32 35 34 33 33 30 30 37 40 35 31 31 35 36 32 30 31 28 28 23 23 21 20 22 20 22 24 24 24 25 25
32 29 30 23 25 28 22 22 26 26 25 27 31 31 31 35 35 32 34 33 34 37 35 38 38 38 37 39 39 35 34 30 27 27 26 26 25 23 23 24 25 25 27 30
31 28 27 27 25 25 24 22 24 24 26 27 27 27 28 29 24 24 28 29 31 33 35 40 40 40 39 36 37 36 43 40 34 32 33 32 29 29 28 27 29 31 30 32
33 31 28 25 25 22 22 24 22 21 24 25 25 25 24 25 27 25 26 26 29 31 32 37 41 40 40 36 39 37 39 39 39 38 37 37 39 40 33 32 32 35 36 37
24 26 26 25 27 23 20 26 18 22 26 27 29 27 28 27 30 29 30 34 34 36 36 36 35 43 42 40 43 43 45 44 40 40 40 41 43 43 45 40 35 41 46 42
18 22 25 22 23 21 21 25 25 24 23 24 25 24 23 28 31 35 36 38 42 41 41 39 43 44 44 47 47 47 47 46 47 46 48 47 47 47 41 44 45 46 48 50
12 14 13 16 15 17 20 23 24 26 24 23 23 24 23 22 33 38 42 42 43 44 44 43 43 44 43 46 52 52 53 51 50 49 50 51 52 49 50 46 50 51 57 58
17 13 14 8 12 15 17 18 24 24 26 25 25 23 23 27 31 34 39 45 39 40 41 41 42 47 50 54 55 55 55 55 54 52 52 56 56 54 54 53 56 56 51 54
24 18 21 23 25 21 22 22 23 24 23 20 23 28 29 32 31 32 31 31 35 37 35 37 40 42 47 52 54 56 56 54 53 53 52 53 56 57 56 58 59 56 64 58
25 21 23 18 22 22 19 19 18 18 24 23 26 32 35 37 29 31 25 25 24 30 34 33 33 38 40 44 48 49 53 56 54 53 54 54 56 59 60 61 60 62 62 64

GFSCGP_500_spd_099.txt.gz
Wind_Speed
34 41 44 37 36 34 39 42 42 43 40 39 41 41 32 28 36 28 25 25 24 27 15 12 16 18 22 23 18 18 15 11 10 5 6 4 5 5 11 20 24 45 46 31
37 42 32 33 35 39 42 46 46 45 42 38 44 44 38 36 37 26 22 23 23 29 23 12 15 18 20 22 16 16 15 9 8 7 5 2 4 5 13 22 30 42 47 42
34 32 31 35 37 41 42 45 47 46 43 46 46 44 45 44 37 26 22 21 25 29 23 15 16 19 20 19 15 13 14 10 7 5 4 4 4 7 9 20 23 32 44 40
33 35 33 36 38 41 42 42 42 43 47 50 37 47 46 49 42 37 29 26 26 26 20 13 18 20 19 18 13 11 11 8 9 1 4 5 3 6 3 10 16 25 35 42
34 32 35 37 39 41 44 41 39 43 47 48 42 45 44 41 44 31 20 20 21 25 18 12 21 20 17 16 12 9 9 6 6 6 1 4 7 3 4 3 11 25 22 28
35 33 35 37 39 39 39 41 41 35 44 46 38 36 45 35 38 32 19 20 19 21 12 14 21 18 15 14 11 9 7 7 5 6 5 5 6 9 9 7 1 1 13 29
31 33 33 36 40 42 43 37 41 38 44 43 31 32 37 24 30 34 24 23 16 20 14 16 16 15 13 11 10 11 8 7 6 6 4 7 6 7 10 9 10 11 5 2
35 38 36 38 42 43 44 38 41 40 39 30 20 32 19 13 23 20 21 26 26 23 14 15 15 14 14 11 7 9 9 6 6 4 4 3 2 3 4 5 7 12 12 7
34 36 36 33 36 44 42 43 37 29 28 25 23 22 19 21 20 30 19 24 28 23 19 16 16 15 14 10 6 6 5 2 3 4 3 2 2 2 2 3 4 2 8 16
32 31 30 31 36 39 33 31 32 32 31 34 25 17 19 26 30 34 26 23 29 25 22 23 18 17 17 12 9 8 7 4 4 4 4 4 5 5 5 5 4 4 7 10
29 32 27 31 31 36 34 39 37 33 31 33 31 27 19 29 29 33 30 23 22 23 30 22 21 21 19 14 13 11 10 9 8 8 8 5 9 7 6 7 7 7 8 10
32 27 30 27 29 27 27 35 34 29 29 29 26 30 31 14 15 30 28 32 31 29 28 23 21 22 21 19 16 15 14 12 10 8 8 8 6 10 8 7 9 9 9 10
33 27 33 30 24 27 28 24 25 44 39 31 27 29 33 27 18 27 33 34 31 34 29 22 24 22 22 22 21 19 16 12 10 8 7 7 6 12 13 13 13 12 11 11
36 34 34 36 29 20 31 33 29 30 34 35 37 25 28 28 24 26 22 24 25 20 22 18 24 26 24 25 24 23 21 19 14 12 10 10 10 11 16 17 16 15 16 17
30 32 39 33 34 29 23 34 31 32 27 27 30 37 37 27 22 15 20 25 22 24 28 31 15 14 28 28 28 25 24 23 18 16 15 15 15 15 15 17 21 22 21 22
42 37 39 35 27 29 26 25 29 26 19 25 23 23 35 42 33 28 28 29 25 23 29 29 29 28 33 27 27 27 26 24 23 18 18 18 19 19 19 20 20 22 22 23
41 39 37 37 31 27 32 25 25 28 31 31 28 27 31 28 36 41 34 30 32 32 30 30 30 29 30 30 30 29 28 28 25 24 20 18 19 20 21 22 20 22 22 23
43 41 34 30 40 33 21 29 32 31 33 34 33 29 33 38 43 38 38 31 31 32 32 34 35 36 34 32 30 30 28 25 26 27 26 23 21 24 23 22 23 23 24 26
37 34 36 37 33 24 28 31 28 27 28 28 27 23 27 31 36 31 30 33 35 39 33 37 40 45 37 35 34 34 31 31 30 29 31 30 29 28 29 25 23 25 27 28
29 27 30 29 30 26 26 28 26 26 26 26 24 24 22 24 27 28 29 29 34 40 38 37 34 36 42 42 40 38 39 35 37 38 37 39 37 32 32 32 31 34 34 36
22 25 25 26 27 28 24 23 24 25 25 25 25 24 23 24 24 22 24 28 29 30 32 37 38 37 40 45 42 39 42 41 40 39 38 40 40 37 37 36 38 37 37 40
20 22 24 34 31 25 28 25 23 22 25 28 29 28 28 27 27 27 29 31 30 30 31 33 34 37 38 41 44 45 44 45 42 41 42 42 42 43 43 43 41 42 45 40
16 12 12 19 18 18 27 30 27 27 30 30 28 26 22 26 29 26 27 29 30 33 35 37 38 40 43 45 49 52 51 52 52 47 47 48 48 48 48 49 50 49 53 49
13 8 15 15 13 17 20 23 24 24 26 26 23 20 24 27 28 31 32 33 31 32 36 40 45 47 48 50 53 55 56 57 59 58 51 55 55 53 53 53 54 54 53 53
15 12 10 18 13 19 21 21 19 23 25 25 19 27 28 30 30 32 34 31 34 33 28 29 31 38 43 48 53 59 63 64 63 65 64 63 61 60 59 57 57 57 56 50
25 18 12 22 11 12 22 21 21 24 21 17 23 27 27 30 33 34 34 36 31 26 26 29 38 30 39 42 44 51 59 59 57 55 61 64 61 60 59 60 58 53 55 54

GFSCGP_500_spd_102.txt.gz
Wind_Speed
44 46 47 43 38 37 37 36 35 34 35 37 38 36 37 40 42 44 44 35 19 25 21 13 13 17 16 18 20 22 22 19 13 10 12 12 8 5 5 4 13 45 46 43
43 46 42 39 41 38 36 36 34 35 36 39 39 38 40 40 43 45 41 33 25 28 22 15 10 15 16 17 19 20 20 18 13 12 11 13 9 5 3 10 13 37 47 53
39 37 36 39 39 39 38 37 34 36 36 39 43 43 42 40 42 43 37 24 29 29 24 15 13 13 17 16 18 17 17 17 13 12 11 11 9 6 3 13 23 24 42 48
41 38 37 37 36 38 34 37 38 38 39 41 44 45 42 41 44 44 37 34 30 31 23 17 12 16 18 15 16 15 15 15 12 10 13 12 11 3 3 15 22 33 36 44
42 38 35 35 33 37 33 37 38 38 40 42 44 47 42 36 40 44 39 41 33 38 27 17 11 16 20 14 13 13 13 13 9 9 11 12 14 7 5 8 20 32 36 43
45 41 39 38 38 39 38 38 39 41 43 45 44 41 36 34 33 37 41 43 32 38 24 19 12 17 16 14 11 13 12 12 8 6 6 7 11 12 9 9 13 14 23 24
42 39 36 37 37 36 36 39 41 43 44 42 37 38 34 34 30 36 38 37 36 28 21 17 14 15 20 16 10 12 13 13 11 5 3 4 8 11 13 12 13 13 16 26
42 41 40 39 39 36 32 35 40 40 38 32 31 38 31 30 27 28 31 31 34 29 22 15 14 22 20 15 12 10 12 12 13 8 6 4 5 7 11 15 16 17 17 16
41 42 39 37 35 34 34 40 38 36 38 35 35 33 29 22 19 22 26 24 33 25 23 16 18 23 20 15 14 13 12 11 8 6 8 9 8 8 9 9 11 13 19 19
42 41 38 34 33 33 36 32 37 39 40 37 37 32 30 26 27 29 29 33 32 22 24 25 21 22 19 17 16 16 15 14 10 7 6 9 14 13 13 12 11 11 11 18
37 35 32 29 31 32 35 39 39 38 37 35 36 30 24 27 36 36 36 32 35 36 37 34 26 25 25 23 20 19 19 18 13 10 7 5 9 14 14 12 10 9 10 15
37 33 33 27 27 27 34 37 38 42 39 34 30 25 34 33 42 26 39 39 38 39 38 33 28 27 28 26 24 23 22 22 17 14 9 6 5 12 11 11 11 10 11 12
41 34 32 26 30 31 42 36 38 42 37 36 31 23 29 38 35 17 27 33 40 39 32 32 36 34 33 30 28 26 26 26 21 17 13 10 7 10 14 12 11 11 14 16
38 37 39 36 33 35 35 42 41 42 38 34 34 30 29 25 23 30 24 24 37 44 44 35 31 35 36 32 31 29 29 27 24 19 16 13 12 11 15 17 15 14 15 17
24 39 35 32 34 35 33 37 43 45 43 38 34 28 30 35 32 19 27 21 39 46 43 42 38 39 40 34 31 29 29 26 25 24 20 18 15 15 14 18 21 21 21 21
31 24 32 31 32 32 29 36 34 38 30 26 30 38 46 41 34 29 13 21 37 21 44 37 33 32 26 34 32 31 31 29 27 23 22 23 18 18 19 18 18 20 22 24
36 21 25 28 32 30 30 25 24 28 30 28 27 28 45 40 39 35 30 18 19 23 29 23 23 18 24 27 22 29 33 35 32 25 22 23 21 20 22 20 19 19 21 21
41 41 27 28 29 31 31 29 25 27 27 31 27 24 25 29 32 33 39 36 30 29 29 22 24 25 25 27 29 28 31 35 32 29 27 25 24 25 24 25 24 24 22 21
37 37 36 33 34 32 28 30 30 29 30 28 25 24 29 29 32 37 38 38 32 31 29 31 31 32 35 38 31 32 35 32 28 27 27 30 31 31 30 29 27 27 27 25
37 36 42 44 40 35 28 36 29 27 28 27 27 30 30 35 39 39 36 30 32 34 33 32 35 38 37 40 40 35 33 31 34 32 30 33 37 35 35 35 34 33 33 32
27 33 35 33 32 31 30 31 24 30 30 29 27 25 29 31 29 30 34 35 31 35 37 37 36 39 43 38 37 35 34 35 34 38 39 38 38 44 42 45 40 40 38 38
14 19 25 26 27 27 31 25 28 28 29 27 27 28 25 26 26 26 28 31 33 33 32 34 35 37 39 39 42 43 42 39 38 37 39 40 44 49 46 44 44 43 44 43
21 20 19 17 14 22 27 24 26 25 25 25 23 22 26 29 30 32 34 34 34 33 34 35 36 38 41 43 44 45 46 45 45 45 44 44 46 51 50 50 41 41 43 45
13 13 21 23 23 30 28 25 23 27 27 25 23 26 28 28 29 30 31 32 33 34 35 38 41 43 43 44 46 48 49 50 50 52 54 54 54 53 54 54 54 51 51 51
8 15 14 15 14 19 22 17 25 30 25 22 23 22 24 26 27 28 30 31 33 35 36 39 42 43 44 46 48 52 55 57 59 60 61 63 63 63 61 60 59 57 56 55
10 7 7 13 19 20 19 17 20 22 25 19 18 22 23 23 22 24 27 29 30 33 33 34 37 40 40 39 37 47 54 59 63 63 65 66 68 68 66 60 60 63 58 57

GFSCGP_500_spd_105.txt.gz
Wind_Speed
47 50 51 50 45 44 46 47 46 44 45 43 43 38 32 34 37 37 38 37 34 33 39 28 21 17 21 21 22 20 17 17 20 19 18 18 18 17 13 7 16 13 30 42
48 47 47 47 46 47 49 49 47 46 44 45 42 38 36 35 35 37 38 37 33 34 32 36 27 17 21 24 21 20 16 15 18 18 20 18 18 17 12 15 11 28 31 48
48 43 46 48 47 48 48 47 47 44 42 44 47 45 37 36 36 37 40 39 32 33 32 27 25 21 21 23 21 19 15 15 16 16 20 17 18 16 14 14 19 23 42 50
47 43 45 44 42 46 47 45 46 46 50 49 44 47 39 36 35 36 39 40 33 31 33 27 23 21 22 22 19 17 14 14 15 15 19 16 19 18 16 16 26 18 40 46
50 47 44 44 37 42 39 41 42 45 48 48 42 44 38 35 33 30 37 40 38 35 40 35 28 26 25 23 19 16 14 15 13 13 17 15 18 18 13 15 19 23 21 45
51 53 47 44 43 41 43 44 45 47 47 47 41 43 36 34 28 29 35 42 39 38 45 38 32 29 29 22 18 14 14 16 13 12 14 14 15 18 13 15 16 27 21 36
55 54 52 50 48 45 45 45 46 47 49 45 39 40 33 33 25 29 34 40 37 39 43 26 28 27 30 22 17 13 15 16 14 14 14 12 11 15 16 11 10 21 24 33
58 54 52 50 48 47 48 47 47 48 47 43 40 39 34 26 25 29 30 33 31 37 38 25 30 22 26 20 15 15 16 14 12 12 13 13 9 13 16 14 9 15 26 25
49 54 53 51 48 49 45 48 40 43 44 44 41 39 34 24 23 28 28 29 33 33 36 32 30 28 27 19 17 18 19 15 13 10 9 11 12 10 11 15 20 18 15 21
44 49 50 49 50 49 49 39 40 42 44 42 41 39 33 24 24 28 28 25 32 30 34 37 35 33 28 20 19 19 20 18 16 14 12 11 14 14 13 13 13 16 21 21
45 47 46 47 47 45 45 43 44 43 41 39 38 38 28 24 27 31 34 29 33 33 37 39 39 33 30 24 24 23 22 20 19 17 14 12 12 16 16 14 13 12 14 18
44 45 45 42 39 41 41 40 42 44 42 40 40 36 31 28 31 33 30 32 36 30 40 42 41 36 32 28 29 27 24 22 23 21 17 14 13 14 17 16 13 12 11 12
35 39 38 36 34 37 38 40 39 41 38 40 39 38 29 27 31 32 39 26 41 39 41 43 44 39 36 32 32 31 29 28 27 24 21 19 16 14 17 21 17 14 12 11
22 26 37 35 33 29 30 35 36 39 43 44 45 42 26 28 22 36 41 43 28 39 47 47 44 43 37 35 35 36 34 32 31 29 24 21 20 16 17 22 22 21 19 17
16 28 22 36 37 34 27 29 36 39 42 43 43 38 32 34 37 31 26 20 21 25 44 47 44 44 43 42 39 37 37 37 35 32 27 25 23 20 17 17 23 23 22 22
28 23 22 37 34 36 33 21 34 40 40 36 37 38 34 38 39 37 27 21 18 31 31 51 48 42 42 42 37 38 39 37 34 33 31 31 27 25 23 19 18 21 25 25
36 25 16 8 23 13 21 37 25 36 39 41 34 27 33 37 38 30 31 30 25 21 19 50 47 44 40 38 41 40 40 37 35 30 29 29 28 29 27 26 23 21 22 24
35 35 19 13 18 19 13 22 20 29 32 19 24 34 28 35 32 32 35 41 34 24 23 24 37 42 41 33 29 34 32 36 29 30 33 31 28 28 31 29 26 26 25 23
31 27 35 28 14 16 12 18 22 21 21 24 18 26 15 24 23 24 27 32 28 29 30 25 20 33 33 27 25 28 32 25 26 28 31 33 37 32 32 31 30 28 28 28
28 27 29 32 29 21 19 18 22 18 22 18 18 18 20 21 24 27 25 25 26 30 30 29 26 26 28 32 38 32 32 34 36 36 36 33 27 31 36 35 33 33 34 34
25 28 32 27 33 30 27 25 23 23 25 20 19 19 20 24 26 27 26 29 31 29 27 27 34 35 35 33 34 37 37 41 42 43 41 39 37 39 40 40 43 39 40 41
13 21 28 27 29 28 30 29 28 28 30 24 22 21 23 24 25 27 29 28 29 29 30 27 29 32 35 39 37 37 39 40 35 41 42 41 41 41 44 43 39 43 47 45
13 19 20 26 21 20 25 27 27 25 27 24 25 23 24 27 26 26 28 29 25 26 27 27 28 31 32 35 39 39 39 38 39 40 41 43 43 42 44 46 49 45 47 48
6 14 16 21 23 23 28 25 24 22 27 22 19 18 22 24 26 29 28 29 30 31 32 32 32 34 34 36 36 39 41 43 43 43 44 44 45 47 48 49 52 53 53 54
5 9 17 21 23 23 24 19 23 24 19 25 21 21 23 26 29 32 33 32 32 32 32 33 36 39 41 43 44 45 46 47 48 49 51 53 53 55 57 58 59 59 59 61
11 15 16 17 15 15 18 23 23 24 27 25 23 23 26 27 26 25 25 26 28 29 30 31 33 36 39 40 42 45 47 49 53 54 56 57 58 61 64 65 65 66 67 64

GFSCGP_500_spd_108.txt.gz
Wind_Speed
49 49 48 48 48 48 49 49 49 49 50 52 49 45 45 46 46 48 45 42 39 37 33 28 25 26 29 32 23 27 22 23 23 18 19 21 21 20 21 21 22 23 19 32
53 50 45 47 48 51 53 53 51 50 50 51 48 45 48 49 45 43 44 44 42 39 36 28 22 29 31 38 26 33 24 24 21 18 18 21 21 21 20 20 17 24 17 20
56 48 48 48 48 49 50 51 52 50 47 45 50 46 47 46 44 43 41 40 40 38 38 27 24 28 26 35 30 32 25 23 19 18 17 20 22 20 19 19 19 22 19 18
53 49 53 52 48 50 50 47 48 47 46 47 46 50 48 44 39 40 39 39 40 40 37 30 25 27 25 31 27 31 25 22 18 17 16 19 21 19 19 17 21 22 24 22
52 54 54 53 44 45 43 43 42 44 46 48 48 50 51 44 42 39 41 41 41 39 38 34 29 27 24 27 29 29 25 23 19 15 16 18 19 18 19 16 18 22 21 25
57 59 61 53 51 46 43 42 43 45 45 50 46 46 45 43 41 36 39 39 40 38 38 32 35 28 27 34 32 28 27 23 19 14 16 17 17 18 18 18 17 18 18 25
52 57 60 59 56 52 49 46 44 46 48 46 48 45 41 39 39 37 34 36 37 36 39 33 31 31 30 34 33 30 29 22 17 15 16 18 16 17 15 17 16 15 19 16
56 58 57 61 59 56 50 48 44 44 46 45 46 43 39 41 38 36 36 34 34 36 37 31 33 32 36 33 32 32 28 22 16 14 16 15 15 15 13 15 15 11 12 15
49 56 56 58 56 52 52 53 43 41 42 45 46 44 41 40 35 35 37 35 29 33 32 28 34 32 31 35 32 32 29 22 16 14 15 14 12 14 12 11 15 12 8 10
40 46 44 51 56 55 52 48 46 43 46 48 47 44 43 40 31 33 36 33 24 27 29 31 30 31 36 36 35 32 30 24 20 18 17 13 14 12 13 11 11 11 15 14
31 37 31 34 46 50 51 52 51 47 45 45 44 43 41 39 33 35 36 35 25 26 27 28 31 36 35 36 37 32 30 26 24 21 19 16 14 13 13 14 11 11 11 12
30 38 34 32 34 41 46 48 45 47 44 45 44 43 44 41 31 30 34 32 28 29 27 26 33 35 40 40 41 34 33 28 25 23 22 19 17 14 13 14 12 9 10 10
33 31 37 31 34 36 39 41 42 43 43 44 44 41 40 38 30 30 34 33 34 30 27 29 37 41 42 42 39 38 35 31 28 26 26 23 19 17 15 14 16 14 12 12
9 26 31 34 34 34 37 37 36 37 41 42 43 41 42 36 32 31 28 33 32 31 27 35 38 43 45 41 40 42 37 34 30 29 28 26 23 21 18 18 19 19 17 16
5 4 7 16 34 34 30 32 34 35 37 40 42 42 41 33 27 30 29 24 26 34 32 36 37 49 48 45 45 40 38 36 33 32 30 29 27 24 23 22 23 25 24 22
3 3 2 15 29 30 35 26 28 32 34 37 38 40 39 34 36 35 32 31 24 26 26 25 47 53 49 48 47 41 40 41 38 37 35 33 30 27 26 26 24 27 28 27
14 8 8 7 18 32 34 39 23 25 26 28 32 32 30 29 33 35 31 24 26 27 24 17 28 49 47 47 45 42 41 44 45 41 39 39 35 32 31 30 29 28 29 30
18 19 16 16 5 21 29 32 29 30 29 31 28 26 23 26 25 32 35 34 31 31 28 19 15 20 42 51 44 44 41 37 37 42 45 43 39 35 34 37 35 33 33 33
18 23 23 18 14 6 16 12 9 23 15 28 20 16 15 23 18 18 24 26 25 32 35 29 25 22 29 49 57 43 38 41 28 41 31 36 31 29 29 30 34 36 34 33
14 18 23 21 22 12 14 11 8 6 10 6 14 16 11 20 6 13 16 19 20 19 23 20 19 23 20 25 38 38 47 33 34 31 40 36 24 28 30 29 36 38 34 36
17 20 23 19 28 21 10 10 8 8 7 9 11 17 14 15 16 17 18 19 20 19 16 17 15 22 20 21 21 41 37 36 36 39 33 34 33 35 33 31 31 32 32 40
18 18 15 20 29 26 22 16 15 11 10 14 14 16 14 17 16 16 15 17 19 20 18 16 17 17 23 25 25 24 28 30 33 31 34 37 39 39 38 38 39 39 42 36
2 13 15 14 21 21 23 19 17 15 16 18 19 22 19 18 17 16 17 17 19 18 18 16 16 15 18 21 24 26 28 29 33 35 34 36 40 41 42 44 44 44 44 43
13 6 7 14 19 20 19 18 17 12 14 14 18 18 21 21 21 20 18 21 20 20 21 19 18 19 19 21 24 24 25 27 29 31 32 35 37 39 40 42 44 47 46 44
14 8 10 9 14 22 20 18 15 12 16 18 21 19 19 20 19 19 18 20 22 24 23 25 26 28 28 27 28 30 31 32 34 36 37 37 38 40 43 45 47 49 48 49
17 8 8 8 15 19 18 16 16 20 20 14 19 20 23 20 20 21 22 22 21 21 24 25 25 25 25 26 27 30 33 36 38 41 44 45 45 46 48 50 52 54 55 56

GFSCGP_500_spd_111.txt.gz
Wind_Speed
50 50 44 48 47 46 48 49 49 50 53 53 50 48 49 46 46 48 49 49 46 45 43 42 39 33 30 26 27 27 26 27 30 30 27 27 24 20 20 23 24 20 21 23
53 53 47 49 49 48 49 49 47 51 51 53 49 48 50 49 47 47 49 48 46 43 42 44 42 35 35 27 26 29 30 31 33 35 29 28 24 19 20 23 22 21 19 24
52 43 51 52 52 51 49 49 48 49 49 48 51 47 48 48 51 47 48 47 45 45 43 44 41 37 35 29 26 28 30 31 35 34 30 28 24 20 19 21 21 21 21 24
58 46 51 53 52 52 51 48 48 47 47 46 44 51 51 48 47 45 44 43 41 40 42 40 40 37 35 33 29 28 29 32 35 34 30 28 23 19 18 18 20 21 21 23
57 57 54 54 47 52 49 48 46 46 46 46 45 48 51 48 45 42 40 39 38 37 37 39 39 37 37 34 30 32 28 31 31 35 30 29 23 18 18 17 18 20 18 18
59 56 57 52 56 52 49 52 51 48 47 50 45 45 48 49 46 40 37 38 39 43 44 42 40 38 36 33 32 31 28 30 32 31 30 29 25 19 18 16 17 20 17 16
54 57 54 51 56 56 54 54 51 48 50 50 47 46 44 44 42 38 36 37 42 45 43 40 41 37 36 37 37 36 32 32 34 29 30 30 25 21 18 15 15 16 14 14
44 49 54 52 53 57 56 53 53 50 50 46 42 43 41 40 38 36 31 33 37 39 41 40 40 37 36 35 40 37 34 36 36 31 31 29 23 19 18 13 12 12 11 12
29 35 47 51 51 54 56 56 50 45 42 44 45 42 40 38 36 36 32 35 36 37 40 40 39 36 31 35 37 35 35 37 36 32 30 28 21 15 18 14 11 9 10 10
22 24 33 43 48 50 51 48 46 44 44 46 47 44 40 36 35 35 30 34 38 35 34 38 37 31 30 35 35 37 35 38 35 31 32 27 21 16 16 17 13 8 7 10
27 26 23 26 31 40 46 50 51 46 43 43 43 44 39 36 36 34 31 33 37 35 30 33 33 30 32 33 35 37 35 38 31 33 32 27 23 18 17 16 16 11 7 7
6 14 20 22 20 19 33 37 34 45 45 44 42 41 38 36 34 35 32 32 35 37 33 31 33 32 38 35 36 38 40 39 32 35 32 28 25 22 18 14 16 15 10 10
13 21 18 22 27 24 19 27 38 37 38 39 40 39 37 37 38 37 35 33 35 37 32 29 34 33 38 34 40 45 43 39 34 35 32 29 25 24 19 16 13 15 13 11
12 2 21 22 29 29 29 17 22 33 38 37 38 37 38 38 38 39 36 33 34 36 33 31 35 36 34 31 38 45 44 38 36 35 32 30 28 25 22 19 14 13 15 12
12 11 14 27 27 29 27 25 24 20 24 31 30 34 36 36 36 36 32 33 31 33 32 34 34 34 34 30 40 43 44 39 37 37 35 33 29 26 25 23 20 15 17 17
8 8 12 12 29 30 27 23 19 24 27 27 28 29 32 35 37 32 28 28 28 29 22 24 32 31 29 29 44 48 46 41 40 41 38 36 31 28 28 27 25 22 19 22
13 7 7 9 5 22 23 25 23 21 25 26 26 27 26 29 31 29 31 32 30 27 27 23 25 23 26 43 47 49 45 42 40 40 40 39 36 34 31 30 27 25 24 23
11 10 9 11 5 6 18 22 24 27 28 26 23 23 25 25 24 25 28 29 30 25 27 31 31 24 26 38 50 52 47 44 41 37 40 39 38 40 34 32 29 28 28 28
9 11 10 9 5 6 15 19 17 18 11 19 21 16 16 18 21 22 24 20 23 24 28 28 32 27 20 28 42 47 45 44 42 41 43 40 33 34 39 38 33 32 33 35
2 4 9 15 8 6 9 21 18 17 16 8 7 19 13 9 13 15 13 15 23 23 28 31 32 26 27 24 28 50 50 48 46 47 41 32 26 27 27 26 27 29 31 28
4 5 8 16 13 8 9 9 11 15 15 12 10 13 15 15 20 19 16 14 16 14 17 20 21 23 24 20 22 37 44 61 49 45 52 38 38 42 41 37 31 34 34 30
8 7 8 12 15 11 17 10 6 9 11 14 15 6 10 10 12 12 11 9 12 16 15 14 11 16 18 19 20 16 26 32 50 46 29 33 37 35 34 35 28 30 33 34
7 5 9 13 17 14 19 17 8 8 8 6 9 10 9 9 8 10 15 10 8 10 11 10 11 11 9 11 14 17 16 19 26 27 31 31 30 31 31 29 32 33 36 38
14 10 8 14 22 21 20 22 15 14 11 10 7 9 13 12 14 15 12 13 11 11 9 9 12 11 13 10 12 13 13 14 16 19 22 28 34 35 33 35 37 40 44 46
6 4 3 10 19 18 24 20 17 18 13 12 14 13 15 15 13 13 13 13 12 11 12 15 14 13 14 16 16 16 16 19 20 20 21 22 25 29 30 31 32 34 39 40
9 6 3 5 8 10 21 22 22 23 22 20 14 17 17 17 15 15 15 16 16 15 15 15 15 16 16 17 19 20 23 25 25 28 29 30 34 36 36 38 40 41 42 44

GFSCGP_500_spd_114.txt.gz
Wind_Speed
44 49 46 47 50 46 52 52 53 52 56 56 54 52 51 50 48 50 49 47 49 49 46 44 46 44 41 35 36 34 32 28 25 25 29 29 32 31 28 25 25 26 23 22
47 47 39 51 50 50 51 51 48 53 54 57 54 53 53 53 51 49 49 49 48 48 48 47 47 44 41 38 34 35 36 31 26 28 30 30 32 30 29 27 26 26 23 21
54 42 48 48 52 53 52 51 52 52 52 54 52 53 53 52 52 52 51 48 47 48 47 46 46 45 41 39 35 36 38 36 31 31 29 31 32 31 29 27 26 27 23 21
56 54 55 54 51 50 54 53 56 54 50 49 47 49 45 51 51 51 49 49 46 44 43 43 44 46 43 40 38 37 39 39 37 34 31 32 32 30 29 27 26 27 24 21
55 57 62 59 50 53 49 52 54 53 52 49 47 49 52 50 47 47 45 44 41 41 41 41 43 45 42 38 37 36 40 42 40 36 32 33 33 31 30 28 26 28 24 21
58 56 61 59 58 58 53 53 50 51 52 55 47 48 50 49 46 44 44 40 41 40 39 39 41 40 38 36 37 37 40 42 43 37 35 35 33 31 31 30 28 27 25 21
35 50 55 60 60 57 57 56 54 52 55 54 45 51 48 48 45 40 40 37 37 40 40 40 42 41 38 37 40 37 41 42 44 37 38 37 34 31 32 31 30 27 24 21
25 23 38 54 61 56 58 56 55 55 52 51 46 50 46 43 44 40 35 28 33 38 40 42 44 44 39 39 39 37 41 42 44 39 42 40 33 30 32 31 28 25 20 20
15 13 12 27 48 52 51 52 50 37 27 31 36 49 46 43 43 41 39 29 32 34 37 38 39 40 38 39 39 37 40 44 46 44 43 40 33 30 31 27 23 21 18 20
10 16 6 11 26 38 43 44 41 38 41 48 45 40 35 43 39 38 34 31 31 35 35 36 36 38 37 38 39 37 39 45 47 46 41 37 34 29 29 25 17 20 18 19
11 17 11 12 14 15 35 43 37 35 41 33 30 33 28 43 39 35 30 28 32 35 37 37 35 36 38 36 36 35 41 45 47 41 41 35 32 29 27 24 15 17 17 14
8 2 19 15 15 18 18 23 27 35 40 44 30 29 30 41 36 34 32 30 31 33 33 31 31 32 36 33 34 37 42 45 44 42 40 33 30 29 26 24 16 16 16 14
10 3 9 9 18 19 22 28 27 29 28 33 39 33 37 35 33 31 29 27 29 29 30 32 30 30 35 32 35 40 41 45 44 46 40 35 30 30 27 24 17 16 16 15
9 7 6 12 11 23 19 13 21 35 32 33 34 32 31 33 34 33 35 31 30 31 33 34 31 28 35 35 36 40 42 42 46 46 40 34 30 30 27 26 18 17 12 16
12 8 7 17 20 20 21 12 14 19 26 30 31 31 31 34 31 33 33 32 30 32 34 35 36 30 33 37 37 34 39 44 46 47 41 35 31 30 28 27 21 20 13 13
14 9 11 5 26 22 21 20 11 7 17 21 27 30 29 31 32 31 28 28 27 27 29 33 36 32 31 33 38 36 37 34 43 46 41 36 33 32 31 28 25 22 19 14
8 12 12 14 10 17 22 21 15 10 14 14 19 24 24 27 33 32 28 26 26 25 27 30 32 31 30 33 32 35 36 37 38 46 43 39 37 35 33 29 26 24 22 19
5 6 10 12 11 13 17 20 18 16 14 16 19 21 24 27 26 24 22 23 27 28 29 32 30 29 24 26 26 29 34 49 49 44 42 41 38 36 36 32 29 26 24 23
2 2 4 8 9 7 16 18 16 18 19 19 21 19 21 20 21 22 22 21 23 28 28 29 28 32 29 29 29 31 47 41 51 43 43 40 35 31 33 32 31 34 32 28
8 4 4 4 4 2 9 21 16 14 13 12 18 20 18 14 17 21 22 22 23 24 26 27 26 29 30 33 35 41 33 53 48 49 44 41 36 37 32 31 25 29 37 32
11 6 4 3 4 7 4 28 24 19 14 10 10 17 18 15 17 15 18 21 22 21 20 18 20 23 29 27 35 30 39 43 58 53 47 44 38 38 34 39 28 26 21 26
8 5 8 9 7 9 7 9 20 21 18 10 15 14 12 16 18 23 30 25 17 15 16 18 19 20 20 20 22 23 27 32 30 55 53 48 42 37 39 33 29 33 31 33
11 6 7 10 13 11 11 12 13 24 15 10 14 10 13 8 9 9 15 14 13 14 17 16 15 14 14 15 19 17 22 20 35 36 44 46 54 48 55 52 49 49 42 34
13 14 15 13 18 17 16 16 14 14 9 10 7 3 3 3 5 6 7 9 11 13 13 13 14 13 13 11 11 11 15 20 19 20 31 32 45 40 40 40 36 35 35 36
7 3 13 14 20 25 25 24 22 19 12 7 8 7 7 6 5 7 6 7 9 8 9 11 13 12 10 12 15 13 13 12 14 15 15 21 28 34 30 27 28 30 30 31
10 4 14 9 8 18 21 30 31 27 22 15 13 11 10 9 9 8 7 7 9 12 13 14 13 15 18 17 14 16 16 17 19 20 20 20 19 21 21 23 26 29 30 31

GFSCGP_500_spd_117.txt.gz
Wind_Speed
46 46 44 44 46 42 49 50 49 51 37 41 55 60 57 52 49 52 47 49 50 48 49 48 46 47 44 42 36 35 34 34 34 34 31 30 32 28 25 24 26 28 26 27
53 51 47 47 47 47 51 50 52 46 47 48 52 60 57 54 53 53 50 51 48 50 50 47 48 48 44 42 38 36 35 35 33 33 32 32 35 31 28 25 25 28 28 29
58 52 54 54 51 50 51 53 45 52 47 39 53 60 57 51 53 52 50 51 52 50 50 49 48 46 43 43 40 38 35 34 32 33 33 35 36 33 30 25 25 28 29 32
60 59 63 57 55 50 56 49 51 53 54 53 45 53 42 48 49 53 55 54 51 51 51 48 46 44 45 42 41 39 37 36 33 35 34 38 36 36 32 27 27 29 29 31
62 61 62 63 58 55 54 51 50 48 45 56 52 50 40 38 43 50 54 51 51 53 51 49 46 46 44 43 41 39 39 36 33 36 36 38 37 40 35 32 29 29 30 31
59 57 56 62 63 58 55 56 51 52 44 43 48 49 45 27 32 40 50 43 46 47 47 47 46 44 44 45 41 42 39 37 34 36 37 38 40 43 39 34 31 30 31 32
37 32 31 33 52 57 58 58 47 38 40 51 41 41 50 30 24 26 37 42 38 42 44 45 43 43 43 43 41 38 38 36 36 36 39 38 41 43 41 36 33 30 31 32
33 12 16 17 35 41 46 42 43 44 40 53 39 33 37 30 35 43 42 34 33 37 39 42 45 45 43 43 40 37 35 35 38 39 40 40 41 43 41 39 34 31 31 31
25 12 14 20 21 28 34 45 39 39 32 29 23 35 37 30 34 47 41 36 32 31 35 42 41 44 44 43 42 40 38 35 36 37 38 41 42 44 41 40 35 31 29 30
19 14 13 13 23 22 29 35 37 44 40 30 30 27 28 25 31 35 33 32 33 34 36 37 41 43 45 44 41 41 39 38 37 36 38 43 44 45 42 40 32 30 28 27
15 16 15 15 5 10 16 33 37 32 39 35 29 27 24 22 29 30 28 36 32 32 37 40 40 40 42 43 40 39 38 37 36 35 39 45 47 46 42 37 30 28 28 24
11 12 10 2 1 9 16 17 31 36 33 37 31 24 20 29 37 30 34 31 26 27 34 38 39 40 38 38 37 36 36 36 34 35 40 47 48 43 41 35 28 26 26 22
9 5 14 8 11 9 15 20 26 31 29 35 32 27 29 28 30 31 32 32 25 28 30 33 35 36 33 34 34 33 34 34 33 37 42 47 45 43 39 33 26 25 25 19
8 4 7 12 13 6 14 17 30 27 31 30 31 28 24 32 27 45 22 25 25 29 29 33 33 32 30 30 32 31 32 32 33 38 40 44 43 43 39 30 26 25 24 18
3 3 13 18 11 10 7 1 19 38 35 36 29 28 28 31 33 43 42 29 30 30 31 32 32 33 31 27 29 30 31 32 35 36 39 40 44 45 42 30 29 26 24 18
12 6 4 15 12 16 11 10 2 14 38 37 37 37 22 27 29 29 36 32 32 31 32 32 32 33 32 29 28 30 30 34 36 37 37 40 43 44 43 32 29 27 25 20
12 8 5 4 9 13 12 11 7 4 7 33 38 35 33 24 31 34 34 34 32 23 24 28 31 32 33 32 28 28 32 34 36 35 36 38 40 45 44 34 31 28 25 23
6 4 7 7 12 10 8 11 13 7 4 11 25 27 39 48 42 13 25 32 30 25 25 25 27 30 35 33 29 28 30 31 32 35 38 38 37 40 44 35 31 29 26 24
2 4 2 7 6 8 6 14 13 12 10 11 12 19 20 28 36 30 26 25 26 24 24 25 27 29 32 34 30 28 27 30 38 34 41 41 42 42 43 38 34 32 29 30
13 7 7 4 3 1 2 16 12 16 11 14 20 19 18 25 31 29 25 24 23 24 25 26 29 27 29 26 29 29 30 32 36 43 55 52 44 40 41 36 31 25 31 40
14 8 6 5 3 2 5 15 15 15 13 20 14 21 22 18 21 27 24 25 22 22 23 23 24 24 27 28 26 30 33 36 39 39 36 38 39 41 41 37 32 29 26 20
16 12 11 12 9 9 5 15 24 20 11 8 7 12 21 23 22 22 22 21 23 24 25 25 24 24 23 24 26 29 30 36 39 37 38 55 59 58 42 41 36 32 27 28
15 16 14 14 14 10 8 6 24 24 18 1 5 4 13 19 24 28 29 32 37 27 19 17 18 20 21 22 22 24 28 31 27 35 37 41 53 52 49 44 37 32 33 31
18 18 17 18 19 17 12 12 15 17 20 10 9 12 11 12 14 21 24 29 21 21 16 15 18 20 22 20 21 21 22 25 25 26 27 33 37 48 50 47 41 40 39 39
16 20 16 19 21 20 21 24 23 23 19 12 9 5 5 4 7 6 7 9 11 14 16 18 18 20 18 17 19 18 17 16 16 24 23 24 28 33 35 53 57 56 53 48
11 9 5 20 17 24 27 25 28 27 19 12 10 8 9 5 7 9 9 9 11 11 12 12 13 15 19 19 17 18 19 17 17 14 17 16 16 22 31 27 29 39 41 41

GFSCGP_500_spd_120.txt.gz
Wind_Speed
45 45 48 49 51 51 52 51 49 46 38 40 45 34 41 34 41 44 48 50 48 47 47 48 45 43 39 38 35 33 35 32 31 30 28 28 29 31 28 28 27 28 25 22
46 47 55 59 60 57 54 55 53 49 43 43 46 45 38 32 42 49 46 50 51 49 51 50 50 45 40 39 39 36 34 36 31 29 28 29 30 32 29 27 29 27 25 23
49 51 58 61 62 64 61 54 53 52 44 37 38 51 50 48 51 53 50 49 51 49 50 51 48 46 45 42 39 33 35 36 33 30 28 29 31 30 29 28 28 26 28 23
56 59 64 66 66 66 69 55 52 53 46 41 36 50 44 43 48 51 45 43 46 48 49 51 47 47 47 46 39 38 38 36 35 32 29 30 31 30 30 29 28 27 27 26
58 63 65 65 63 62 65 56 53 54 53 32 40 47 37 33 32 22 32 39 51 50 48 46 51 48 46 44 42 39 38 38 36 33 33 32 32 31 30 28 32 27 28 27
62 60 44 48 48 47 53 52 52 56 51 39 48 44 39 33 33 13 22 31 28 37 50 53 47 45 46 45 44 40 37 40 36 35 36 34 32 32 31 30 32 30 30 30
58 36 35 31 40 34 36 36 53 49 46 49 51 48 43 25 22 17 23 34 38 43 41 38 43 48 46 47 47 40 40 43 39 37 38 36 34 35 33 32 34 30 31 31
45 26 28 28 30 31 29 33 40 38 34 46 48 34 43 21 22 27 27 28 28 25 28 36 39 41 43 45 42 42 42 43 39 35 39 38 36 35 35 33 34 32 32 33
36 16 16 23 25 29 27 32 33 33 30 33 24 20 34 20 16 32 34 41 38 28 31 29 34 38 40 41 42 42 41 40 36 36 37 37 36 35 35 34 35 34 33 35
23 17 16 23 24 25 18 12 27 32 35 35 31 25 14 19 29 29 39 43 47 36 34 32 31 34 39 39 41 42 43 39 37 38 38 38 35 35 35 36 36 37 33 37
22 29 13 22 15 12 18 9 16 24 37 30 24 24 13 13 24 29 31 32 28 33 33 35 33 33 34 37 40 41 41 40 38 39 41 39 37 36 36 38 39 36 34 35
22 27 18 15 11 6 10 15 16 23 28 35 26 29 23 24 24 34 32 28 29 28 32 34 34 35 37 37 37 39 41 38 37 38 39 39 39 36 39 40 40 35 35 32
17 23 19 11 14 17 15 16 14 28 25 23 37 31 15 17 17 22 31 30 31 36 31 34 33 34 37 39 39 38 35 34 35 37 38 38 37 39 41 42 40 33 33 31
21 16 21 21 22 15 6 8 18 27 29 25 25 33 20 20 31 33 38 34 19 29 37 30 29 32 34 35 34 33 33 31 33 35 35 36 38 41 40 39 37 33 33 30
21 16 22 18 20 14 19 16 19 27 27 27 29 19 23 31 34 32 28 36 50 15 10 24 28 29 29 29 28 29 30 30 32 33 32 35 38 39 35 34 36 35 37 30
19 13 16 11 16 11 9 11 4 26 31 13 35 33 33 37 37 28 28 48 50 45 31 31 29 29 29 29 28 29 29 27 29 31 31 33 36 35 32 34 38 38 38 28
10 13 17 5 8 5 4 5 9 12 32 27 34 32 26 35 41 27 33 27 44 41 26 31 32 31 31 29 30 30 29 27 28 29 31 31 32 31 33 36 38 37 38 27
4 10 15 6 7 2 6 6 8 6 8 27 38 41 37 33 25 40 43 16 15 18 30 25 22 25 27 30 30 29 31 29 28 29 30 31 31 30 34 38 39 38 40 29
12 7 11 8 5 4 11 8 6 7 4 5 23 41 38 36 41 34 27 31 12 15 17 11 17 22 23 24 28 30 31 30 29 29 33 28 30 33 35 38 36 34 44 35
14 11 12 10 8 10 5 7 12 12 10 8 13 34 47 19 49 44 51 42 46 27 21 19 19 20 23 25 25 27 30 31 30 29 31 39 37 37 41 40 37 37 45 35
14 14 13 9 9 10 5 5 9 12 11 9 7 15 18 13 30 29 34 32 28 26 24 22 24 24 22 23 24 24 25 25 29 31 33 35 40 47 52 44 38 43 44 38
15 17 16 7 12 14 8 3 13 16 7 9 4 12 18 26 18 22 18 30 27 26 25 26 24 23 23 22 21 23 25 25 26 29 34 38 40 42 42 59 48 56 44 32
16 19 18 15 15 16 8 6 13 25 18 8 6 3 8 8 23 20 23 20 25 27 27 27 21 24 24 22 22 23 24 27 29 30 32 29 31 28 36 35 49 40 40 38
18 22 19 20 22 18 16 13 12 12 25 16 1 3 3 6 11 20 24 27 26 28 26 29 23 21 17 17 20 22 23 25 28 31 33 27 26 28 35 38 41 47 45 44
15 18 23 24 23 22 22 21 18 17 19 19 12 11 4 5 8 11 12 20 25 32 33 28 21 14 16 18 21 23 23 23 22 23 24 25 30 30 35 37 43 51 53 46
16 18 18 25 22 22 25 26 22 21 22 20 14 18 8 5 5 4 6 6 9 11 10 10 11 15 16 18 22 21 17 19 20 20 20 17 25 22 24 33 37 47 41 55

GFSCGP_500_spd_123.txt.gz
Wind_Speed
41 44 45 46 49 52 54 57 59 56 52 52 53 48 45 42 39 43 38 44 50 56 55 57 52 50 49 44 44 42 39 32 29 29 27 27 30 29 26 22 23 23 23 23
41 42 47 49 50 55 58 63 61 58 59 55 55 53 50 46 38 48 47 45 45 49 52 49 42 44 44 42 40 36 34 30 27 30 28 28 30 29 29 25 21 23 24 22
43 44 48 52 52 59 62 65 66 67 62 65 57 57 52 45 37 46 52 49 50 51 51 52 46 46 47 43 37 37 34 30 31 33 32 28 30 29 30 23 24 24 23 21
44 49 52 53 61 67 74 72 71 69 67 68 55 56 54 46 35 34 39 44 49 53 53 51 49 47 49 44 39 40 38 32 34 33 31 29 31 31 30 27 29 25 24 22
47 51 56 61 67 67 65 56 53 54 54 62 63 51 53 44 33 26 31 38 38 39 39 40 42 43 44 42 42 39 36 34 37 35 32 32 34 34 32 31 31 26 25 24
49 54 54 60 52 47 42 41 38 35 39 52 58 50 51 45 30 21 14 20 24 34 40 35 40 42 45 49 44 41 36 37 36 36 32 33 36 35 33 33 32 28 27 27
49 55 51 35 35 39 35 41 40 34 30 50 47 48 50 39 31 20 21 18 22 22 37 41 43 48 53 48 46 42 39 31 36 39 37 35 37 36 35 36 34 30 29 29
55 61 43 18 27 32 30 32 33 39 39 31 42 42 46 43 23 22 27 26 14 20 28 31 37 42 45 45 42 39 38 37 42 41 37 37 39 39 37 37 35 30 30 32
54 40 12 16 25 31 27 26 28 31 24 26 26 29 36 26 17 31 30 31 27 34 28 26 23 29 31 33 38 43 42 41 42 40 38 39 40 41 40 38 34 31 31 33
47 44 15 16 24 25 28 24 25 19 24 25 19 25 21 21 27 34 25 32 29 23 20 18 23 29 35 36 37 39 40 40 40 37 36 38 40 41 40 37 33 33 32 33
42 32 11 17 24 26 17 8 9 17 20 16 18 22 26 13 26 26 32 29 26 27 35 37 33 31 27 32 36 37 37 39 39 38 37 36 37 39 39 36 34 34 34 35
34 24 17 12 19 17 21 20 9 17 14 11 22 30 20 5 29 27 24 27 27 30 27 18 28 24 29 31 32 33 35 36 36 36 37 37 37 38 39 36 35 37 37 37
32 18 22 12 9 12 21 16 23 20 20 17 26 35 14 9 3 25 29 24 30 31 25 31 34 38 36 35 33 33 33 32 33 35 35 35 37 39 40 39 38 37 38 40
30 12 19 20 20 20 15 12 20 17 13 15 30 25 11 14 17 34 31 36 33 31 25 39 35 37 36 34 33 33 34 33 32 31 33 36 38 39 39 39 39 39 40 36
22 13 16 16 22 12 17 21 27 17 12 19 18 21 13 19 23 28 33 25 35 29 32 32 33 31 30 30 29 29 27 28 28 29 32 35 39 40 38 39 40 39 35 35
17 13 16 10 20 14 8 18 23 9 16 22 25 21 28 26 26 27 24 32 9 26 35 28 18 18 22 25 25 25 24 25 25 25 29 35 37 38 38 39 38 33 34 35
19 18 17 8 11 3 2 11 4 21 16 18 26 32 33 34 30 27 27 30 15 14 39 39 26 22 25 26 28 27 26 25 26 25 26 30 32 34 37 36 34 31 33 32
13 13 11 10 13 12 9 11 8 5 2 10 29 30 37 39 40 32 29 24 23 3 23 30 31 31 30 30 31 29 28 28 28 27 26 27 28 31 33 32 31 32 34 35
9 6 10 12 10 9 7 13 12 9 12 17 4 31 35 37 29 22 22 19 26 26 6 5 6 24 27 25 25 26 28 27 28 29 28 28 29 30 30 30 30 30 34 35
10 13 16 14 11 12 16 12 8 9 10 10 7 21 35 39 44 35 29 26 27 16 29 33 27 11 12 17 20 20 21 24 28 29 27 29 30 30 29 29 31 31 35 36
13 18 20 16 16 14 18 9 8 9 8 7 6 1 14 25 35 40 33 25 37 32 33 32 28 15 18 18 19 20 21 23 25 28 29 29 30 30 32 35 37 37 40 39
14 15 18 19 12 17 14 9 9 8 10 8 11 8 2 11 22 41 18 9 21 24 23 21 19 20 22 21 20 21 21 23 24 24 25 28 29 29 32 36 42 43 37 43
17 15 18 20 23 18 15 12 9 7 12 11 6 11 7 5 7 20 17 13 13 15 20 21 22 24 24 24 22 22 22 25 26 28 28 27 28 30 29 31 31 45 40 35
24 20 20 22 25 22 16 14 10 8 12 21 9 1 1 5 7 7 11 15 15 19 17 21 18 21 22 20 17 19 19 22 26 30 30 29 29 28 29 24 24 24 28 31
24 21 18 24 30 27 25 22 17 11 14 15 13 12 6 1 5 7 6 10 17 20 20 19 22 25 24 24 17 18 18 18 20 23 26 27 28 29 29 29 28 29 28 37
25 23 19 20 25 29 26 20 20 18 18 21 20 12 14 10 8 2 2 3 7 8 12 16 19 20 21 16 15 16 15 18 19 21 22 21 23 21 26 29 31 34 41 36

GFSCGP_500_spd_126.txt.gz
Wind_Speed
38 40 43 47 50 52 56 60 62 57 58 67 66 65 60 59 57 53 48 47 46 59 58 72 69 59 60 59 48 47 43 41 33 34 35 35 32 31 29 28 29 27 22 22
41 43 47 48 50 52 55 61 61 61 60 68 70 72 69 61 60 51 50 48 42 48 53 62 62 58 56 52 52 50 46 43 35 35 35 37 35 31 33 31 30 29 21 24
40 45 46 47 49 54 53 62 67 73 72 73 73 80 75 67 65 56 48 42 39 47 50 53 61 58 54 57 55 48 45 40 39 38 36 38 37 34 33 30 31 28 26 26
42 43 45 47 51 57 59 65 72 70 64 64 49 75 74 70 65 60 49 39 38 45 50 52 53 56 53 52 48 52 46 43 39 37 36 37 35 35 34 33 34 32 32 28
41 43 47 50 54 61 64 65 57 49 44 44 42 48 56 50 59 55 47 40 39 43 52 56 57 50 46 46 51 47 43 40 37 37 37 36 36 37 37 37 36 35 33 31
39 44 49 52 54 56 53 44 39 38 42 44 37 43 45 34 41 45 41 36 33 38 51 59 60 58 54 49 49 48 45 42 43 40 38 37 36 36 38 39 37 37 35 34
36 41 49 53 54 45 30 36 43 35 41 46 43 45 40 15 27 35 34 27 37 40 41 46 52 52 50 50 46 46 47 44 42 39 39 38 34 36 39 39 38 39 38 35
38 41 46 45 41 39 24 36 42 41 42 48 41 43 36 10 19 22 28 27 37 37 41 46 47 49 51 49 46 46 44 39 36 37 39 38 37 39 39 38 38 39 39 37
38 42 41 40 31 28 24 32 32 33 33 45 37 36 8 8 27 19 21 35 33 24 34 41 41 45 48 49 45 45 40 36 38 40 40 40 39 39 37 38 39 38 40 39
36 42 39 28 24 20 21 28 28 25 29 41 38 20 11 3 15 15 31 44 36 28 29 27 29 33 42 38 35 37 39 41 41 42 42 41 40 40 41 41 40 40 41 38
37 42 39 19 19 18 22 18 23 26 27 30 36 11 2 10 11 24 40 33 17 24 25 25 24 30 32 32 38 38 37 39 41 42 42 41 41 40 41 41 41 41 41 38
37 40 37 15 13 15 15 29 29 30 27 27 30 14 8 10 10 31 32 28 26 24 26 24 28 31 29 30 30 37 34 34 36 38 39 38 38 38 39 40 41 40 37 37
37 36 34 11 10 16 15 16 26 29 36 32 26 20 5 10 17 34 21 24 26 26 26 28 31 28 30 34 30 31 31 35 36 36 36 36 38 39 40 38 40 38 36 38
38 31 23 11 11 17 20 15 17 27 27 14 16 16 10 12 14 29 24 21 33 31 33 30 27 31 24 32 32 32 32 36 36 36 36 35 35 35 37 39 39 39 39 39
35 25 17 10 15 17 14 14 17 25 16 8 10 11 16 11 7 14 26 23 19 19 36 29 32 34 32 31 35 32 32 33 33 32 31 31 31 33 35 36 36 39 41 41
33 17 14 6 12 16 9 15 17 17 14 13 13 15 15 16 24 19 21 12 17 15 24 38 24 26 35 35 33 30 27 25 25 26 27 29 31 33 34 36 38 39 41 41
25 21 15 8 12 15 13 13 12 11 20 12 11 19 20 16 30 25 13 13 4 5 13 28 30 30 32 26 24 22 22 22 22 23 25 26 29 32 34 36 37 39 40 42
13 17 12 9 13 15 14 13 15 9 13 12 14 20 25 31 33 30 21 17 12 2 13 16 23 32 27 22 22 25 24 24 24 23 24 25 26 28 31 34 36 38 40 41
13 10 10 10 9 12 9 8 12 14 10 13 9 8 25 31 32 27 24 15 14 10 16 7 10 11 23 26 26 25 27 26 27 27 27 26 27 28 29 31 34 35 36 36
15 14 18 15 13 12 11 11 16 10 8 8 8 5 14 25 30 32 36 26 20 16 10 9 12 15 11 14 18 23 23 22 25 28 28 27 29 30 31 31 30 32 34 35
22 24 20 17 17 16 10 11 13 10 11 5 7 6 7 15 19 25 29 31 29 22 20 25 20 22 15 6 11 16 18 20 21 24 26 28 30 29 31 29 32 31 33 36
24 23 21 21 21 21 18 14 12 10 12 5 4 6 8 1 5 5 15 18 25 23 12 17 23 22 13 15 18 21 22 21 22 24 25 24 26 28 31 30 31 32 32 36
24 26 24 20 22 25 25 15 15 11 9 15 2 2 3 7 2 5 4 10 16 18 11 17 18 18 19 21 21 22 22 21 23 25 26 28 27 29 27 27 30 33 34 36
23 29 28 25 21 24 27 22 14 12 9 9 6 5 6 3 6 4 3 9 17 14 13 14 16 15 17 18 20 18 17 19 22 24 26 28 29 32 32 31 28 30 31 29
28 29 29 25 27 24 25 26 21 18 13 8 10 11 7 6 2 2 5 5 9 17 17 16 16 13 13 12 13 16 17 18 18 21 23 24 26 29 32 34 34 32 27 28
28 26 25 22 21 23 19 23 25 20 20 17 12 12 12 11 11 9 5 4 4 5 8 11 13 12 12 13 14 18 18 16 16 17 19 20 23 25 27 28 29 30 30 30